GFSSW_sfc_temp_000.txt.gz
Temp
60 60 60 60 60 60 60 60 60 61 61 61 61 61 61 60 59 58 59 72 71 71 73 72 73 75 72 66 67 64 52 49 53 55 60 63 62 68 74 71 72 76 74 76 72
59 59 59 59 60 60 59 59 60 60 60 61 61 60 60 60 52 54 72 73 73 73 72 71 68 71 62 63 64 60 51 54 64 65 62 62 62 67 69 70 70 74 77 75 71
59 59 59 59 59 59 59 59 59 60 60 60 60 60 60 58 51 62 75 73 73 74 75 75 74 68 59 60 62 59 58 66 68 70 65 64 66 68 68 67 73 70 75 72 68
59 59 59 59 58 58 58 59 59 59 59 59 59 60 60 52 49 68 75 73 73 74 73 72 69 62 57 57 65 54 63 68 70 71 66 65 68 69 70 71 78 77 75 72 68
58 58 59 58 58 58 58 58 58 58 58 59 59 60 55 45 51 73 75 75 72 70 70 70 65 62 55 58 64 58 63 67 67 66 68 68 66 68 71 77 78 76 73 71 68
57 57 58 58 58 58 58 58 57 57 58 58 59 60 52 40 64 69 66 69 72 68 66 68 66 67 60 61 59 61 64 66 66 68 71 67 68 69 73 78 74 73 71 70 68
57 57 57 57 58 58 58 57 57 57 57 58 59 58 50 47 63 65 63 59 66 70 67 71 73 69 62 57 64 63 57 60 64 68 66 69 62 65 75 72 70 71 72 70 68
57 57 57 57 57 57 58 57 57 57 58 58 59 56 45 60 62 60 61 60 66 67 69 74 75 66 59 61 61 55 54 48 62 65 66 65 56 69 74 69 70 71 72 69 68
57 56 56 57 57 57 57 56 56 57 58 58 54 48 42 61 55 61 63 60 69 67 68 77 71 61 59 56 51 49 48 50 55 65 63 62 59 68 68 67 67 68 68 69 68
56 56 56 56 56 56 55 55 56 55 56 59 57 45 48 52 59 64 64 64 65 64 62 62 59 53 50 50 44 45 45 50 53 61 61 58 58 66 70 68 66 66 66 66 65
56 56 56 56 56 55 54 45 45 44 49 43 45 46 51 60 64 64 65 61 63 59 52 55 52 48 54 56 55 54 53 52 54 63 61 56 56 61 66 64 63 67 69 68 66
56 56 56 56 56 55 48 40 50 49 39 50 50 51 55 58 48 55 67 55 55 50 58 53 49 58 60 58 55 53 51 51 57 62 60 57 57 62 65 66 64 68 69 69 62
55 55 55 55 55 46 42 46 57 55 39 45 51 50 50 54 46 51 59 58 53 51 55 51 56 63 59 55 52 52 51 52 51 60 60 55 53 57 64 64 65 65 64 63 63
55 55 55 55 47 43 43 51 54 55 33 37 43 50 53 53 46 60 64 59 55 50 55 54 62 59 55 54 55 48 58 57 55 53 44 54 37 52 57 62 63 66 64 64 63
54 55 55 54 48 46 47 47 50 49 19 46 49 60 56 49 53 55 63 60 52 52 53 50 55 55 54 56 60 53 63 57 57 50 43 48 41 50 54 55 61 63 66 65 63
54 55 54 48 45 46 48 46 45 30 21 41 51 47 47 50 51 56 55 61 61 54 55 55 61 61 58 62 62 63 56 53 49 44 38 48 45 45 50 58 60 62 64 64 57
54 54 51 53 41 45 45 41 27 21 44 39 40 45 46 43 47 50 48 46 46 42 43 50 52 57 62 55 57 56 47 34 30 29 34 50 44 52 57 60 63 65 64 57 54
53 51 50 50 45 46 41 34 22 34 36 45 42 44 43 44 41 44 45 42 51 48 46 41 39 54 60 56 54 54 50 36 30 32 40 48 42 52 61 65 64 65 62 55 53
52 44 44 45 47 46 36 26 26 34 40 38 40 37 39 43 41 39 40 43 49 52 43 43 44 57 62 64 62 54 45 54 42 45 38 41 50 59 61 63 64 59 57 53 52
47 45 40 48 48 46 35 28 32 42 43 41 31 38 32 37 37 34 38 45 43 49 56 47 40 55 59 62 63 54 57 43 44 32 30 41 44 48 54 59 59 57 55 52 52
40 34 44 48 48 40 29 31 36 44 44 38 35 34 37 36 38 33 34 43 41 44 49 47 45 47 54 52 51 48 47 45 48 40 34 33 41 53 58 61 61 59 56 52 54
40 28 44 47 36 34 30 36 42 40 44 41 40 38 37 40 36 32 33 36 39 44 39 42 40 40 47 55 62 60 54 48 45 37 43 40 42 57 59 59 59 59 56 53 54
37 37 42 45 29 29 35 35 39 39 40 39 37 41 41 39 33 38 37 43 42 41 40 43 36 34 40 46 50 53 56 57 46 42 42 43 44 60 58 59 59 57 55 54 54
37 29 33 37 38 34 32 31 32 43 40 41 39 40 38 38 41 36 38 43 43 44 48 43 35 36 39 43 48 46 53 56 51 40 42 48 48 56 58 58 57 56 54 54 55
33 30 34 30 28 34 33 31 31 32 38 40 36 37 36 32 35 34 38 40 43 43 42 37 30 38 41 49 50 51 53 54 51 54 48 49 51 55 60 58 56 55 54 56 56
33 35 36 36 37 35 32 28 32 34 36 34 34 37 37 34 36 32 37 37 35 41 39 37 31 36 37 48 51 50 53 55 56 56 55 52 54 61 59 58 57 58 58 58 58
44 43 39 36 32 32 32 33 34 36 38 40 38 35 34 39 43 44 44 44 42 39 38 34 34 32 30 40 47 42 52 52 54 58 59 51 63 57 57 59 58 57 59 60 61

GFSSW_sfc_temp_003.txt.gz
Temp
60 60 59 59 59 60 60 60 60 60 60 61 61 61 60 60 60 65 67 73 73 71 73 76 75 79 80 78 78 75 68 65 66 67 74 78 77 80 84 82 84 86 87 90 84
60 60 60 59 59 59 59 59 60 60 60 60 60 60 60 60 58 59 73 72 73 73 78 77 72 75 74 75 76 73 67 68 75 77 76 78 75 78 78 80 80 83 89 89 84
59 59 60 59 59 59 59 59 59 60 60 60 60 60 60 61 60 69 74 72 73 74 83 81 80 75 70 71 73 73 66 74 76 78 77 76 77 81 78 75 82 80 84 89 89
59 59 59 59 59 59 59 59 59 59 59 59 59 59 60 59 57 73 71 72 72 75 77 77 76 70 69 67 74 67 73 75 77 79 76 74 78 75 78 79 85 85 86 86 85
58 58 58 58 58 59 59 59 59 59 58 58 59 59 59 51 59 76 71 71 77 74 72 73 71 72 67 70 71 67 72 75 77 77 76 76 73 74 76 82 86 86 84 84 84
57 58 58 58 58 58 58 58 58 58 58 58 58 59 53 41 67 70 69 68 75 74 73 74 73 76 72 69 68 75 72 74 76 75 77 73 74 77 77 83 83 83 83 85 85
57 57 57 57 58 58 58 57 57 57 58 59 59 59 50 49 67 70 69 66 67 68 70 76 77 71 73 68 75 72 66 70 71 73 72 74 69 70 80 83 80 81 83 83 84
57 57 57 57 57 58 58 57 56 57 58 59 59 57 46 64 68 64 67 64 68 69 68 74 78 74 70 72 69 66 66 61 72 72 73 71 64 77 83 80 79 80 80 81 84
57 56 56 57 57 57 57 56 57 58 58 59 54 51 46 64 59 65 66 61 70 69 71 76 75 69 69 63 60 62 58 59 64 72 72 70 68 77 80 78 76 78 79 80 81
57 56 56 56 57 56 55 55 57 57 58 60 58 47 54 56 62 65 69 65 63 67 65 67 68 63 63 60 51 57 56 60 60 70 70 70 68 74 76 75 74 77 79 78 79
57 56 56 56 56 55 54 53 54 51 53 49 49 50 55 63 66 63 65 61 61 65 59 64 58 55 60 62 63 63 61 60 67 71 67 67 67 70 74 75 75 76 77 78 79
56 56 56 56 56 55 53 49 49 50 41 53 51 53 58 61 51 60 66 56 55 54 62 58 54 64 67 65 61 60 58 59 64 68 66 66 64 70 73 73 76 75 76 77 80
55 55 55 56 55 52 49 50 57 56 41 48 53 52 54 56 48 51 60 59 55 53 58 56 61 65 63 61 58 59 58 59 59 66 67 64 61 66 74 74 76 77 78 78 77
55 55 55 55 51 51 49 55 56 55 36 42 47 52 56 55 47 59 62 60 57 53 58 60 68 63 61 59 60 54 63 62 60 57 53 64 50 62 68 69 74 76 76 78 80
54 55 55 54 50 48 52 55 57 51 24 48 50 63 61 52 55 58 63 58 52 56 58 55 59 60 58 59 63 58 66 61 60 57 57 58 53 60 67 65 70 75 78 80 80
54 55 54 53 51 53 56 54 52 34 23 42 51 48 51 54 55 58 56 60 63 55 59 61 68 65 64 65 65 67 63 61 60 58 47 56 54 55 61 66 71 76 79 78 75
54 53 51 54 48 53 54 50 33 26 45 40 41 46 48 47 48 50 47 46 47 44 46 56 59 65 68 61 65 62 57 48 45 45 44 60 54 56 68 72 73 75 80 77 69
53 52 51 54 55 54 49 39 23 36 38 47 44 46 43 46 44 44 44 45 51 53 52 47 45 59 66 63 59 58 57 50 40 43 51 56 50 56 71 75 76 78 78 73 68
51 52 51 54 53 52 41 28 33 37 42 40 42 39 40 45 44 42 40 41 52 53 46 48 50 64 66 68 67 59 53 64 54 53 50 54 58 65 71 72 74 74 71 69 67
49 47 49 53 53 46 36 32 35 43 44 43 34 40 35 40 39 38 34 40 39 47 50 51 47 60 63 68 68 64 67 51 55 42 40 50 53 58 66 70 74 73 71 67 67
46 42 53 52 51 38 31 34 37 46 46 39 37 36 38 38 38 33 33 37 39 42 47 50 50 55 61 58 59 58 57 59 59 55 46 44 53 69 69 75 75 76 73 68 67
45 37 52 51 39 36 33 37 41 42 47 43 43 41 38 39 37 35 33 37 42 40 37 48 48 48 54 66 68 65 61 59 52 46 54 49 54 70 70 74 73 73 70 69 69
39 39 50 49 31 32 38 38 41 41 42 41 40 44 44 39 33 39 37 43 41 39 37 45 47 45 48 57 63 59 62 62 59 58 50 47 56 71 72 72 72 71 68 67 68
41 33 41 43 41 35 32 36 36 45 42 44 42 44 41 39 42 35 37 41 41 41 45 47 43 44 49 52 58 54 58 61 60 53 53 54 61 68 72 73 71 68 68 69 69
41 38 39 32 36 35 36 36 34 35 43 44 40 39 35 34 37 33 35 37 42 41 46 44 39 44 49 50 56 57 58 59 56 57 52 59 59 66 71 73 71 69 68 68 68
39 38 42 38 39 36 37 35 35 38 37 38 37 41 40 35 37 33 36 37 36 42 43 46 41 43 46 53 55 55 59 60 59 60 59 62 62 74 76 72 68 68 67 68 69
47 45 40 38 36 33 36 36 35 36 41 43 41 38 37 42 45 46 46 45 44 41 41 42 42 41 44 49 53 50 54 59 60 62 62 58 65 73 73 73 71 69 69 71 71

GFSSW_sfc_temp_006.txt.gz
Temp
61 61 61 60 60 59 59 59 59 60 61 61 61 61 61 61 61 76 73 80 81 71 74 86 85 86 88 86 89 90 76 74 78 80 82 92 86 90 92 90 92 94 93 97 99
60 60 60 60 60 60 59 59 59 59 60 61 60 60 60 60 67 72 80 74 73 72 83 83 81 84 82 83 85 81 76 77 86 88 86 90 89 89 86 87 88 92 98 100 99
59 60 60 59 59 59 59 60 60 60 60 59 60 60 60 63 68 79 71 72 72 75 86 88 89 85 79 84 83 82 75 86 87 90 91 87 86 91 86 82 86 89 92 96 97
59 59 59 59 59 59 59 59 60 60 60 59 59 59 60 67 64 77 71 71 73 79 82 85 83 79 76 77 83 76 83 86 88 90 89 84 88 85 87 86 91 94 95 95 94
58 59 59 58 59 59 59 59 59 59 59 59 59 59 63 62 68 84 73 77 83 80 79 82 79 79 75 80 81 78 81 86 88 87 87 88 83 84 86 88 92 93 93 93 94
58 58 58 58 58 58 58 58 58 58 58 58 59 59 61 53 78 80 78 78 80 82 80 82 80 84 81 81 80 83 83 83 86 85 86 82 82 85 86 88 89 91 92 94 94
57 57 57 58 58 58 58 57 57 57 58 59 60 61 58 59 77 79 78 76 77 79 79 84 86 79 81 76 84 82 75 79 80 83 82 84 76 78 88 88 88 90 92 93 94
57 57 57 57 58 58 58 57 57 57 58 59 60 59 54 74 78 74 77 75 79 78 77 83 85 80 78 82 78 75 76 68 79 81 81 79 69 83 91 90 88 89 91 91 92
57 57 57 57 57 57 57 56 57 58 59 60 59 56 56 69 65 73 75 68 76 79 77 80 80 75 77 69 67 71 64 69 73 84 81 79 72 82 90 88 85 86 88 90 90
57 56 56 56 57 57 56 55 59 58 63 66 65 54 63 62 69 71 77 73 68 72 70 70 73 69 70 68 58 64 66 69 70 80 80 75 74 81 87 87 84 85 87 88 88
57 56 56 56 56 56 58 67 63 60 62 59 61 59 65 72 74 70 73 69 68 65 61 69 63 61 67 69 71 70 70 69 74 80 76 74 74 79 85 84 82 84 85 86 88
56 56 56 56 56 55 61 58 56 57 49 62 62 61 65 68 57 64 72 61 62 57 65 66 59 70 73 73 69 68 67 67 73 78 75 72 71 78 81 82 83 83 84 87 88
55 55 56 56 55 58 60 57 65 63 48 57 62 60 62 64 57 59 66 64 60 58 62 61 66 73 71 69 67 67 65 66 66 72 75 70 66 71 79 82 84 86 87 87 87
55 55 55 55 55 63 59 63 66 64 40 52 55 60 64 62 54 67 68 64 61 57 61 63 72 71 69 67 70 62 71 68 66 64 59 72 56 69 75 77 81 83 85 88 89
54 55 55 54 57 57 61 65 66 59 30 53 56 70 66 58 60 62 71 63 56 59 62 58 64 66 66 67 72 66 70 69 67 64 63 64 60 66 75 72 77 81 85 88 90
54 55 54 61 57 62 65 64 59 37 30 48 57 54 55 59 59 63 62 65 65 58 62 63 74 71 71 74 73 74 68 68 68 65 54 62 62 63 70 74 78 84 86 88 89
54 53 54 62 54 64 63 57 37 32 51 45 46 53 53 53 55 55 54 54 51 45 48 59 62 70 74 68 73 70 63 54 50 52 51 67 63 65 75 79 81 83 85 86 83
53 52 54 64 61 60 56 42 28 42 43 52 50 51 47 54 52 50 52 50 58 55 54 49 48 62 72 69 65 65 63 58 46 50 58 67 57 66 77 83 85 86 87 86 81
51 65 65 61 60 58 44 33 39 43 47 45 47 44 47 50 50 48 48 43 49 57 47 49 52 68 71 73 73 65 62 71 63 63 58 65 68 73 78 80 82 84 84 83 81
58 59 59 63 60 47 36 35 42 48 49 48 39 45 41 44 45 44 42 37 39 53 61 52 49 66 68 74 74 70 73 59 64 49 48 58 60 61 70 78 81 83 84 81 79
58 54 60 63 60 47 35 41 45 51 51 45 43 42 42 42 45 42 38 43 40 48 53 55 52 59 66 63 64 67 65 66 66 63 53 52 58 75 75 80 81 84 84 79 79
55 49 62 63 45 44 38 44 46 48 52 48 49 45 43 44 44 43 39 42 46 47 42 56 51 48 59 70 74 72 68 66 59 54 61 59 58 81 79 81 81 84 82 82 82
49 51 64 58 35 35 42 45 49 47 48 47 45 48 49 44 39 43 45 49 44 40 39 50 50 47 55 63 69 66 69 69 68 67 57 56 62 82 81 81 81 81 81 80 81
52 44 53 54 48 40 39 42 43 51 49 48 48 48 46 44 45 38 37 41 44 41 42 45 49 50 52 57 65 61 65 69 65 59 60 62 67 74 79 79 81 79 80 82 81
53 48 47 41 42 42 42 41 38 38 49 51 46 45 43 40 43 33 37 38 44 44 45 47 47 53 57 59 62 65 64 67 63 65 61 65 66 73 79 79 81 81 81 80 80
46 42 47 44 46 42 42 41 40 41 38 42 43 46 47 42 45 39 44 43 40 47 44 50 49 55 52 59 61 62 66 67 67 67 68 68 69 80 82 82 80 78 80 80 80
49 52 41 44 42 38 39 40 37 39 42 48 46 44 43 48 51 53 53 51 48 44 41 40 44 50 47 59 58 56 64 66 67 69 69 64 71 73 74 75 76 77 80 81 82

GFSSW_sfc_temp_009.txt.gz
Temp
60 61 60 60 60 60 60 60 60 60 60 60 61 61 60 60 61 77 76 85 86 72 72 90 90 90 90 87 90 92 77 74 79 81 85 95 93 98 99 94 96 98 98 101 105
60 60 60 60 60 60 59 60 60 60 61 61 60 60 60 60 69 76 83 75 73 73 86 87 83 86 84 85 87 83 77 78 88 90 89 93 94 95 94 92 92 95 101 104 105
59 60 60 60 59 59 60 60 60 60 60 60 60 60 59 63 72 83 72 72 72 76 86 91 91 88 82 87 86 84 76 85 89 92 93 92 91 95 92 87 92 92 95 99 101
59 60 59 59 59 59 59 59 60 60 60 60 60 60 60 68 66 80 73 73 73 81 82 82 86 83 81 79 87 80 86 87 90 92 90 89 93 91 92 91 97 98 98 98 97
58 59 59 58 59 59 59 59 59 59 59 59 59 60 65 67 71 90 76 80 86 87 81 81 82 83 79 83 85 83 85 89 91 91 91 93 89 89 91 95 98 98 97 95 97
58 58 58 58 58 59 59 58 58 58 58 59 59 59 63 56 85 87 85 85 85 85 85 85 84 88 84 84 83 86 87 87 89 89 90 87 88 90 91 95 94 95 94 96 97
58 58 58 58 58 58 58 58 57 57 58 59 60 65 61 63 83 85 85 83 85 84 80 89 89 86 86 81 88 86 80 84 85 88 86 89 81 82 91 93 92 92 95 96 98
58 57 57 58 58 58 58 57 57 57 58 59 60 65 57 79 85 82 84 82 85 85 82 86 90 85 82 86 83 79 79 71 82 86 87 85 72 84 91 90 89 93 94 95 97
58 57 57 57 58 58 57 56 57 58 59 60 62 61 59 76 73 78 80 74 79 83 83 84 81 77 80 73 70 75 67 71 76 87 85 81 75 85 91 90 88 89 92 93 94
57 56 56 57 57 57 56 55 61 61 62 70 70 61 68 67 77 75 79 78 73 75 75 74 73 69 71 70 60 65 68 71 71 81 84 80 79 86 90 88 87 89 92 92 92
57 56 56 56 56 56 58 71 68 63 67 63 65 63 70 77 80 75 78 74 74 69 63 71 64 61 67 70 74 74 72 71 77 84 79 77 78 83 88 86 86 88 89 90 90
56 56 56 56 56 56 61 64 64 64 53 66 67 68 72 74 63 70 77 66 65 59 66 65 59 69 74 75 72 71 69 70 76 81 77 76 75 81 84 85 86 85 87 88 90
55 55 55 56 55 59 67 65 72 71 53 60 68 68 70 72 64 65 72 68 62 61 62 60 67 73 72 71 70 70 68 68 70 76 78 75 71 75 82 84 85 87 88 89 89
55 55 55 55 56 68 66 70 74 71 45 56 61 65 68 68 61 73 74 68 63 58 63 63 71 70 69 68 72 64 76 73 71 68 62 76 61 72 78 80 83 86 87 89 90
55 55 55 54 60 62 67 73 73 64 30 58 61 74 69 63 66 66 76 68 58 60 62 59 64 66 66 69 75 70 77 74 72 68 66 67 63 69 77 75 80 84 87 89 91
54 55 54 65 65 67 73 70 63 38 32 52 60 56 59 63 64 68 67 70 68 60 63 63 73 71 69 74 77 78 74 73 72 68 57 65 64 65 73 77 82 86 89 91 93
54 54 55 68 59 71 68 60 35 34 52 45 48 55 54 55 58 61 59 56 53 49 49 58 62 71 74 68 74 74 67 56 53 54 54 69 65 68 78 83 85 85 88 90 90
53 52 56 68 70 67 57 43 30 45 47 56 55 55 50 56 57 58 55 52 59 56 54 50 47 62 71 70 67 70 67 59 47 52 58 70 61 70 83 86 87 88 90 90 87
51 70 61 66 68 67 49 32 35 46 52 49 51 44 48 51 54 53 53 52 53 51 41 51 52 69 70 74 74 68 65 73 65 67 63 69 72 79 83 84 85 86 89 88 86
60 66 62 70 67 60 46 39 47 52 53 52 41 47 41 47 49 50 50 47 50 54 54 50 49 65 70 73 74 72 77 62 66 53 52 63 65 68 74 79 84 85 87 86 85
60 59 66 70 65 49 38 47 52 57 56 47 45 45 47 42 46 46 46 52 50 53 56 55 47 55 65 63 64 69 68 68 68 66 57 54 62 78 77 80 83 87 88 85 85
62 54 69 70 43 49 44 51 51 55 57 53 49 50 45 45 45 48 43 50 52 51 45 57 47 44 55 70 75 74 70 68 62 58 67 65 66 83 82 83 85 86 86 86 86
57 61 69 64 38 40 50 52 54 51 53 52 47 52 53 46 38 46 46 43 50 44 39 46 44 38 48 62 70 67 71 72 69 70 61 60 66 83 84 83 84 87 86 85 85
59 51 62 61 54 44 45 46 47 56 53 54 52 53 45 46 49 37 41 44 46 44 44 43 44 42 45 56 66 63 68 73 68 63 65 66 70 76 80 81 83 85 85 85 85
61 54 53 46 47 45 46 46 45 42 50 54 50 49 46 44 48 41 43 49 49 47 41 42 42 49 47 57 68 67 68 71 67 69 65 69 70 77 80 81 82 85 85 85 84
51 48 54 48 49 46 47 45 44 47 45 46 44 50 51 45 46 43 48 49 42 49 40 45 44 50 43 51 61 65 68 71 71 71 72 73 72 83 85 85 83 83 84 84 84
59 56 48 47 47 43 45 45 44 47 50 51 49 48 47 50 55 57 56 56 52 47 45 42 46 45 36 51 61 56 67 70 71 74 73 68 75 80 78 77 77 79 84 85 85

GFSSW_sfc_temp_015.txt.gz
Temp
60 60 60 60 60 60 60 60 60 60 60 60 60 60 60 60 60 61 58 69 71 73 72 83 81 80 80 76 78 79 57 54 62 66 71 83 81 88 93 88 89 90 87 88 94
60 60 60 60 60 59 59 60 60 60 60 60 60 60 60 60 55 57 69 74 75 74 75 76 74 78 72 73 73 69 58 61 72 74 73 79 82 84 85 82 83 88 93 94 95
59 59 60 59 59 59 59 60 60 60 60 60 60 60 59 59 54 66 73 74 74 76 80 80 80 78 70 73 72 71 63 71 74 78 80 78 80 86 83 77 83 82 87 91 91
59 59 59 59 59 59 59 59 59 60 60 59 59 59 60 56 48 72 74 73 73 77 78 76 71 63 62 66 74 66 73 74 76 78 78 76 83 81 82 81 86 88 89 86 84
58 59 59 58 58 58 59 59 59 59 59 59 59 59 56 51 53 75 74 75 77 77 73 69 64 62 58 64 71 68 71 76 79 79 79 81 78 80 81 87 89 89 90 84 83
58 58 58 58 58 58 58 58 58 58 58 58 59 59 51 39 68 75 79 78 77 76 72 70 67 69 64 64 65 71 73 75 77 77 79 78 79 81 83 86 87 88 85 85 83
57 57 57 58 58 58 58 57 57 57 58 58 59 59 50 47 69 72 70 69 73 74 72 76 77 72 67 62 71 71 65 70 74 76 76 81 74 75 84 84 83 82 85 85 84
57 57 57 57 57 58 58 57 57 57 58 59 60 55 44 66 68 66 67 68 74 75 74 76 76 68 63 68 68 64 64 57 69 73 77 77 64 76 82 83 81 84 86 87 81
57 56 57 57 57 57 57 56 57 58 59 60 54 50 46 71 64 70 71 67 72 74 74 80 73 64 64 56 53 57 52 56 62 74 73 71 66 75 82 81 80 81 84 85 85
57 56 56 56 56 56 55 56 58 60 61 65 62 51 57 60 72 76 75 75 70 68 66 64 59 56 56 52 43 50 53 58 58 67 70 69 68 75 79 80 79 81 82 82 83
57 56 56 56 56 55 53 51 57 52 55 55 57 55 60 69 75 72 76 71 69 62 51 57 50 47 53 57 58 60 58 58 63 70 67 66 67 72 77 78 77 78 73 74 75
56 56 56 55 55 55 51 50 60 58 48 60 61 61 66 68 59 66 73 61 58 50 56 52 46 56 61 61 59 57 55 55 63 70 67 65 64 72 74 74 73 73 72 73 74
55 55 55 55 55 52 55 63 69 65 46 52 60 59 61 65 58 60 67 63 56 51 52 47 53 63 60 58 56 56 54 55 56 64 67 64 60 65 72 74 76 77 75 75 80
54 54 55 54 53 57 57 66 66 64 35 46 57 63 63 63 55 69 71 64 57 50 53 50 58 58 57 56 59 51 62 62 60 57 49 63 47 61 66 69 74 76 77 76 79
54 55 55 53 49 52 61 64 63 54 21 48 51 66 64 58 62 62 73 65 54 54 53 48 53 53 52 56 62 55 64 62 61 57 55 57 49 55 64 63 66 72 73 75 77
54 55 54 56 50 58 64 63 56 34 24 40 54 55 54 58 59 63 65 67 66 56 55 53 62 58 56 62 64 65 60 59 59 54 43 54 53 55 59 62 68 72 76 79 75
54 53 51 59 50 64 61 54 33 25 46 44 48 54 53 48 53 57 55 50 45 42 42 49 52 59 62 54 59 58 51 39 38 39 40 57 53 57 63 69 72 71 72 70 69
53 52 55 64 62 61 54 39 24 39 41 53 52 50 45 44 43 46 47 45 55 52 43 40 37 53 61 55 50 51 51 40 31 36 43 58 47 55 71 75 74 78 75 71 69
52 56 55 60 64 58 44 31 29 39 47 47 49 41 41 47 40 42 42 45 51 52 39 36 40 55 57 59 58 51 46 57 47 50 45 49 57 66 72 72 71 75 72 68 69
47 50 55 64 62 52 38 35 42 47 48 45 37 44 37 42 42 37 38 47 41 47 48 44 35 51 55 58 57 54 58 44 48 35 34 47 52 53 63 68 71 69 67 68 69
46 47 57 65 58 44 30 38 47 46 49 44 43 41 42 40 41 40 41 46 46 44 44 44 39 41 50 46 45 49 49 50 50 48 40 39 47 67 66 66 68 68 71 69 69
49 43 60 61 42 40 34 46 50 49 53 51 51 43 43 44 41 41 38 42 50 45 38 43 35 32 41 52 56 53 49 52 42 44 47 46 49 70 69 69 70 70 71 70 71
43 49 60 57 33 34 44 48 50 48 48 48 46 48 42 40 35 41 41 51 49 46 42 41 33 28 36 45 52 48 53 56 51 50 47 46 50 73 70 70 73 70 71 71 71
46 40 49 50 49 42 41 42 43 53 51 51 48 42 40 39 44 40 41 49 50 49 51 43 37 32 27 38 42 39 43 50 53 46 49 52 58 67 66 68 70 71 71 72 72
46 44 46 36 39 43 43 43 42 42 50 49 45 45 41 36 39 37 41 44 50 49 44 39 33 38 40 44 44 40 41 43 42 53 50 56 58 66 65 66 70 71 72 72 71
44 44 45 41 45 43 42 40 40 45 44 43 37 41 42 36 39 35 42 41 40 46 41 40 33 38 35 44 44 40 44 44 45 49 58 61 61 70 72 74 71 73 73 73 72
51 50 45 42 42 40 40 43 43 45 48 49 45 40 40 42 49 46 49 48 46 44 43 40 34 34 31 42 39 35 41 44 48 52 59 57 64 69 66 66 64 69 74 74 73

GFSSW_sfc_temp_018.txt.gz
Temp
60 60 60 60 60 60 60 60 60 60 60 60 60 60 60 60 59 57 54 68 69 71 72 77 75 75 74 70 73 73 53 50 57 62 66 75 73 86 90 85 86 87 85 87 90
59 60 60 60 59 59 60 60 60 60 60 60 60 60 60 60 54 52 66 71 71 72 72 72 72 74 65 66 68 62 51 56 67 70 67 73 74 77 79 79 81 83 86 90 89
59 59 59 59 59 59 59 59 59 60 60 60 60 59 59 58 51 60 73 70 71 73 75 75 74 71 62 66 66 63 59 66 69 73 74 73 75 80 76 74 78 80 83 88 87
58 59 59 59 59 59 59 59 59 60 59 59 59 59 59 54 46 67 74 73 73 73 71 70 68 61 58 59 68 60 68 70 71 75 75 71 77 75 77 77 83 83 84 84 84
58 58 59 58 58 58 59 59 59 59 59 59 59 59 55 45 48 69 73 74 75 72 67 66 62 60 55 60 64 63 67 71 73 73 74 76 73 74 75 82 86 86 84 82 78
57 58 58 58 58 58 58 58 57 57 58 58 59 59 51 38 61 67 69 70 70 67 65 65 63 64 58 58 59 63 65 67 70 71 73 72 73 76 78 84 84 82 80 81 79
57 57 57 57 58 58 58 57 57 57 57 58 59 59 50 45 62 64 63 61 65 66 64 69 70 65 61 56 65 66 59 64 67 67 68 74 68 70 80 83 80 81 78 79 79
57 57 57 57 57 57 57 56 56 57 58 59 59 56 44 61 61 59 60 60 65 67 67 70 70 62 59 63 63 57 56 51 64 68 70 69 58 73 79 77 76 79 82 84 84
57 56 56 57 57 57 56 56 56 58 60 59 52 49 42 64 59 64 64 61 67 69 69 76 66 59 58 51 47 51 47 50 57 66 66 66 62 71 77 76 73 75 77 80 82
56 56 56 56 56 56 55 55 56 58 59 61 60 46 52 55 67 70 69 67 63 64 62 60 56 52 47 46 41 45 48 53 53 61 65 64 63 71 75 76 76 77 79 79 80
56 56 55 55 55 55 53 47 53 49 52 49 54 53 56 64 68 66 71 66 64 58 48 53 44 44 50 53 54 54 52 53 56 64 62 62 62 66 70 71 71 74 76 77 73
55 55 55 55 55 55 49 46 55 54 43 57 58 57 62 63 54 60 68 56 54 47 52 47 43 52 57 56 54 52 49 48 56 62 60 60 60 66 70 70 73 73 75 74 69
55 55 55 55 54 51 50 55 60 57 41 51 55 57 58 60 53 55 62 58 51 47 48 43 48 58 55 52 51 51 48 50 50 58 62 58 55 59 67 69 69 69 70 70 71
54 54 55 54 51 50 51 60 57 55 32 43 50 55 61 60 52 64 65 58 52 47 49 47 54 52 51 50 53 45 56 56 54 51 43 58 43 57 62 65 68 68 69 70 72
54 54 54 53 45 46 56 56 57 50 21 51 52 66 62 55 59 59 68 59 49 50 49 44 49 48 48 51 57 50 58 55 55 49 46 50 42 48 60 60 64 69 73 69 70
54 54 54 51 45 51 56 55 51 31 20 42 53 54 53 55 56 57 59 60 59 52 52 50 58 55 52 56 57 59 54 53 53 45 37 49 46 46 54 60 63 67 69 72 71
53 53 51 54 46 55 53 47 29 22 45 41 42 51 48 46 49 50 49 47 41 37 37 47 49 55 59 50 54 50 41 32 30 32 36 52 47 52 57 62 67 69 72 70 64
53 52 50 55 52 53 47 37 23 37 37 46 46 49 43 46 46 46 43 39 49 46 39 38 34 49 57 50 45 44 42 32 26 28 37 53 41 49 64 71 73 74 69 66 62
51 44 47 53 55 51 40 24 25 35 42 41 42 40 40 45 44 42 40 38 42 41 34 35 38 53 54 55 51 44 41 47 39 45 36 42 51 57 66 69 71 68 66 62 60
44 42 46 57 55 47 34 33 38 47 48 45 32 40 34 38 39 37 40 44 42 44 44 40 32 48 53 56 53 47 51 39 37 30 28 40 44 48 56 60 65 66 63 60 61
42 42 52 56 52 39 26 33 43 52 51 43 41 38 38 36 39 38 39 46 47 46 44 39 36 38 47 45 42 42 41 43 42 39 32 32 40 58 58 64 65 62 64 62 62
40 37 54 56 39 34 29 41 47 48 51 47 46 43 38 39 37 39 38 42 50 46 37 41 33 29 37 49 52 47 44 41 33 35 41 39 42 62 60 66 62 64 65 64 64
39 39 53 55 30 27 38 43 46 46 47 46 43 43 41 37 32 39 43 49 49 44 39 39 31 25 31 40 46 43 46 44 42 43 38 40 43 65 64 67 66 63 64 65 64
38 34 41 40 40 34 35 37 39 49 48 48 44 43 39 38 41 36 40 48 47 47 49 43 34 30 24 34 41 37 41 44 39 38 42 44 51 60 63 63 62 64 65 64 65
39 36 39 34 36 36 37 39 38 37 45 46 42 41 37 32 35 33 39 42 47 48 43 37 30 35 35 39 40 41 41 42 39 40 35 47 49 59 63 61 64 66 66 65 65
36 36 41 39 38 36 38 36 39 41 41 39 37 42 40 35 36 33 37 38 37 41 37 39 32 36 33 40 40 38 43 44 44 44 43 45 46 61 64 62 62 66 67 65 66
41 42 39 40 39 37 37 39 38 42 42 45 42 40 38 41 46 46 45 44 42 40 37 35 33 32 28 39 40 32 39 43 46 48 47 42 53 63 57 60 58 65 68 67 68

GFSSW_sfc_temp_021.txt.gz
Temp
60 60 60 60 59 59 59 59 60 60 60 60 60 60 60 60 59 55 52 65 65 70 71 75 73 72 70 66 70 67 51 49 56 60 63 73 73 82 84 80 79 82 81 85 88
59 60 60 59 59 59 59 59 59 59 60 60 60 60 59 59 52 51 65 69 70 71 69 70 70 71 62 63 65 59 50 54 64 68 65 70 70 77 80 78 76 77 84 86 86
59 59 59 59 59 59 59 59 59 59 60 60 59 59 59 58 48 56 73 71 70 71 69 72 73 70 59 61 61 59 56 63 65 69 71 70 72 74 74 70 76 74 79 84 82
58 59 59 58 58 58 58 59 59 59 59 59 59 59 59 52 43 65 73 71 71 73 66 67 66 61 54 57 62 55 63 67 68 71 70 69 73 72 72 74 80 81 82 80 81
58 58 58 58 58 58 58 58 58 58 58 58 58 59 56 43 45 67 70 67 69 69 63 63 61 58 52 56 61 59 63 66 68 68 68 72 69 70 72 77 80 81 81 79 78
58 57 57 58 58 58 58 57 57 57 57 58 58 58 50 37 59 63 63 63 65 62 60 61 60 62 57 56 59 59 60 64 65 66 66 67 69 71 74 79 79 80 78 79 77
57 57 57 57 57 57 57 57 56 56 57 58 59 57 49 45 60 60 59 56 59 60 58 63 67 63 58 53 61 61 56 61 62 60 63 69 64 66 74 78 77 78 79 80 75
57 56 56 57 57 57 57 56 56 57 58 59 59 54 43 60 59 58 58 56 59 59 61 65 65 59 55 60 59 52 52 48 60 64 65 67 55 70 73 74 74 75 75 76 78
56 56 56 56 56 57 56 55 56 59 60 59 51 47 41 62 57 63 60 56 61 62 63 72 63 56 54 49 45 47 42 44 51 63 64 64 58 69 73 73 72 73 74 76 76
56 56 55 56 56 56 55 55 56 56 59 59 58 44 51 54 62 67 69 63 58 60 59 58 54 48 44 43 39 42 43 47 48 57 61 59 59 67 69 69 68 70 73 74 76
56 55 55 55 56 55 52 48 49 47 51 47 51 51 54 61 66 62 65 61 60 55 46 51 43 42 48 50 51 50 47 45 52 60 57 57 58 62 65 67 69 71 72 72 69
55 55 55 55 55 54 48 46 51 51 40 54 55 56 60 60 52 58 65 52 51 43 48 43 42 49 53 52 50 48 45 45 51 57 54 54 53 59 63 65 67 68 69 70 71
54 54 55 55 54 50 47 52 57 52 39 47 55 56 58 58 52 52 59 54 47 44 44 40 45 55 52 48 47 46 43 45 46 53 57 53 51 55 63 64 67 69 66 67 69
54 54 54 54 51 46 47 58 54 51 30 43 52 58 60 59 50 63 63 55 49 43 45 43 50 49 47 46 49 41 51 52 50 46 39 52 39 54 60 62 64 67 63 65 69
54 54 54 53 44 44 55 51 54 49 21 49 51 66 61 54 57 56 63 57 45 46 45 41 45 45 45 47 51 45 53 50 50 46 40 45 38 49 54 55 61 66 68 68 67
54 54 54 49 44 49 52 51 48 30 19 41 50 47 47 52 54 57 55 58 56 49 47 46 54 50 49 53 54 55 49 48 47 41 32 43 42 46 51 55 58 62 64 67 67
53 53 51 52 47 51 49 45 29 22 42 39 40 45 43 45 47 50 47 45 40 33 34 43 47 53 55 46 51 48 38 28 27 28 31 46 43 48 53 57 59 60 63 65 65
52 51 49 52 48 49 46 36 23 34 35 46 44 43 40 44 43 45 43 38 45 41 36 32 32 47 55 48 42 41 40 29 25 27 33 48 39 46 58 63 67 68 69 64 64
51 43 44 50 52 48 39 24 25 34 42 41 41 36 37 42 42 42 41 38 42 42 35 33 36 51 53 55 49 41 36 45 35 38 32 38 45 55 61 65 65 64 63 61 58
42 41 45 53 52 45 34 32 35 44 47 45 32 38 31 35 36 36 38 44 42 45 43 39 31 45 51 51 52 45 48 36 32 27 26 35 39 44 51 56 59 60 61 58 57
41 41 51 52 50 38 26 31 40 49 49 42 38 36 38 36 36 35 38 45 46 45 43 36 33 36 44 42 39 41 37 39 39 36 28 29 35 50 54 57 58 64 61 56 57
38 37 51 52 37 31 27 39 45 45 49 45 43 41 38 37 34 36 37 42 48 44 36 38 32 27 34 45 49 47 41 39 31 32 35 34 39 58 54 58 60 60 59 58 59
39 37 49 51 26 25 35 40 44 43 44 43 41 42 40 36 31 37 40 48 47 42 36 37 29 25 30 36 42 39 43 41 37 36 33 33 40 58 58 59 62 56 56 59 59
40 33 38 38 37 32 33 35 36 47 43 44 41 42 37 36 37 34 37 45 46 44 49 42 30 29 24 31 36 34 41 41 36 29 36 40 44 53 57 54 59 57 58 59 60
37 34 36 30 33 35 34 36 36 37 42 42 39 40 37 33 34 33 37 40 45 47 40 36 28 34 34 37 38 37 38 40 37 38 33 39 46 53 50 56 59 58 59 60 60
34 34 41 35 36 34 35 37 37 40 39 36 36 39 39 34 36 33 38 38 37 38 38 38 29 34 33 37 38 35 39 40 41 41 41 42 42 57 58 58 59 60 61 61 61
38 39 40 37 36 36 36 38 38 40 42 44 41 38 36 40 45 44 45 44 42 38 36 35 33 32 27 39 35 32 38 39 42 45 44 39 50 56 55 57 56 58 62 63 63

GFSSW_sfc_temp_024.txt.gz
Temp
60 60 59 60 59 59 59 59 59 60 60 60 60 60 60 60 59 55 52 64 63 68 70 70 70 70 67 63 67 63 50 47 54 58 63 69 65 76 82 77 76 79 79 81 82
59 60 60 59 59 59 59 59 59 59 59 60 60 59 59 59 50 49 63 68 69 70 65 64 65 68 60 61 63 58 49 52 63 66 65 68 66 71 73 72 73 76 79 83 82
59 59 59 59 59 58 59 59 59 59 59 59 59 59 59 57 47 55 71 70 69 70 66 66 66 68 58 58 59 57 55 61 64 68 69 69 68 71 70 66 72 74 76 79 78
58 59 58 58 58 58 58 59 59 59 59 59 59 59 59 50 43 60 72 69 69 69 65 62 62 59 53 55 60 52 60 66 66 69 68 67 70 67 69 70 76 78 78 75 77
57 58 58 58 58 58 58 58 58 58 58 58 58 58 52 41 45 61 67 64 65 65 60 57 56 58 49 52 59 57 59 63 67 67 67 70 66 67 69 74 77 78 78 75 74
57 57 57 57 57 57 57 57 57 57 57 58 58 57 49 36 58 61 61 61 60 57 56 56 55 58 55 54 58 57 59 61 62 62 65 65 66 66 70 74 74 76 75 76 74
57 57 56 57 57 57 57 57 56 56 58 59 59 57 48 43 58 61 57 54 56 57 54 59 61 56 55 51 58 57 53 55 58 58 60 66 61 63 72 74 73 74 76 76 76
57 56 56 56 57 57 57 56 56 57 60 60 59 55 40 57 57 56 56 54 58 56 56 60 61 54 54 57 55 51 51 47 59 59 63 65 55 68 71 72 71 74 74 74 72
56 56 56 56 56 56 56 55 56 59 60 59 49 47 40 60 54 60 59 57 61 59 56 65 58 53 52 47 42 44 44 41 49 60 60 61 57 62 70 70 67 67 69 71 75
56 56 55 56 56 56 54 55 57 57 58 58 56 43 50 53 60 64 63 62 56 56 53 52 51 45 43 43 36 39 38 45 45 54 58 55 57 62 67 68 66 66 68 68 69
56 55 55 55 55 54 51 51 47 45 47 44 49 49 52 58 63 59 63 59 57 50 41 47 40 39 45 48 47 46 44 42 48 55 51 53 56 59 61 61 63 66 68 70 71
55 55 55 55 55 54 47 46 49 49 38 52 52 52 57 58 50 57 62 51 49 40 45 41 38 46 51 49 48 45 42 41 48 54 51 49 49 54 58 59 61 63 65 64 63
54 54 54 54 54 49 45 50 52 50 36 45 52 52 54 55 51 52 56 52 46 41 41 37 43 52 50 46 44 42 41 42 43 51 54 50 48 52 59 60 64 65 65 66 66
54 54 54 54 49 44 46 53 51 50 29 41 49 54 57 56 49 61 60 52 48 41 43 40 48 47 44 44 46 38 48 48 47 43 36 48 36 50 56 58 61 63 64 66 61
54 54 54 53 43 44 52 49 48 47 21 46 49 60 57 49 53 56 62 52 44 43 45 40 43 43 41 44 48 42 51 47 46 42 38 42 35 48 52 50 54 61 65 66 65
54 54 54 47 44 47 50 47 47 30 19 38 48 45 44 48 51 54 54 54 53 46 46 44 51 49 46 50 51 52 46 44 41 37 28 40 39 42 47 53 59 60 60 63 64
53 53 51 51 46 47 47 44 29 21 40 37 38 44 41 40 45 47 45 43 36 32 32 41 43 49 52 43 47 45 36 25 24 25 29 42 39 46 49 54 56 58 60 61 61
52 50 49 50 46 47 45 36 23 33 34 44 43 42 37 41 40 43 41 37 44 41 34 30 29 43 51 45 40 39 37 26 24 25 29 44 34 42 55 59 60 61 60 61 61
50 43 44 48 50 46 39 24 24 33 41 40 40 34 34 40 39 38 36 37 43 42 32 32 32 47 49 49 47 39 34 42 33 34 29 35 41 50 58 59 61 59 60 58 60
41 41 45 50 49 45 34 32 33 42 45 43 31 36 30 34 34 32 34 42 42 45 43 38 31 45 50 51 52 43 45 33 30 26 25 32 35 39 49 51 56 56 58 59 55
40 41 49 50 49 38 26 30 38 46 46 41 37 36 36 35 34 32 35 42 44 43 42 38 33 37 43 39 38 42 35 36 34 31 27 27 33 47 50 52 52 58 61 56 55
37 36 49 49 36 28 26 36 44 43 48 44 41 39 36 36 33 33 34 40 46 43 36 39 32 27 34 43 45 42 39 37 29 30 32 30 33 54 51 52 55 57 55 54 60
40 38 47 47 25 24 33 38 41 41 41 40 38 42 40 34 30 36 38 46 45 40 35 36 30 25 30 34 40 35 39 39 35 33 29 29 35 53 55 54 58 57 55 59 60
40 31 36 36 34 31 33 37 35 45 42 42 39 40 37 36 39 33 35 43 44 43 49 41 29 27 23 30 34 31 36 39 35 28 33 36 39 50 53 50 57 60 55 60 61
35 32 35 28 30 31 35 37 36 37 42 40 36 39 36 33 34 34 36 38 44 47 39 36 30 30 33 36 36 35 35 36 34 36 30 36 38 49 48 51 56 58 56 60 60
33 32 34 31 33 32 35 33 36 39 38 38 36 40 39 34 35 32 36 36 35 40 35 35 31 31 31 38 36 33 36 37 37 37 38 39 39 52 56 53 55 58 58 58 60
38 36 35 33 30 28 30 35 37 40 40 42 41 37 37 40 44 43 43 43 41 37 35 35 30 28 24 35 34 27 35 37 39 41 40 35 44 52 51 54 53 56 59 59 60

GFSSW_sfc_temp_027.txt.gz
Temp
59 60 60 60 59 59 59 59 59 60 60 60 60 60 60 60 59 59 57 67 66 69 69 71 74 74 75 73 75 73 64 61 65 63 69 77 75 83 86 84 85 88 89 91 90
59 60 60 59 59 59 59 59 59 59 60 60 60 59 59 59 56 54 64 68 69 70 68 67 68 72 69 70 72 70 63 64 71 71 71 75 76 78 79 79 80 82 85 91 92
59 59 59 59 58 58 58 59 59 59 59 59 59 59 59 60 53 62 71 68 69 71 70 69 68 69 66 70 70 69 64 70 72 74 75 76 76 79 77 76 81 80 81 86 89
58 58 58 58 58 58 58 58 59 59 59 59 58 59 59 57 52 65 69 67 69 72 67 64 63 63 63 63 70 64 70 72 73 73 73 71 79 75 78 78 84 83 83 84 84
57 58 58 57 57 58 58 58 58 58 58 58 59 58 57 52 56 67 66 66 68 67 64 62 61 63 62 65 67 63 69 71 73 73 73 74 72 74 75 81 83 83 82 82 84
57 57 57 57 57 57 58 57 57 57 58 59 59 58 53 49 66 66 66 64 63 63 62 63 62 65 61 63 63 70 69 69 72 71 72 70 72 74 76 81 79 80 80 82 83
57 57 57 57 57 57 57 57 56 56 58 59 59 58 50 55 65 67 64 63 63 62 60 63 66 61 62 60 67 66 61 65 66 70 68 71 65 68 76 78 76 78 80 82 84
56 56 56 57 57 57 57 57 56 57 60 60 60 57 51 63 66 62 66 64 65 64 61 64 65 60 60 64 63 59 60 55 66 66 68 68 59 73 80 78 75 77 80 82 84
56 56 56 56 56 57 56 55 57 59 60 60 56 55 54 66 61 69 65 62 66 64 61 65 61 58 60 54 52 57 52 55 60 69 67 65 62 74 79 76 76 78 78 79 81
55 56 55 55 56 56 55 55 59 60 60 60 59 50 59 59 65 67 70 65 60 62 60 58 58 54 55 53 44 49 50 55 55 64 65 63 63 71 76 74 74 76 77 78 79
56 55 55 55 55 55 55 63 57 55 56 50 53 51 57 64 68 64 68 63 61 58 51 55 50 46 52 54 55 55 53 53 59 63 63 61 62 67 71 71 71 72 73 75 76
55 55 55 55 55 54 56 56 55 55 46 56 55 55 59 62 53 63 67 55 54 50 52 50 45 53 55 55 53 52 50 49 55 60 58 59 58 64 66 67 69 69 71 73 75
54 54 55 55 54 55 55 57 61 58 46 50 57 56 60 62 55 58 61 57 52 48 50 46 50 55 53 51 50 51 49 50 49 56 60 57 54 59 66 69 71 72 73 74 73
54 54 55 54 53 53 56 60 59 58 41 46 53 57 60 59 52 65 64 57 52 47 49 48 56 51 51 49 52 44 54 53 52 51 45 57 44 57 63 65 67 70 71 73 74
54 54 54 54 49 53 57 58 58 56 30 49 52 66 61 53 56 58 67 57 48 48 49 45 48 49 48 50 54 48 55 53 52 49 49 50 46 55 64 61 65 68 71 73 75
53 54 54 50 49 55 58 56 57 40 28 42 51 49 50 53 54 58 58 60 57 48 50 48 57 53 52 55 55 57 53 52 52 49 39 48 47 51 59 62 66 70 72 74 76
53 53 53 54 57 56 56 55 39 33 44 40 42 48 47 45 48 50 48 46 40 34 37 46 48 53 56 48 55 52 47 37 35 36 35 52 46 52 62 65 67 68 71 74 76
52 50 52 55 57 55 56 48 31 36 38 47 45 46 41 46 46 46 45 42 45 44 36 33 33 47 54 50 48 49 47 40 30 34 40 50 42 53 64 68 70 70 73 74 74
50 53 55 58 57 56 53 36 35 38 44 42 44 38 39 44 44 43 43 42 46 46 35 35 34 50 52 56 52 48 42 53 42 44 41 46 52 60 64 66 70 70 70 71 73
48 51 56 57 57 56 46 37 40 45 47 45 35 40 35 40 39 40 40 47 46 49 48 42 34 46 47 52 54 48 54 41 44 33 33 44 46 51 59 61 64 67 67 69 69
49 53 58 57 57 50 37 39 42 49 49 42 40 39 40 39 40 39 39 47 49 48 48 45 39 41 47 42 41 38 44 47 47 45 38 39 47 59 60 60 62 66 68 67 67
46 48 57 57 47 38 39 42 44 46 50 45 46 43 40 41 39 39 38 44 51 49 42 45 39 34 40 50 50 47 45 48 41 39 44 43 45 63 60 63 63 66 69 68 67
42 43 55 55 37 38 41 41 44 43 45 43 41 44 45 39 33 38 41 49 50 47 44 45 39 32 38 43 47 44 47 47 46 45 40 39 46 63 64 63 64 65 69 68 63
45 41 48 47 44 39 36 39 40 47 45 45 43 44 40 38 41 35 39 46 49 48 49 46 40 37 31 37 41 38 43 46 43 39 42 43 47 55 58 59 62 66 68 68 62
42 41 41 39 40 39 38 38 38 38 44 46 39 39 36 33 36 37 41 42 46 47 47 41 33 39 40 41 42 41 41 42 41 43 37 45 47 53 56 57 62 65 68 69 61
40 40 43 40 40 38 39 38 38 41 40 39 36 40 39 34 38 35 40 39 36 42 41 39 34 39 36 41 42 39 43 43 43 44 44 45 44 56 58 62 63 66 68 68 63
43 43 41 40 38 37 38 40 40 41 43 44 42 39 38 42 46 46 47 45 41 37 36 36 35 35 30 40 40 34 42 44 46 48 47 42 49 57 56 59 62 65 66 67 67

GFSSW_sfc_temp_030.txt.gz
Temp
60 60 60 60 59 59 59 60 60 60 60 60 60 60 60 60 60 73 69 70 71 69 70 80 81 80 82 82 86 85 73 71 74 75 77 85 84 94 96 91 93 95 96 98 98
59 59 59 59 59 59 59 59 59 59 60 60 60 60 59 59 67 69 68 69 70 71 76 76 77 80 77 77 79 77 72 75 82 82 77 82 85 89 87 89 89 91 93 96 98
59 59 59 59 59 59 59 59 59 59 60 60 59 59 59 62 66 69 70 68 69 73 78 76 77 79 73 78 78 77 71 82 83 84 82 81 85 90 85 84 91 90 92 93 93
58 58 59 58 58 58 59 59 59 59 59 59 59 59 60 67 60 72 69 68 68 76 77 73 72 71 71 71 78 71 78 80 83 84 79 78 86 84 87 87 94 94 94 94 93
58 58 58 58 58 58 58 59 59 59 59 59 59 59 65 66 66 76 68 73 76 75 72 71 69 70 68 74 75 73 76 80 82 81 80 80 80 82 85 91 94 93 91 90 93
57 57 57 57 58 58 58 58 58 57 58 59 60 59 65 62 76 77 76 75 75 74 72 73 70 73 70 70 73 77 76 77 80 79 79 75 79 82 85 91 89 89 88 91 93
57 57 57 57 57 58 58 57 57 57 58 60 60 65 63 66 77 79 77 74 75 73 70 73 75 69 71 67 75 73 68 73 75 78 75 78 71 75 85 89 87 86 88 90 91
57 56 57 57 57 57 57 57 56 58 60 60 60 66 63 76 79 77 79 76 77 74 71 75 74 71 68 72 68 65 67 61 73 75 76 73 64 79 86 85 84 86 88 89 91
57 56 56 56 56 57 57 56 57 59 60 61 65 65 64 71 73 77 78 70 73 75 72 73 70 67 69 61 59 64 57 62 66 78 74 71 66 77 85 85 83 85 87 89 91
56 56 55 56 56 56 55 55 59 60 65 68 69 60 69 66 73 74 78 74 68 68 65 65 65 61 62 61 50 57 60 62 63 73 75 70 68 76 82 83 83 85 87 88 88
56 55 55 55 55 55 60 71 67 65 68 61 62 60 66 73 76 71 75 70 68 64 57 64 57 55 59 62 62 62 62 62 66 73 70 69 69 73 79 80 80 82 83 84 85
55 55 55 55 55 55 63 66 62 63 55 66 65 64 68 69 60 68 73 62 62 56 62 57 53 61 62 62 60 59 56 58 64 69 68 67 66 72 76 78 80 80 81 82 84
55 55 55 55 55 61 67 65 71 69 56 59 64 64 65 69 61 62 68 64 58 55 57 53 58 62 58 56 53 56 54 55 58 64 66 64 61 66 74 76 78 79 80 81 82
54 54 54 55 56 68 66 68 71 67 51 53 59 63 66 68 59 71 70 63 59 53 56 55 62 58 56 53 57 49 60 59 57 56 50 64 50 64 70 72 75 77 79 81 83
54 54 54 54 63 68 65 71 70 64 38 55 58 71 68 60 61 63 72 64 54 55 56 52 55 54 52 55 59 53 61 59 57 55 55 56 53 61 69 67 72 76 79 82 84
54 54 54 59 65 68 70 68 64 47 33 50 57 56 57 60 60 63 63 68 65 55 57 56 62 58 57 60 60 61 56 56 55 53 45 54 55 57 64 69 74 79 81 82 85
54 53 56 68 66 71 70 64 47 41 52 48 50 55 55 53 55 56 55 54 49 41 46 53 54 60 61 54 59 57 50 42 39 40 39 57 53 57 68 74 74 75 79 82 83
53 51 56 69 72 68 66 55 38 46 47 55 53 54 49 53 53 53 52 50 55 50 46 41 39 50 57 55 50 51 50 42 35 40 45 56 48 58 71 76 76 77 79 81 82
51 68 69 71 70 68 60 45 44 47 50 48 51 47 49 51 52 51 51 50 52 53 40 41 41 56 56 59 56 50 43 55 45 48 49 54 57 66 71 72 74 75 77 78 80
62 66 68 69 68 64 55 43 48 52 52 52 41 48 43 47 47 48 48 53 51 55 55 48 38 53 53 57 57 53 50 35 46 33 37 51 53 56 65 67 72 72 73 77 78
62 61 65 69 67 61 45 50 50 55 54 47 46 45 47 43 48 47 46 52 54 53 57 53 45 45 52 47 47 43 42 44 47 48 43 45 53 68 67 68 68 71 74 76 75
59 56 67 69 55 55 49 50 47 51 55 51 52 49 46 47 44 46 45 49 57 56 48 54 45 40 46 55 57 49 44 41 34 39 50 47 53 70 69 70 69 71 74 77 69
52 56 68 64 44 46 53 50 51 50 50 49 46 50 52 46 38 46 48 55 55 52 48 50 44 38 44 49 54 49 52 46 48 44 41 46 53 69 71 70 70 70 74 77 69
53 48 60 61 58 48 47 46 46 53 52 51 48 51 48 44 48 40 44 50 53 52 52 48 44 41 37 44 49 45 48 52 49 42 44 49 55 63 67 68 68 69 73 77 70
53 49 50 48 50 49 49 46 44 43 51 52 47 47 43 37 44 42 48 48 48 48 47 43 37 44 47 49 50 48 48 49 48 50 44 49 55 61 66 67 67 68 73 75 70
46 44 50 49 49 46 46 47 45 47 48 46 44 47 45 38 41 37 43 41 36 43 41 40 35 43 41 48 50 46 50 50 51 51 51 53 53 64 67 68 66 68 71 73 72
49 47 41 45 46 41 45 45 45 48 50 52 48 44 44 48 52 53 51 49 45 37 36 36 35 39 35 47 47 41 49 51 53 55 54 48 57 64 64 65 65 67 71 73 71

GFSSW_sfc_temp_033.txt.gz
Temp
60 60 60 60 60 60 60 60 60 60 60 60 60 60 60 60 60 76 73 71 73 69 70 82 84 85 86 83 88 90 74 71 77 77 81 92 89 97 101 97 98 100 98 102 105
59 60 59 59 59 59 59 59 60 60 60 60 60 60 60 60 68 78 69 69 69 70 79 81 80 84 80 80 82 79 74 75 84 86 85 90 90 91 93 93 93 96 99 101 102
59 59 59 59 59 59 59 59 59 60 60 60 60 60 60 63 72 74 71 70 69 70 81 82 82 82 78 82 80 78 74 82 85 87 89 86 87 93 91 88 93 93 96 98 99
59 59 59 59 59 59 59 59 60 60 60 60 60 60 60 69 64 78 70 70 71 78 81 80 79 75 74 75 82 73 80 82 84 87 89 84 88 87 91 91 98 100 101 100 97
58 58 58 58 58 58 59 59 59 59 59 59 59 60 65 71 73 82 71 75 82 81 78 77 75 76 71 77 80 77 80 83 85 84 85 87 83 85 88 96 99 100 99 97 97
58 58 57 58 58 58 58 58 58 58 58 59 60 60 67 67 82 83 82 81 82 80 78 79 76 79 75 75 75 80 81 81 84 82 83 81 81 84 87 94 95 96 96 97 96
58 57 57 57 57 57 57 57 57 57 58 60 61 68 71 71 83 86 85 82 82 79 74 80 79 74 76 71 78 77 71 76 80 83 81 84 73 75 86 91 91 92 95 95 95
57 57 57 57 57 57 57 57 56 57 59 61 61 72 69 83 87 84 85 82 84 82 78 79 80 74 72 76 73 69 71 64 75 79 82 78 67 79 86 86 86 90 93 94 96
57 57 56 57 57 57 57 56 57 60 61 62 65 71 68 76 78 82 82 76 79 81 81 78 76 70 72 65 62 66 59 65 69 79 78 76 70 80 85 85 85 87 91 92 94
57 56 56 56 57 56 56 55 62 60 64 73 75 67 75 70 78 79 83 80 74 74 72 71 69 64 67 63 53 60 63 65 65 76 76 73 73 79 83 82 82 85 89 91 92
56 56 55 56 56 55 59 74 68 65 73 69 69 68 72 79 81 76 79 75 75 70 61 69 63 59 64 67 67 65 63 63 71 78 74 72 73 77 82 82 81 84 87 89 91
56 56 56 56 56 55 62 71 68 70 59 73 72 71 74 76 66 73 79 68 66 60 66 63 57 65 67 66 63 62 59 60 67 73 73 71 70 77 81 82 83 83 84 86 89
55 55 55 55 56 60 73 70 78 75 61 66 70 69 71 73 67 68 73 69 63 60 61 58 62 68 64 62 58 59 57 58 60 67 71 68 64 69 78 80 82 84 86 87 87
55 55 55 55 55 77 72 75 79 75 55 59 64 69 71 72 64 74 76 68 63 58 61 60 66 62 60 59 61 53 64 61 59 58 52 68 52 65 72 74 77 81 83 84 86
55 55 54 52 71 74 73 78 78 70 42 61 64 77 72 66 66 68 76 69 59 59 60 56 59 59 56 59 63 57 64 61 60 57 57 58 55 62 72 70 74 79 81 83 85
55 55 54 62 73 75 78 76 71 51 39 56 63 62 63 67 65 69 68 73 70 61 61 60 67 60 62 64 64 65 60 59 59 57 46 55 55 58 65 69 75 81 83 85 87
54 54 55 74 71 79 78 70 50 46 59 55 56 62 60 60 60 62 60 59 55 47 48 56 58 60 63 58 63 60 53 42 40 41 41 56 53 59 69 75 79 80 84 86 88
53 51 60 77 80 77 72 60 42 54 55 62 59 59 56 58 59 59 57 55 60 57 49 42 39 47 61 57 54 55 53 43 32 36 44 56 47 57 73 78 80 81 83 85 85
52 70 72 76 76 75 64 50 50 54 57 54 56 54 55 59 58 57 55 55 57 59 46 44 42 59 62 62 57 54 48 57 45 47 40 44 54 66 71 75 77 79 81 81 83
63 70 73 75 75 69 58 48 55 59 59 57 48 53 49 53 52 53 53 58 56 61 61 51 41 55 59 62 62 57 60 41 39 34 32 44 49 56 64 69 75 77 77 80 82
63 63 69 76 73 62 49 56 58 62 60 53 51 50 50 49 52 51 51 57 59 58 61 56 50 49 57 53 50 42 42 47 47 44 36 39 46 69 68 71 73 75 77 79 78
62 58 72 73 56 58 54 57 52 57 61 57 55 52 50 51 48 48 47 54 60 60 51 56 49 43 49 60 62 60 51 48 32 34 49 45 45 62 72 76 74 74 76 80 75
59 63 72 68 45 52 59 59 60 56 57 54 50 54 54 48 41 50 53 60 60 56 50 51 45 37 44 54 59 53 54 55 52 48 39 33 38 58 73 72 73 72 76 78 74
60 55 63 61 63 54 53 53 53 60 57 55 51 53 50 50 54 48 51 55 52 48 49 48 44 40 37 45 37 35 43 55 50 37 42 43 46 45 64 71 72 72 74 79 74
64 56 54 53 54 52 52 54 51 51 56 56 53 52 51 43 48 47 51 51 51 49 47 41 35 41 46 51 52 50 52 52 50 52 43 48 48 46 52 62 72 73 74 77 75
54 52 56 52 55 49 48 49 51 53 54 51 49 52 50 41 43 41 47 47 42 43 41 42 34 41 40 49 52 50 54 55 55 55 55 54 53 62 66 71 71 71 73 74 77
52 51 47 48 53 51 48 46 46 49 54 57 53 50 50 54 57 59 57 56 53 43 37 36 36 38 37 48 49 43 53 55 57 59 58 51 59 67 65 68 69 71 73 73 77

GFSSW_sfc_temp_036.txt.gz
Temp
60 60 60 60 60 60 60 60 60 60 60 61 61 61 61 60 60 72 69 70 72 69 71 80 82 82 83 79 83 86 70 66 70 73 78 89 88 96 99 95 98 100 96 98 103
60 60 60 60 60 59 59 59 60 60 60 61 61 60 60 60 63 69 71 70 70 70 75 78 78 82 76 77 77 76 69 70 79 81 80 87 89 91 91 91 92 96 96 100 101
59 59 59 59 59 59 59 59 60 60 60 60 60 60 60 62 65 70 70 71 70 71 77 79 80 78 74 79 77 74 68 76 80 85 87 85 86 92 88 84 92 92 94 98 98
58 59 59 59 59 58 59 59 59 60 60 60 60 60 60 65 61 76 73 72 71 76 79 78 77 72 69 70 79 71 76 78 80 84 83 82 88 86 88 88 96 99 99 98 97
58 58 58 58 58 58 58 59 59 59 59 59 60 60 65 67 72 80 73 75 78 83 78 77 74 73 68 73 75 73 76 80 82 81 81 84 82 83 86 92 96 98 98 96 94
58 58 58 58 58 58 58 58 57 58 58 59 60 60 65 63 85 86 85 84 84 81 78 78 76 78 72 72 72 77 77 79 81 82 82 79 81 83 86 92 91 93 94 94 93
57 57 57 57 58 58 58 57 57 57 58 59 61 67 65 70 86 88 86 84 85 81 74 79 80 73 73 69 77 75 69 74 76 79 79 82 73 76 86 89 87 89 91 94 95
57 57 57 57 57 57 58 57 56 57 59 60 62 68 64 85 87 85 86 82 85 85 81 80 79 73 70 73 70 66 68 61 72 76 78 77 66 79 85 84 84 86 89 91 94
57 56 56 57 57 57 57 56 57 59 62 63 65 67 67 78 78 83 84 77 80 81 81 83 77 68 69 62 59 63 55 60 66 77 76 73 68 80 85 82 79 82 85 88 91
57 56 56 56 56 56 56 55 60 60 65 74 74 66 74 72 80 80 84 81 75 75 73 72 69 63 64 60 49 56 59 62 62 71 74 72 70 77 82 82 80 81 82 84 88
57 56 56 56 56 55 58 71 67 62 69 67 70 71 74 80 83 77 82 76 76 71 62 69 61 56 62 65 66 64 61 59 65 72 70 70 71 76 79 80 79 81 82 83 84
56 56 56 56 56 55 59 69 70 72 60 72 74 73 77 78 67 75 80 69 67 59 65 62 57 66 68 67 63 61 57 57 63 68 67 66 66 73 79 79 81 80 81 83 85
55 55 56 55 55 60 71 72 80 78 60 68 73 71 73 76 68 70 74 70 63 59 60 56 61 68 65 62 60 59 56 56 56 63 66 63 61 66 75 79 81 82 83 84 84
55 55 55 54 55 77 74 79 82 77 53 59 65 70 73 74 65 76 77 69 63 58 60 59 65 62 61 58 61 53 63 62 58 55 48 62 49 62 69 72 75 78 80 81 83
55 55 55 53 65 72 75 81 79 71 39 63 67 79 74 67 69 70 78 70 59 59 60 55 59 58 56 59 63 57 64 60 59 55 53 54 50 57 67 67 72 76 80 81 81
54 55 54 64 66 78 81 79 72 50 39 58 66 64 65 68 68 71 71 74 71 62 62 60 67 64 60 63 62 64 59 58 58 54 44 51 51 53 61 66 71 78 81 82 83
54 54 54 70 70 81 79 70 49 44 63 58 59 64 62 61 63 65 62 60 56 49 49 56 58 60 58 51 56 54 53 41 39 41 40 54 51 55 64 70 74 76 79 82 85
53 52 60 71 79 78 69 56 41 56 57 64 62 61 56 63 62 62 59 55 62 59 51 45 41 53 56 53 48 47 46 38 30 35 41 54 44 53 67 72 75 78 80 82 82
52 71 67 71 77 74 61 45 47 55 60 57 58 54 56 61 59 59 57 56 60 60 47 45 45 54 55 60 52 50 48 55 43 46 39 45 53 61 66 67 71 74 78 79 81
56 65 71 77 77 68 55 47 55 63 62 59 48 55 49 53 53 54 54 60 58 62 62 53 42 56 59 63 62 57 60 42 44 31 30 42 45 49 59 63 69 72 76 78 81
60 63 71 77 74 61 46 53 60 64 62 54 52 51 51 49 52 51 52 58 60 58 60 56 50 48 54 52 51 52 45 44 44 37 29 31 42 60 54 56 62 72 77 78 80
62 57 73 76 56 54 51 59 57 62 63 60 58 54 50 51 49 50 49 54 61 58 49 54 47 40 46 58 62 58 51 44 37 36 43 41 41 60 51 50 50 70 72 78 80
58 64 74 71 47 52 58 58 62 59 58 57 53 56 56 51 44 51 53 61 58 51 46 46 43 35 40 51 52 48 48 42 42 46 39 34 38 60 44 45 48 50 72 72 65
59 55 64 66 65 56 52 51 54 62 60 58 55 56 53 51 55 49 51 57 55 51 51 47 40 38 33 40 40 35 43 49 48 36 39 43 45 48 40 44 48 52 69 74 74
61 58 57 52 53 54 55 53 50 49 61 60 54 54 52 45 48 46 51 52 55 52 43 40 35 42 44 47 48 46 42 46 45 48 43 46 47 47 46 47 51 56 64 74 72
52 49 53 51 55 55 53 51 47 51 51 50 49 51 53 47 49 46 51 50 47 52 45 44 33 38 37 45 48 45 50 45 46 49 53 53 51 60 56 56 59 62 70 72 73
57 55 47 47 53 53 52 51 49 52 52 55 52 50 49 52 59 60 59 57 54 42 37 35 35 35 34 46 47 40 49 52 54 57 56 49 56 63 60 60 62 68 71 72 74

GFSSW_sfc_temp_039.txt.gz
Temp
60 60 60 60 59 59 59 59 60 60 60 61 61 61 61 60 60 61 57 66 66 69 69 74 75 75 75 70 73 75 59 54 59 62 68 79 77 86 90 85 88 93 87 86 89
59 59 59 59 59 59 59 59 59 60 60 60 60 60 60 60 55 57 69 70 70 70 70 70 68 73 64 66 68 62 55 59 70 71 71 77 79 82 82 82 83 87 90 91 85
59 59 59 59 59 59 59 59 59 59 60 60 60 60 60 60 55 63 72 71 71 70 71 71 71 69 61 65 67 65 58 67 71 76 78 77 79 83 80 76 79 80 85 90 87
58 59 59 59 58 58 59 59 59 59 59 59 59 60 60 56 50 68 72 71 72 72 70 70 66 57 55 56 66 61 68 70 71 75 75 73 79 76 78 78 85 87 87 88 84
58 58 58 58 58 58 58 58 58 58 58 59 59 60 56 54 60 76 73 73 73 73 68 67 62 59 54 59 63 63 67 72 74 75 75 77 74 75 77 84 87 89 87 83 84
57 57 57 57 57 57 58 57 57 57 58 58 59 60 54 50 77 79 74 76 74 72 67 68 63 66 60 59 58 64 66 68 72 72 74 73 74 76 78 84 84 86 83 81 86
57 57 57 57 57 57 57 57 57 57 58 59 60 62 57 56 78 77 76 70 76 77 70 72 71 64 62 56 63 63 57 63 66 68 70 74 68 71 80 82 81 83 83 83 83
57 57 57 57 57 57 57 57 56 57 58 60 61 59 52 76 75 76 76 75 78 77 75 75 73 63 58 62 61 55 56 46 56 66 70 66 57 71 79 79 77 81 84 85 82
57 57 57 57 57 57 57 56 56 58 59 62 56 54 56 74 74 78 76 74 75 76 75 81 69 59 59 51 46 49 43 46 54 63 64 63 60 71 76 77 77 79 81 83 84
56 56 56 56 56 56 55 56 58 58 63 68 68 55 64 68 74 78 79 78 72 70 68 66 59 51 49 45 35 43 45 52 52 58 63 61 61 70 74 75 74 76 79 80 81
57 56 56 56 56 55 53 56 55 52 56 58 63 63 69 75 79 75 79 74 71 65 53 59 49 44 50 56 57 56 53 51 57 63 57 57 58 63 68 72 73 75 73 78 80
56 56 56 56 56 55 50 51 63 62 52 66 68 69 75 73 66 72 79 63 61 51 57 52 45 57 63 61 58 56 52 50 56 61 59 56 56 62 65 67 69 73 75 76 76
55 55 55 55 55 52 56 65 72 68 49 61 70 69 70 70 65 66 71 65 58 53 53 47 53 63 60 56 54 53 50 50 50 57 59 54 51 56 63 66 71 73 75 77 76
55 55 55 55 53 61 63 72 70 67 40 56 63 68 71 70 62 75 75 66 58 52 54 51 59 58 55 54 56 47 58 57 54 49 40 53 37 50 58 61 65 69 70 68 72
55 55 55 54 49 57 67 70 66 59 30 60 63 74 71 63 66 68 75 66 55 55 53 49 53 53 51 51 54 49 56 54 52 49 44 46 39 47 54 56 60 65 68 69 70
54 55 54 57 53 60 70 69 62 40 32 56 65 62 59 64 65 69 67 68 66 57 57 54 63 57 52 55 56 57 50 48 48 45 35 43 41 44 49 56 61 66 69 73 76
54 53 52 59 56 70 69 59 40 35 61 55 56 60 57 56 60 63 59 53 47 42 41 51 52 57 58 48 54 50 37 28 27 31 31 47 43 46 54 61 62 64 68 70 70
53 52 56 63 65 68 61 47 32 51 53 61 57 57 52 58 57 57 54 48 57 53 42 36 35 50 56 48 43 43 41 29 23 25 32 46 37 45 58 63 66 67 65 68 71
52 56 58 62 66 63 49 36 38 51 57 54 54 49 50 55 55 54 50 50 54 54 40 37 39 56 56 57 54 45 35 46 33 37 27 36 45 53 58 56 50 51 55 64 69
48 52 59 68 67 57 43 42 50 60 59 56 44 51 43 47 46 46 47 55 53 55 53 45 35 51 55 56 56 47 52 34 33 23 24 34 38 40 43 43 48 49 50 53 57
48 50 61 68 63 49 36 44 54 63 61 53 49 47 47 44 46 44 48 53 57 52 52 43 41 42 48 44 43 44 39 36 35 31 22 23 31 45 41 44 47 49 52 52 52
50 46 63 64 45 46 41 54 54 59 62 58 54 50 47 47 44 45 44 50 56 52 43 45 37 33 39 51 55 50 43 40 31 28 32 31 34 46 44 48 50 49 53 53 56
44 51 63 60 38 41 51 54 56 56 56 56 50 51 50 44 38 47 48 58 56 49 44 42 34 28 34 43 48 40 42 39 37 34 30 28 33 48 48 48 50 48 51 54 55
47 45 52 53 54 47 45 48 48 59 56 56 52 52 48 45 48 44 46 53 56 52 53 46 36 32 28 36 39 36 41 43 40 32 32 35 41 45 44 48 49 51 51 54 54
50 46 47 41 42 46 48 48 48 46 54 52 47 48 45 37 42 42 46 49 52 53 45 41 34 36 39 42 43 42 42 42 40 41 35 40 43 49 46 48 50 54 51 56 56
44 41 45 41 46 45 47 45 46 49 47 45 43 47 45 39 42 39 45 45 41 46 41 41 32 36 35 41 42 39 44 44 45 46 44 45 45 55 52 53 53 55 57 57 61
50 50 45 41 43 43 42 44 46 49 51 52 48 45 43 46 51 51 51 51 50 41 37 35 34 33 29 42 41 34 43 46 48 50 48 41 49 55 51 53 53 55 59 61 64

GFSSW_sfc_temp_042.txt.gz
Temp
60 59 59 59 59 59 59 59 59 60 60 60 60 60 60 60 59 56 52 63 63 70 69 69 71 71 69 66 69 68 50 49 56 60 64 73 69 77 84 79 82 87 86 83 89
59 59 59 59 59 59 59 59 59 59 60 60 60 60 60 60 54 51 63 71 71 70 66 64 64 68 60 63 62 58 49 54 64 67 67 71 72 75 76 75 76 81 86 89 89
59 59 59 59 59 58 58 59 59 59 59 59 59 59 60 59 51 62 71 71 70 70 67 66 65 63 55 60 60 56 55 64 66 69 72 71 72 77 72 69 74 76 83 85 84
58 58 58 58 58 58 58 58 59 59 59 59 59 59 60 54 47 67 73 72 71 69 67 65 60 51 50 52 60 53 62 65 67 71 70 69 74 72 74 74 80 81 84 83 81
58 58 58 58 58 58 58 58 58 58 58 58 59 59 54 50 56 73 74 72 70 69 65 62 55 53 48 53 57 54 60 65 67 68 70 72 70 71 73 79 82 84 83 81 79
58 58 58 58 57 57 58 57 57 57 58 58 59 60 51 47 71 76 72 69 69 65 63 62 57 60 53 51 50 57 58 59 63 63 65 67 70 73 75 81 80 82 79 79 79
57 57 57 57 57 57 58 57 56 56 57 58 60 60 52 53 71 71 69 66 70 72 66 67 66 61 55 53 57 58 52 56 59 60 62 67 63 67 76 78 78 79 81 81 80
57 57 57 57 57 57 57 56 56 56 58 59 61 55 47 68 67 70 70 71 73 72 71 72 70 60 54 56 57 51 49 41 52 60 64 63 54 67 73 72 73 76 79 81 80
57 56 56 57 57 56 56 55 56 58 59 60 52 49 50 71 70 75 74 71 72 72 71 78 65 57 54 47 41 43 37 41 48 58 59 58 55 66 70 70 71 74 76 78 80
56 56 56 56 56 56 55 55 56 57 60 64 64 50 59 64 71 75 74 74 69 67 64 61 54 48 45 41 33 39 40 45 45 54 55 54 53 60 65 65 66 69 73 76 78
56 56 55 56 56 55 53 51 54 52 54 54 58 58 64 70 74 71 74 70 67 60 49 54 45 40 46 49 51 50 47 46 51 58 52 52 53 57 60 61 61 63 67 71 74
56 56 55 55 56 54 49 50 58 60 49 62 64 64 69 70 63 69 74 60 56 48 53 47 41 52 57 56 52 50 46 45 51 57 55 51 52 58 59 59 61 62 64 67 70
55 55 55 55 54 52 52 59 65 62 47 57 65 64 65 67 62 63 68 62 55 49 49 42 50 58 56 51 49 47 44 45 46 54 54 51 48 53 59 59 62 64 64 65 66
54 54 54 54 53 51 55 66 63 62 39 51 60 65 68 66 58 71 71 63 55 50 50 47 55 54 51 49 49 41 52 50 49 43 35 50 35 48 53 55 57 61 61 62 65
54 54 54 53 45 50 62 62 60 57 28 58 61 72 67 60 62 64 72 62 52 53 50 46 50 49 47 48 52 45 53 48 47 42 38 43 35 45 50 51 56 60 61 62 64
54 54 54 51 46 53 59 59 59 40 31 54 62 59 56 60 61 65 63 63 61 53 51 51 57 53 51 54 53 54 47 44 43 38 31 41 38 41 44 50 56 60 61 65 65
54 53 51 55 52 57 58 55 40 34 58 51 51 57 54 53 56 59 58 50 44 37 38 47 48 51 55 46 49 45 35 25 24 24 29 42 38 43 49 55 52 49 52 54 58
52 52 51 56 53 55 53 44 32 47 49 58 55 55 49 53 52 53 50 44 51 47 38 34 33 47 53 47 42 39 40 26 20 23 27 41 31 41 52 52 52 54 54 56 56
51 48 51 56 58 54 45 33 35 48 55 52 53 47 47 51 50 47 45 46 49 47 36 34 37 52 54 53 48 40 33 44 33 34 28 31 38 47 51 49 51 52 55 54 54
43 45 50 61 59 51 40 38 45 56 58 56 43 49 42 44 43 42 43 51 49 50 47 40 32 49 52 53 53 45 47 31 29 23 23 30 34 35 42 44 47 49 51 53 55
44 46 57 61 55 44 33 39 49 58 59 52 49 46 44 40 42 40 43 50 52 48 47 39 35 39 45 41 40 38 35 35 34 31 24 22 29 41 42 43 43 47 52 51 53
40 42 58 58 42 37 37 48 52 54 58 54 51 47 42 43 40 40 41 46 53 49 41 41 34 29 38 49 51 46 40 36 24 25 29 27 31 45 43 45 46 49 51 52 55
40 40 56 54 31 34 44 50 52 51 52 49 47 48 47 41 36 43 45 54 53 47 41 40 31 29 34 42 46 42 42 40 35 33 25 27 29 46 45 47 50 47 49 53 53
40 37 43 44 43 38 38 42 45 55 52 50 47 48 43 40 41 39 42 49 52 51 53 46 36 34 28 36 40 33 39 42 38 28 30 33 35 43 46 46 49 47 52 53 53
40 36 38 32 36 37 37 43 43 43 49 48 43 44 40 33 37 37 42 44 48 51 43 41 34 36 38 40 40 39 38 39 38 36 31 36 37 43 47 47 49 51 55 58 59
36 34 36 34 38 38 40 38 41 44 44 42 39 44 41 35 38 36 39 39 37 43 38 41 33 36 33 40 39 37 40 41 41 41 40 41 40 51 53 56 54 55 57 56 61
41 41 41 36 34 34 35 38 40 43 46 49 44 41 40 43 46 47 47 46 44 40 34 35 34 33 29 38 36 31 39 42 40 44 42 36 44 47 46 50 53 55 58 61 60

GFSSW_sfc_temp_045.txt.gz
Temp
59 59 59 59 59 59 59 59 59 59 59 60 60 60 60 60 59 53 50 63 61 68 69 66 68 69 67 61 67 67 51 48 55 59 62 69 67 74 78 73 76 78 78 83 81
59 59 59 59 59 58 58 59 59 59 59 59 59 59 59 59 53 50 62 69 69 70 64 62 61 65 57 59 61 59 48 53 62 66 64 68 69 71 70 70 72 75 81 85 85
58 59 59 58 58 58 58 58 59 59 59 59 59 59 59 59 51 60 72 69 70 69 64 63 62 59 52 55 58 56 52 60 64 66 67 67 68 73 69 67 68 71 75 81 82
58 58 58 58 58 57 58 58 59 59 59 58 58 59 59 53 45 66 73 71 71 67 64 61 57 49 47 49 58 51 58 60 63 67 66 65 70 69 70 71 76 76 78 78 78
58 58 58 58 58 57 57 58 58 58 58 58 58 59 54 47 54 70 74 72 67 65 62 58 53 49 44 50 55 49 56 60 63 63 63 68 66 67 69 76 78 78 78 76 77
57 57 57 58 58 57 57 57 57 57 57 57 58 59 49 45 68 71 69 67 67 61 58 57 56 58 50 49 48 53 53 56 57 60 61 62 65 67 71 76 76 76 75 76 76
57 57 57 57 58 57 57 57 56 56 57 58 59 58 49 52 67 66 67 63 66 66 62 65 63 58 53 50 53 55 50 52 56 59 60 65 60 62 72 74 73 74 75 75 76
57 57 57 57 57 57 57 56 56 56 57 58 60 53 46 65 64 67 63 66 70 69 68 69 65 57 51 54 54 48 46 39 50 55 62 60 53 65 69 69 70 74 75 76 75
57 56 56 56 57 57 56 55 56 57 58 59 51 48 49 68 66 71 70 68 67 68 68 75 62 54 52 44 40 41 35 37 45 53 54 54 50 61 65 65 64 66 68 73 73
56 56 56 56 56 56 55 55 55 57 59 60 61 48 57 60 67 72 71 71 65 64 62 60 51 46 42 40 32 37 37 42 43 52 52 51 52 56 61 62 61 62 65 67 70
56 56 55 55 55 55 51 51 52 50 52 52 55 55 60 66 71 69 72 67 64 58 46 50 43 38 44 46 48 46 43 41 47 54 49 49 51 55 58 58 58 60 61 63 66
56 55 55 55 55 54 49 52 56 57 48 59 60 60 65 64 58 65 71 58 54 46 50 45 39 49 53 51 48 45 41 40 46 53 51 49 49 55 55 56 57 59 59 61 63
55 54 55 55 54 50 51 57 62 56 45 55 60 60 60 63 57 60 66 59 53 47 46 41 48 54 52 47 46 42 40 41 41 48 50 47 46 48 54 56 59 59 60 60 61
54 54 54 54 52 48 54 60 58 57 38 50 55 62 63 62 56 68 68 61 52 48 47 45 52 51 47 46 47 38 49 48 45 40 32 46 32 45 50 51 54 56 56 58 60
54 54 54 53 44 50 60 56 55 56 29 56 58 69 64 57 59 62 67 59 51 50 48 46 47 46 44 47 50 44 49 45 44 39 34 39 31 43 47 48 51 55 56 55 56
53 54 53 49 45 51 55 54 56 39 31 52 60 59 57 57 58 62 60 61 58 49 48 48 53 51 49 52 51 51 44 41 38 34 24 36 36 39 45 48 50 51 52 55 55
53 53 51 54 52 53 53 52 36 30 55 48 50 56 50 50 53 55 52 48 42 36 36 45 45 49 52 44 47 43 33 24 23 23 24 38 34 40 47 51 49 50 51 53 53
52 51 51 53 50 52 51 43 31 44 46 55 54 54 46 50 49 51 47 41 47 44 35 32 32 45 51 46 40 38 35 25 19 22 27 39 28 36 48 50 51 52 52 53 53
51 47 49 53 55 51 45 32 33 43 51 50 52 46 46 48 48 46 43 43 46 44 35 32 34 49 51 51 47 37 32 39 30 29 23 30 36 44 48 49 50 49 52 51 52
42 44 51 57 55 49 39 37 41 53 53 52 40 45 39 41 40 39 40 48 46 48 44 39 30 44 49 49 50 43 45 33 30 22 21 28 31 34 42 45 48 48 48 50 53
43 46 55 56 54 44 33 37 46 55 54 49 45 42 41 39 39 38 41 47 49 47 44 39 34 37 42 39 38 37 33 33 31 30 22 23 29 40 42 44 44 47 49 49 51
39 41 55 55 42 34 35 44 50 52 54 50 48 45 41 41 38 38 38 45 51 47 39 39 33 28 36 47 49 45 39 37 26 25 26 28 31 48 45 44 44 46 50 52 53
40 39 52 52 30 33 40 46 49 49 48 47 44 45 44 39 33 41 43 51 50 46 40 39 32 29 32 38 44 41 42 41 36 33 27 25 30 47 43 44 47 46 51 53 52
39 36 40 40 39 35 35 39 42 52 48 48 45 44 40 37 40 36 39 46 48 46 53 45 36 33 28 33 38 34 38 39 34 29 29 30 34 42 44 45 48 49 49 49 52
37 34 36 31 34 34 34 39 40 40 46 45 41 41 38 32 35 35 39 41 45 48 42 40 33 36 39 39 39 37 37 38 35 36 31 35 35 40 45 45 48 51 52 52 55
35 33 35 33 35 34 36 35 37 41 40 39 37 41 39 33 37 35 36 35 35 40 36 40 31 36 33 39 39 36 39 40 41 40 38 38 37 47 48 47 48 49 51 54 57
39 39 42 34 32 31 32 35 37 38 42 45 41 37 37 40 43 44 44 44 42 37 33 34 35 33 28 37 34 30 38 39 40 42 39 33 39 42 40 43 43 46 49 51 51

GFSSW_sfc_temp_048.txt.gz
Temp
59 60 59 59 59 59 59 59 59 59 59 60 60 60 60 60 59 51 48 60 60 68 69 64 65 64 63 60 66 66 49 44 54 57 60 69 66 71 76 71 72 74 74 77 77
59 59 59 59 59 59 58 59 59 59 59 59 59 59 59 59 51 49 62 68 68 70 62 59 58 60 55 57 59 58 44 51 60 63 62 67 67 69 69 68 67 71 77 80 78
59 59 59 59 59 58 58 58 59 59 59 59 59 59 59 57 48 59 71 69 70 68 62 61 59 57 49 53 54 54 46 57 62 65 66 64 66 70 66 64 65 67 73 79 75
58 58 59 59 59 58 58 58 58 58 58 58 58 59 59 50 44 62 73 70 71 65 61 59 55 48 45 46 53 46 55 58 61 65 64 63 67 66 68 68 72 73 74 73 74
58 58 58 58 58 58 58 58 58 58 57 57 58 59 52 45 53 67 74 71 66 63 59 56 51 48 42 46 51 48 53 58 60 61 61 65 63 65 66 72 75 75 74 72 72
57 58 57 57 58 58 58 57 57 57 56 57 58 59 47 44 64 67 67 65 64 58 55 57 54 55 49 46 46 50 52 55 58 60 60 61 63 65 69 73 74 74 71 72 71
57 57 57 57 57 57 58 57 56 56 57 58 58 57 47 53 64 63 63 59 63 63 59 61 60 56 52 47 50 51 48 52 55 57 58 61 56 59 69 73 71 71 72 72 73
57 57 57 57 57 57 57 57 56 57 57 58 59 51 46 63 62 63 60 62 65 63 64 65 63 55 50 51 51 44 43 37 49 54 59 58 49 61 64 66 66 68 69 69 69
57 56 56 56 57 57 56 55 56 58 58 59 49 46 49 66 63 68 67 65 65 65 64 72 60 51 51 43 38 40 33 35 44 51 53 52 47 59 62 63 63 64 65 67 67
56 56 55 56 56 56 55 55 55 57 58 59 59 46 55 58 64 68 68 67 62 61 59 57 48 44 40 39 30 34 35 39 39 48 49 47 47 55 59 59 59 62 64 64 65
56 55 55 55 55 55 51 49 51 49 49 51 53 53 57 64 67 64 69 64 61 56 45 48 42 37 43 44 45 42 40 39 44 50 46 45 47 51 55 56 56 58 61 63 63
55 55 55 55 55 54 47 52 53 51 46 56 57 56 62 62 56 62 68 55 52 44 47 43 37 47 50 48 46 43 39 38 44 50 47 45 46 52 53 54 56 57 58 60 62
54 54 54 54 54 49 48 55 57 54 43 52 58 57 58 60 55 56 63 56 50 44 44 39 46 52 49 44 43 40 38 38 39 45 46 43 44 46 51 53 57 57 57 58 59
54 54 54 54 50 47 53 57 54 55 37 49 53 60 60 60 54 65 65 60 50 46 45 43 49 48 44 44 45 36 46 45 43 38 29 44 28 41 46 50 51 54 54 56 56
54 54 54 53 43 50 55 52 51 54 27 53 56 68 62 56 57 60 65 57 50 48 46 44 45 44 42 45 48 42 47 43 42 36 31 34 28 34 46 45 49 55 58 54 54
53 54 53 48 45 50 53 51 54 38 28 48 57 56 55 57 58 61 59 61 56 49 46 46 51 48 47 49 49 49 42 39 35 31 23 31 31 32 38 43 47 51 52 54 54
53 52 51 52 50 50 50 51 36 29 51 46 47 51 49 49 52 54 50 44 41 36 35 42 43 47 50 42 45 41 32 24 23 23 24 35 31 36 44 51 51 52 52 53 52
52 51 50 52 49 50 50 42 30 42 43 52 50 50 43 49 48 49 44 40 46 42 35 32 32 43 49 43 38 37 34 24 19 21 27 37 27 34 46 50 51 51 51 51 51
50 47 48 52 53 50 45 32 33 41 48 46 48 42 41 46 45 44 40 41 45 43 34 31 33 47 49 48 45 35 31 37 28 26 18 29 34 42 48 48 48 49 50 49 50
42 45 50 54 52 48 39 37 40 50 50 49 38 43 37 39 38 37 39 46 44 48 43 37 30 42 46 47 47 41 42 28 25 20 20 27 30 33 40 43 46 47 48 49 49
44 46 53 52 51 43 32 35 44 53 51 46 42 40 40 38 38 36 39 44 48 44 42 37 32 35 40 38 36 35 31 31 30 28 21 23 29 40 42 44 44 47 50 46 48
41 42 53 52 41 32 34 41 49 49 51 47 45 43 40 40 37 36 37 42 49 46 37 39 31 27 33 45 46 41 35 33 29 25 26 28 31 47 44 45 44 45 48 49 52
40 38 51 51 30 31 38 43 46 47 46 44 42 42 42 37 33 39 41 48 48 43 38 38 31 24 30 36 40 36 38 37 34 33 27 24 30 47 44 45 47 44 48 52 53
37 36 40 39 37 34 32 37 40 49 46 45 43 42 38 35 38 36 37 44 46 44 52 45 33 30 26 32 35 34 37 38 35 29 30 31 33 41 43 44 46 46 48 50 51
35 32 33 32 33 32 31 36 37 38 43 42 39 40 36 30 32 33 37 39 43 47 39 38 33 36 37 37 38 37 36 37 33 34 30 35 35 40 43 44 44 46 47 48 49
33 32 33 31 34 32 33 32 35 38 37 37 34 38 36 31 35 33 35 34 33 38 36 36 32 35 33 38 37 34 37 38 39 39 38 36 34 46 45 46 44 45 45 46 50
37 37 37 32 31 30 31 34 35 36 39 42 38 35 34 38 41 40 40 42 40 36 34 36 35 32 29 35 33 29 36 38 39 42 37 32 41 44 42 41 42 43 44 45 49

GFSSW_sfc_temp_051.txt.gz
Temp
60 60 60 59 59 59 59 59 59 59 60 60 60 60 60 60 60 58 59 69 66 67 70 72 73 73 74 72 73 73 63 61 63 63 67 73 70 77 81 77 80 83 83 85 89
59 59 60 60 59 59 59 59 58 59 59 60 60 59 59 59 58 58 69 68 68 70 71 69 67 70 69 69 71 68 63 63 69 72 71 75 72 73 73 74 75 80 85 88 90
59 59 59 59 59 59 59 58 58 59 59 58 59 59 59 60 57 69 70 69 70 71 71 69 68 69 65 68 67 65 62 65 68 72 72 72 70 74 70 69 76 74 80 85 86
58 59 59 59 59 58 58 58 58 58 58 58 58 59 59 58 56 71 72 70 71 72 70 68 67 64 62 61 64 60 63 65 69 69 69 69 69 69 71 72 77 79 81 84 84
58 58 58 58 58 58 58 58 58 57 57 57 58 58 58 58 63 74 73 72 71 70 69 67 65 63 60 61 62 61 62 65 67 68 69 70 68 69 69 75 78 80 81 82 83
58 58 58 58 57 57 58 58 57 57 56 57 58 59 55 55 73 73 72 70 71 69 68 68 67 67 62 61 61 62 62 64 66 68 68 66 69 69 72 76 75 78 79 82 83
58 57 57 57 57 57 57 57 57 56 57 58 58 59 54 62 73 71 70 71 72 71 69 70 71 67 65 59 63 61 57 61 63 64 64 67 62 63 71 73 72 75 78 79 80
57 56 56 57 57 57 57 56 56 56 57 58 59 57 56 70 72 71 71 72 73 72 71 73 73 68 64 64 59 56 56 54 61 62 64 64 57 66 67 69 69 70 75 77 79
57 56 56 56 56 56 56 55 56 58 58 59 57 56 59 72 69 75 74 72 73 72 72 74 70 62 62 57 54 54 50 50 54 62 61 60 55 65 67 65 65 67 71 74 76
56 56 55 55 56 55 55 55 57 60 60 61 61 54 64 63 70 72 76 73 70 69 67 65 63 60 58 56 46 47 48 49 50 58 59 58 57 62 65 64 63 65 67 70 73
56 55 55 55 55 54 54 60 60 58 57 58 59 58 62 69 72 71 75 71 69 65 57 58 56 51 54 55 54 52 50 49 53 58 56 56 56 61 65 64 64 65 65 67 69
55 55 55 55 55 54 54 61 59 61 53 61 60 61 64 68 61 68 73 65 62 55 56 55 51 57 57 56 53 52 49 49 53 57 55 55 54 60 63 63 66 66 66 67 67
54 54 55 55 54 56 58 61 64 62 53 58 62 61 63 67 61 63 70 65 60 55 54 51 55 58 55 54 51 52 49 48 48 52 56 52 53 54 62 63 65 67 68 68 67
54 54 55 54 56 56 61 63 63 63 51 54 59 63 64 65 60 69 71 67 59 54 54 54 57 55 54 52 54 48 55 52 50 48 43 52 42 52 57 59 62 65 66 68 69
54 54 54 53 56 61 62 61 63 63 37 57 60 74 67 62 63 64 70 65 57 56 55 52 54 53 52 54 55 51 54 52 50 48 45 48 42 51 55 55 59 63 66 68 70
53 54 53 54 53 61 61 60 64 48 35 52 61 59 59 60 61 64 63 66 63 56 56 55 59 58 56 56 56 54 52 51 46 45 38 43 43 48 52 55 57 64 66 67 68
53 52 54 57 61 61 60 62 47 40 54 49 52 56 54 53 55 56 54 52 51 45 46 51 52 56 57 52 54 52 47 40 38 38 38 45 42 48 54 59 61 62 65 67 66
52 52 54 59 61 58 61 54 38 45 46 55 54 54 50 53 52 52 51 48 52 50 46 42 40 51 56 54 50 49 47 39 28 33 39 47 38 51 57 60 62 62 65 65 66
51 58 60 62 60 60 58 44 43 46 51 49 53 47 47 51 51 50 48 48 52 52 44 41 40 52 54 55 54 45 42 49 40 42 35 43 48 54 59 59 60 61 63 64 66
53 57 61 61 60 59 53 43 47 54 53 52 44 49 43 47 46 46 46 51 49 53 53 46 38 49 53 54 55 51 53 39 40 29 28 40 42 44 52 55 59 61 63 64 64
54 57 63 60 60 56 46 45 49 56 55 50 47 47 47 45 47 45 46 50 53 51 52 49 43 44 47 46 47 46 43 43 41 38 31 31 41 54 54 56 56 60 62 63 63
50 52 60 61 53 44 46 47 49 53 55 52 51 49 46 47 44 44 44 49 54 54 46 49 43 38 43 53 54 51 46 45 35 33 38 37 38 58 57 58 56 58 60 63 64
46 47 58 59 44 45 46 47 49 50 51 50 48 49 49 45 41 45 46 52 53 51 46 47 41 34 40 44 48 44 46 46 44 38 32 29 38 58 58 56 58 56 58 60 60
48 47 51 50 47 43 40 43 44 52 50 50 49 49 46 43 47 43 43 49 51 51 51 49 43 39 34 41 44 39 44 46 40 30 36 38 42 49 51 52 56 56 57 58 58
45 40 40 42 44 41 40 41 41 42 48 48 46 44 41 38 40 40 44 46 49 51 49 47 37 41 43 44 44 42 42 43 41 41 32 40 43 48 52 53 54 54 55 55 55
45 44 43 41 39 38 39 40 39 42 41 43 42 42 42 38 40 37 43 43 41 47 45 45 34 40 37 43 43 39 43 44 44 44 43 44 42 53 55 56 53 53 53 53 54
45 45 44 40 38 39 41 40 40 41 45 45 43 41 40 44 48 49 48 47 46 42 41 41 38 34 33 42 40 36 45 47 47 48 47 40 49 54 51 50 51 52 53 52 53

GFSSW_sfc_temp_054.txt.gz
Temp
60 60 60 60 59 59 59 59 59 59 60 60 60 60 60 60 60 73 71 75 74 70 70 81 81 82 83 83 85 86 72 70 73 74 77 84 77 84 87 83 88 89 89 93 96
60 60 59 59 59 59 59 59 59 59 59 59 59 60 59 60 68 73 73 69 69 71 79 78 77 79 79 80 80 77 72 73 83 83 80 84 81 80 77 80 82 86 93 94 96
59 59 59 59 59 59 59 59 59 59 59 59 59 59 59 63 69 76 70 70 69 73 80 79 79 79 76 80 78 76 71 80 80 82 84 82 82 85 75 74 82 83 85 90 92
59 59 59 59 59 58 58 59 59 59 59 58 58 59 59 70 63 79 71 71 71 80 80 77 76 73 73 71 79 70 76 78 79 81 77 77 83 78 79 77 82 85 87 88 89
58 58 59 58 58 58 58 58 59 58 58 57 58 59 66 68 73 81 72 73 80 80 77 76 73 73 69 73 72 70 75 74 78 78 78 79 76 75 79 83 82 84 86 87 89
57 58 58 58 58 58 58 57 58 58 57 57 58 58 67 64 81 82 82 79 81 80 78 78 75 75 71 70 69 73 73 73 76 76 78 74 75 78 80 83 81 81 83 87 89
57 57 57 57 57 57 57 57 56 57 57 58 59 66 65 71 82 82 81 81 82 80 76 79 79 74 73 68 72 70 65 71 72 74 73 75 69 72 81 80 79 79 84 86 86
57 57 57 57 57 57 57 56 56 57 57 58 59 67 66 81 84 80 83 81 83 82 79 81 80 75 72 73 68 66 65 63 72 71 72 70 65 72 77 75 75 75 77 82 85
57 56 56 56 56 56 56 56 57 58 58 59 64 65 67 76 76 82 84 77 80 80 80 79 78 71 70 65 63 64 61 60 64 70 68 68 66 74 75 74 72 73 75 78 81
57 56 55 56 56 56 55 56 59 61 65 69 70 62 73 71 77 78 83 80 76 75 72 72 71 66 68 64 56 59 58 59 60 67 67 66 66 72 75 74 72 73 76 75 77
56 55 55 55 56 55 59 70 67 65 66 67 67 65 69 76 79 77 81 77 76 72 63 68 63 59 63 63 62 61 58 58 62 67 62 63 65 69 73 74 73 74 74 75 75
55 55 55 56 56 55 65 70 67 69 62 70 69 69 73 75 68 74 80 70 68 62 64 62 58 65 65 63 60 59 57 58 62 64 62 62 62 68 71 72 74 75 75 75 76
54 54 55 55 55 61 72 69 76 72 64 66 69 68 71 74 68 70 76 72 66 62 62 59 62 65 62 60 57 59 57 57 55 61 64 61 60 65 70 71 74 75 76 77 75
54 54 55 54 59 74 72 74 77 73 59 60 66 70 72 73 65 76 78 72 66 61 62 62 66 61 60 58 60 55 62 59 56 55 52 61 50 62 67 67 70 71 73 75 76
54 54 55 52 72 73 71 76 76 70 44 62 66 80 74 68 69 69 77 72 62 63 62 59 60 60 58 60 62 57 61 59 58 55 55 56 51 62 64 63 67 69 72 74 76
53 54 54 65 73 73 76 74 71 54 42 57 66 64 65 68 67 70 69 72 70 63 64 62 70 64 63 64 63 63 59 60 59 56 47 56 53 59 63 63 66 70 72 74 76
53 53 58 71 70 76 76 71 54 47 60 55 58 62 62 61 63 64 62 61 57 51 52 59 59 65 65 59 62 60 55 47 46 46 48 54 50 57 63 65 68 69 71 74 74
52 52 58 73 76 73 72 62 45 53 54 61 60 61 57 61 62 60 59 56 62 59 54 49 47 58 64 60 57 58 55 47 36 43 50 56 48 58 65 67 70 71 72 73 73
51 71 73 75 73 73 66 52 52 54 57 55 59 54 56 58 57 57 58 56 60 61 50 48 48 59 60 63 61 55 49 58 47 50 44 51 57 65 68 65 68 68 69 70 73
66 71 75 73 72 69 61 50 55 59 59 58 50 55 51 55 53 54 54 58 55 60 61 55 44 57 59 61 62 58 62 46 48 36 37 49 51 55 59 62 64 66 68 71 72
65 66 70 73 71 66 53 57 57 62 61 55 53 53 54 53 55 53 52 57 59 59 60 58 51 51 56 53 52 53 51 52 51 45 37 39 51 62 60 63 62 65 67 69 70
65 62 71 73 61 64 57 56 50 59 62 58 57 55 53 54 52 53 51 55 60 59 51 54 48 44 50 60 61 58 54 52 40 40 47 43 46 65 65 66 65 65 68 70 70
61 64 73 69 54 57 58 56 56 56 57 56 54 56 57 52 47 52 53 58 59 57 52 53 46 40 46 53 55 51 55 55 53 48 40 36 46 65 65 66 68 66 68 68 68
62 58 66 67 61 52 51 53 51 58 56 56 55 57 54 51 55 49 49 54 57 57 52 53 47 43 39 47 48 45 50 51 45 34 42 46 50 58 61 62 65 66 67 67 66
61 55 52 57 58 52 51 51 49 48 55 57 53 50 49 46 50 48 53 54 56 55 54 52 41 47 50 52 52 50 50 51 47 48 37 47 50 56 61 62 64 66 66 65 65
56 55 59 54 50 50 47 52 48 49 48 50 49 52 51 46 48 45 51 51 48 54 50 50 37 46 43 50 50 47 51 51 52 53 52 53 52 64 66 67 63 60 59 61 63
60 58 53 51 52 51 52 50 48 50 52 53 51 49 47 51 55 55 55 54 53 48 44 43 40 39 38 48 47 41 50 52 54 57 56 49 57 63 61 58 57 56 59 60 61

GFSSW_sfc_temp_060.txt.gz
Temp
60 60 60 60 60 60 60 61 61 61 60 61 61 60 60 60 60 69 66 78 79 74 72 83 87 86 87 83 87 87 71 67 70 73 78 89 86 90 92 87 90 94 92 96 98
60 60 60 60 60 60 60 60 60 60 60 60 60 60 60 60 63 69 78 73 73 74 80 80 80 84 79 80 82 79 70 70 79 82 81 86 88 90 85 84 85 88 95 97 98
60 60 60 59 59 59 59 60 60 60 60 60 60 60 59 61 67 76 72 72 73 75 82 85 86 83 77 81 80 79 72 79 81 84 86 85 86 91 84 80 85 84 89 93 93
59 59 60 59 59 59 59 59 59 60 60 60 60 59 60 65 62 80 73 73 72 80 82 83 82 76 74 73 81 74 80 81 83 86 85 83 88 86 86 81 90 91 91 91 89
59 59 59 59 58 58 59 59 59 59 59 59 59 59 64 68 73 81 73 75 81 82 81 82 78 78 72 77 79 76 79 83 84 85 85 86 83 83 85 90 91 90 90 88 87
58 58 58 58 58 58 58 58 58 58 59 59 59 59 63 62 89 86 86 84 84 85 84 84 80 83 76 76 76 80 81 81 83 83 83 80 80 83 84 89 88 89 87 87 87
57 58 58 57 58 58 58 57 57 58 58 59 59 66 66 70 90 90 88 86 88 87 81 86 86 79 79 74 81 78 72 77 78 79 78 82 73 75 84 87 84 86 87 88 88
57 57 57 57 57 58 58 58 57 57 58 59 60 67 65 89 92 88 89 86 89 89 86 87 86 79 76 80 76 70 71 62 74 77 79 77 65 78 84 83 82 84 86 87 88
57 56 57 57 57 58 57 57 57 59 60 60 61 66 68 80 81 88 89 82 86 86 86 87 82 74 75 68 64 68 59 64 68 79 78 75 67 77 84 82 81 83 84 85 86
57 56 56 56 57 57 56 56 60 59 62 69 74 67 75 75 83 86 89 86 80 80 78 76 73 67 69 65 54 60 62 66 65 75 75 72 70 77 80 81 79 80 81 82 83
56 56 55 56 57 56 58 69 64 63 70 69 73 71 78 84 87 81 86 81 79 75 65 73 64 59 66 69 69 68 66 63 69 77 71 69 69 73 78 79 78 78 78 80 81
56 55 56 56 56 56 59 68 75 77 65 78 79 78 82 84 73 78 86 73 71 64 70 66 61 69 72 72 69 66 62 61 68 73 71 68 66 71 74 75 78 78 78 79 81
55 55 55 56 55 59 71 77 86 84 66 73 79 77 77 80 72 75 80 75 69 66 66 62 67 74 69 67 64 63 60 61 62 69 71 66 61 65 72 75 78 80 80 81 80
55 55 55 54 58 80 78 84 87 83 58 66 71 76 79 78 70 82 84 76 70 64 67 66 73 69 66 63 65 57 68 66 64 60 52 66 50 63 70 73 74 77 78 79 81
54 55 55 53 68 76 80 87 86 77 42 70 73 86 81 72 75 74 84 76 65 66 67 62 65 65 62 63 68 62 69 65 63 58 57 57 53 59 68 67 71 74 77 79 80
54 55 54 70 70 80 87 85 78 55 42 65 73 70 69 73 73 77 74 78 75 67 68 66 73 70 67 69 69 70 64 62 62 57 46 54 54 56 63 68 73 75 77 77 79
54 53 53 74 73 87 85 76 55 48 70 64 66 71 69 67 70 71 68 65 60 54 55 62 64 70 71 63 67 62 55 45 43 44 44 59 55 59 69 73 76 73 75 77 79
53 52 61 75 83 84 77 63 46 62 64 72 68 68 62 68 68 69 66 62 68 63 56 48 44 60 68 56 55 58 54 44 33 37 44 57 44 60 73 76 76 75 76 77 77
51 73 72 78 83 80 67 52 54 62 68 64 65 60 61 68 67 66 64 63 65 67 53 46 49 65 66 66 61 56 51 59 46 44 42 50 58 66 71 71 72 73 74 73 75
60 71 77 84 82 73 61 52 61 71 69 66 55 61 55 61 60 61 60 64 59 63 68 59 48 62 65 63 62 59 64 47 46 34 34 46 49 53 60 66 70 70 71 73 75
63 69 77 84 79 66 54 60 67 73 70 61 58 56 57 57 59 58 59 62 61 60 62 61 54 53 60 57 54 54 51 54 49 43 33 36 44 58 60 61 62 65 71 72 74
66 63 80 82 63 65 60 68 61 68 70 66 65 61 58 59 57 57 55 57 60 60 52 50 42 43 51 61 63 60 53 54 40 39 47 46 47 62 64 65 62 67 70 74 75
59 68 80 77 56 59 64 66 67 66 65 63 60 63 63 57 50 56 58 63 63 59 51 51 42 37 43 50 55 48 46 48 47 50 40 37 44 67 55 63 63 60 64 74 74
62 59 70 71 71 62 59 58 60 69 66 65 62 63 59 57 60 54 56 58 58 58 57 56 50 44 38 43 40 36 44 48 46 36 40 45 49 58 60 57 58 56 62 71 71
65 61 63 56 60 60 60 59 57 58 66 64 59 60 57 50 53 52 57 59 61 56 56 51 42 48 50 52 51 41 45 48 46 48 41 49 51 57 63 65 67 68 68 66 63
59 57 61 57 62 59 57 58 58 59 59 56 54 58 57 51 53 50 54 54 53 58 52 54 37 45 43 50 51 49 53 53 54 55 54 54 53 67 63 64 64 66 63 60 62
62 63 58 53 58 58 58 58 57 59 60 62 60 57 54 57 60 60 59 58 57 53 51 50 45 41 36 48 49 41 50 52 54 58 58 51 53 56 57 56 58 62 63 61 64

GFSSW_sfc_temp_063.txt.gz
Temp
60 60 60 60 60 60 60 60 60 60 60 61 61 60 60 60 59 60 55 67 67 72 73 77 77 77 76 70 73 73 60 55 59 64 68 78 75 79 85 81 86 89 86 87 90
60 60 60 60 60 60 60 60 60 60 60 60 61 60 60 59 54 55 68 74 73 73 74 72 69 74 65 67 68 64 58 60 68 71 71 76 77 80 79 76 79 81 88 92 90
59 60 60 60 60 59 59 59 59 59 59 60 60 60 59 58 54 65 75 73 72 72 76 76 74 72 62 66 65 66 60 68 72 76 77 76 77 82 79 72 76 78 83 86 85
58 59 59 59 59 58 59 59 59 59 59 60 59 59 59 56 51 71 73 72 72 76 75 73 70 61 58 58 67 60 70 72 74 78 77 75 79 78 80 78 84 84 83 82 80
58 58 58 58 58 58 59 59 59 59 58 59 59 59 56 53 59 74 73 73 75 75 72 69 66 63 57 63 66 63 67 74 76 76 77 78 76 75 75 81 84 84 83 78 78
57 58 58 58 58 58 58 58 58 58 58 58 59 59 53 51 78 78 75 75 77 73 70 71 69 71 64 63 59 67 68 70 74 72 72 72 74 72 75 81 84 82 79 79 79
57 57 57 57 58 58 58 58 57 58 58 58 59 60 57 57 80 78 78 75 78 78 75 78 77 69 66 61 68 69 61 65 68 67 67 71 66 69 74 79 76 78 78 79 79
57 57 57 57 58 58 58 57 57 57 58 58 60 57 51 78 76 77 78 78 81 81 79 79 78 68 62 67 66 60 59 49 61 67 70 64 57 71 75 74 73 76 77 79 77
57 56 56 56 57 57 57 56 57 59 60 60 53 52 56 78 76 82 82 79 80 80 79 85 72 62 63 55 50 52 46 50 57 67 68 65 61 70 74 74 71 71 72 78 75
56 56 56 56 56 56 56 55 58 58 60 64 66 54 64 70 78 82 82 82 77 75 72 69 62 54 52 48 40 47 48 55 56 65 67 64 64 70 71 71 69 68 71 70 70
56 56 55 56 56 56 55 59 52 52 60 59 64 65 72 80 84 78 82 78 74 67 55 62 50 46 53 58 60 59 57 56 61 67 64 59 61 63 67 64 65 66 69 68 71
56 55 56 56 56 56 51 56 67 67 57 70 69 71 78 79 71 75 81 67 64 55 61 55 49 60 66 65 62 60 56 52 59 65 63 58 58 63 65 64 64 65 65 67 68
55 55 55 55 55 52 58 66 76 73 55 65 74 73 74 75 69 70 75 69 62 57 58 52 59 69 66 62 60 56 53 53 53 61 63 57 52 56 63 65 70 71 68 68 67
54 55 55 54 55 65 66 76 75 72 45 60 68 73 76 74 65 78 79 70 63 57 59 57 65 65 63 61 60 51 62 62 59 52 41 55 38 51 58 61 66 69 71 68 67
54 55 55 54 53 60 72 75 72 65 33 66 69 80 76 67 70 70 80 71 60 60 60 55 59 59 58 62 64 56 64 59 57 49 44 49 39 48 57 58 63 64 69 69 70
54 55 54 60 55 64 72 73 66 45 37 63 70 67 65 68 69 73 71 72 70 61 60 58 67 63 61 66 66 66 60 55 51 44 34 45 44 46 52 58 64 66 66 67 67
54 54 51 61 58 73 74 63 42 37 64 61 64 68 64 62 65 66 63 58 51 46 46 56 59 63 64 56 61 58 45 35 32 33 34 49 47 49 56 63 67 65 64 66 67
53 52 54 62 68 71 64 50 35 55 59 68 65 63 58 63 63 64 62 57 63 58 47 40 39 54 60 50 44 45 44 35 25 28 36 47 39 44 64 68 67 64 63 65 64
52 59 60 65 68 67 54 39 44 56 64 61 61 55 55 61 60 59 58 57 60 57 44 40 37 53 56 55 55 47 38 49 41 42 30 37 47 57 63 65 65 65 65 63 63
50 56 63 74 71 62 48 45 51 63 66 63 51 56 49 53 52 53 52 58 55 58 56 47 39 54 58 60 58 52 53 39 37 27 25 36 42 46 53 57 65 62 61 62 64
51 55 68 74 68 54 42 49 59 70 68 60 54 52 53 51 52 51 52 58 59 56 54 45 41 42 50 48 45 46 42 44 40 36 26 26 36 51 53 54 55 59 62 57 60
52 48 69 69 50 51 48 60 58 63 67 63 59 56 52 52 49 50 49 52 60 57 46 46 39 33 41 51 53 49 41 38 32 32 34 33 36 57 54 55 57 57 60 63 62
46 53 69 67 44 47 56 59 61 61 61 61 56 58 56 50 42 50 53 62 59 51 44 45 37 27 34 45 48 42 45 45 38 37 32 30 33 56 54 54 55 55 58 62 64
48 49 57 58 57 50 50 52 54 64 62 62 58 57 52 48 50 46 50 58 59 54 52 50 39 35 28 37 40 35 42 45 38 31 35 35 39 47 53 52 53 55 59 60 60
50 50 53 46 49 49 52 53 52 53 60 58 52 54 49 41 45 45 50 52 56 55 50 43 34 39 42 46 46 45 44 44 40 42 35 40 43 48 48 52 56 57 57 56 58
48 46 49 47 52 50 51 50 52 56 53 51 48 54 50 42 45 42 45 44 43 48 43 43 30 38 37 45 47 44 48 49 48 45 45 45 44 49 51 53 53 54 55 55 55
52 54 47 46 48 46 49 49 52 55 56 58 54 49 47 50 51 49 48 47 47 43 40 39 35 32 28 42 41 34 44 44 46 49 44 35 40 47 46 50 50 51 54 55 56

GFSSW_sfc_temp_066.txt.gz
Temp
61 61 60 60 60 60 60 59 60 60 60 60 60 60 60 60 59 54 50 62 62 68 71 72 73 72 70 65 69 68 51 50 54 58 62 72 68 77 81 78 84 87 83 86 87
60 60 59 59 60 60 59 59 60 59 59 60 60 60 60 59 52 50 65 69 70 72 68 66 65 66 61 62 63 57 49 53 62 65 64 69 70 72 74 76 76 80 84 85 83
59 59 59 60 59 59 59 59 59 59 59 59 60 59 59 58 49 61 73 70 72 72 71 70 69 64 56 57 60 58 55 61 66 68 72 71 73 75 72 69 73 76 81 80 78
58 59 59 58 58 58 59 59 59 59 59 59 59 59 59 52 48 69 73 71 72 71 70 68 63 54 53 53 60 54 63 66 68 71 71 70 75 73 75 75 79 83 82 79 78
58 58 58 58 58 59 59 59 59 58 58 58 58 59 53 48 53 72 73 73 71 71 68 65 58 55 51 56 58 54 61 67 70 71 71 74 71 72 74 79 82 81 81 78 75
57 58 58 58 58 58 58 58 58 57 58 58 59 59 50 46 70 75 72 70 72 67 64 64 62 64 59 57 55 61 62 63 66 66 66 68 71 68 73 79 79 79 77 79 77
57 57 57 57 57 58 58 58 57 57 58 58 58 59 52 54 73 71 71 68 72 72 68 70 71 65 61 58 60 63 56 60 61 61 64 65 62 67 73 77 75 76 76 78 76
57 56 57 57 57 57 58 57 56 57 58 59 59 54 48 69 68 70 70 70 74 74 73 75 71 62 57 60 61 55 52 44 55 61 65 63 55 66 70 71 71 72 75 75 76
57 56 56 57 57 57 57 56 57 58 60 59 51 49 51 71 70 74 74 72 75 75 74 82 68 59 60 50 45 46 41 46 52 61 61 59 58 66 70 69 68 68 69 72 71
57 56 56 56 57 56 56 56 56 57 59 61 62 50 59 66 73 78 77 77 73 71 68 64 57 51 47 44 35 41 43 49 49 61 58 56 57 65 70 67 68 66 66 68 70
57 56 55 56 56 55 52 53 53 51 53 56 60 59 66 75 78 74 78 73 70 64 52 57 48 43 49 52 54 52 50 49 56 61 56 54 55 59 66 65 63 61 63 65 68
56 56 56 55 55 55 49 52 60 61 53 61 66 64 71 73 65 72 78 64 60 53 56 50 45 56 59 59 56 54 51 50 56 61 57 55 54 58 61 61 62 62 63 63 62
55 55 55 55 54 51 52 61 70 64 52 62 67 66 67 69 64 67 71 65 59 53 53 47 54 63 61 57 55 55 50 50 50 57 57 52 50 53 60 63 64 64 63 64 64
55 55 55 55 54 55 58 69 67 64 43 54 63 69 70 71 63 75 74 67 59 54 54 52 60 59 57 55 58 47 58 57 55 48 39 53 35 46 54 57 60 62 62 62 63
55 55 55 54 48 54 66 67 68 61 32 63 65 77 71 64 66 67 75 66 57 57 55 52 55 54 53 56 60 53 60 55 53 44 39 43 37 44 52 54 56 61 62 63 65
55 56 55 52 47 56 63 65 61 43 35 59 67 64 60 63 65 68 67 68 66 57 55 55 61 58 55 59 60 61 56 49 45 41 33 41 41 45 47 51 55 62 66 66 63
56 55 52 56 54 61 61 57 41 35 61 57 60 64 59 58 61 62 59 55 51 42 43 50 51 56 61 51 55 51 43 32 31 28 33 45 41 45 52 58 61 62 65 66 62
54 53 52 55 52 60 58 49 34 51 56 65 62 61 55 58 57 58 54 50 57 53 41 37 34 50 56 49 46 45 43 32 25 24 34 46 35 46 56 59 63 61 61 60 57
54 53 53 59 58 59 51 37 40 51 60 58 58 52 51 56 54 53 50 50 52 53 43 38 37 54 57 59 52 44 35 48 35 37 30 35 43 53 59 61 60 59 60 56 55
51 51 57 65 62 55 45 41 48 60 62 61 49 54 46 51 50 48 47 54 53 54 51 45 35 49 54 58 55 47 45 34 33 25 24 31 35 38 49 53 60 58 59 60 61
51 50 64 69 64 50 39 44 55 64 62 57 52 50 49 47 48 46 48 53 55 52 50 42 37 40 46 44 42 42 40 36 35 33 26 26 31 46 46 51 53 57 59 54 58
46 44 65 67 51 46 43 54 54 60 63 59 56 53 49 49 46 46 46 50 57 53 43 42 36 30 38 49 54 48 41 37 29 26 33 29 31 50 47 51 56 57 58 59 60
44 46 62 64 44 44 50 54 57 57 57 57 55 55 52 47 40 48 49 57 56 50 42 42 33 25 31 40 46 40 43 41 36 35 29 29 33 52 50 49 53 55 59 63 62
42 41 52 54 53 47 45 48 50 60 58 58 55 54 49 46 46 43 46 54 55 52 54 48 35 32 26 33 35 34 40 43 35 28 30 34 39 46 50 47 51 52 55 57 58
42 42 46 40 45 46 48 48 48 48 57 55 51 52 46 39 42 41 46 47 51 53 46 41 32 36 39 42 42 41 41 43 37 36 31 39 40 44 47 47 49 51 53 55 56
44 39 44 42 48 46 44 46 46 48 50 50 47 51 46 39 41 39 41 40 41 43 39 39 29 36 34 42 42 40 43 44 46 46 41 43 41 46 48 48 49 49 51 51 54
48 49 44 41 44 41 42 43 44 49 52 55 52 48 45 47 49 47 46 45 45 40 37 36 32 30 27 38 38 31 38 41 43 44 43 35 40 44 43 46 46 47 50 51 53

GFSSW_sfc_temp_069.txt.gz
Temp
60 60 60 60 59 59 60 60 59 59 60 59 60 60 60 60 59 51 47 61 60 68 69 69 69 69 67 63 64 65 49 43 51 54 60 68 64 71 76 74 78 80 78 83 82
59 59 59 59 59 59 59 59 59 59 59 60 60 60 59 59 52 47 61 68 68 70 66 64 62 65 58 59 61 57 47 51 60 62 62 65 64 67 70 71 72 75 81 81 79
59 58 58 58 58 58 59 59 59 59 60 59 59 59 59 57 48 60 72 68 70 70 68 67 64 62 52 56 57 56 53 58 62 64 66 67 68 70 67 65 70 72 76 78 76
58 58 58 58 58 58 59 59 59 59 59 58 58 58 59 51 45 67 73 70 71 69 66 63 60 52 49 51 58 51 60 61 64 68 66 65 70 69 69 70 75 78 77 76 74
58 58 58 58 58 58 58 59 59 58 58 58 58 59 52 45 52 68 73 71 69 67 64 62 56 53 47 52 53 52 58 63 66 65 65 68 66 67 70 76 77 80 78 76 74
57 57 58 58 58 58 58 58 58 58 58 58 58 59 48 45 67 71 69 67 67 63 62 62 60 61 54 54 52 57 58 60 61 61 61 62 66 65 71 75 75 77 74 75 75
57 57 57 58 58 58 58 58 57 58 58 58 58 57 48 53 69 69 68 64 66 68 65 66 65 60 57 55 56 58 53 56 56 57 58 62 59 62 68 72 72 74 74 74 74
57 56 57 57 57 58 57 57 56 57 58 59 58 52 47 65 65 65 65 67 70 70 69 70 67 61 55 57 58 52 49 42 51 57 62 59 53 63 68 67 69 71 72 74 73
57 56 56 56 57 57 57 56 57 58 59 59 49 47 49 68 65 70 70 69 70 70 69 76 65 57 56 47 43 44 39 42 49 56 58 57 52 62 65 64 64 67 68 70 71
57 56 56 56 56 56 55 56 57 57 59 59 59 48 58 63 70 74 69 72 67 67 65 63 54 49 45 43 33 39 40 45 44 52 53 54 54 59 62 62 63 62 66 67 67
57 56 56 56 56 55 51 51 52 50 51 56 58 58 64 70 75 70 73 69 67 61 50 53 46 42 47 49 51 49 45 45 51 58 52 52 53 55 60 59 60 61 60 62 64
56 56 56 56 56 55 50 53 59 57 50 59 62 61 69 69 62 67 74 62 58 51 53 48 43 52 55 54 51 49 46 46 52 57 52 51 51 55 58 60 58 59 58 61 61
56 56 56 56 55 50 51 59 65 60 48 58 62 61 63 65 59 61 68 63 56 51 50 45 52 59 56 52 50 49 46 47 47 54 54 49 47 50 56 58 62 61 58 60 61
55 55 56 56 52 52 56 64 63 61 43 52 58 63 66 66 60 71 71 64 55 52 51 48 56 55 52 51 52 43 55 53 51 45 38 49 37 45 51 55 56 59 58 59 61
55 56 56 55 47 53 63 58 59 59 33 60 61 72 66 61 63 65 70 63 54 54 52 49 51 50 50 51 54 49 56 52 51 44 37 40 35 41 47 49 53 58 60 61 60
55 56 56 51 46 52 58 59 59 42 34 58 65 61 58 60 61 66 64 65 63 54 52 52 56 53 52 56 56 57 51 47 42 38 32 40 38 42 46 49 52 56 59 61 64
55 54 53 56 55 57 58 56 41 33 58 54 57 60 56 55 58 59 56 52 49 40 40 47 49 52 56 48 51 50 38 28 28 29 33 42 37 45 51 54 55 56 57 60 63
54 52 52 55 53 58 58 49 32 49 53 61 58 57 51 53 53 55 51 46 52 49 40 38 37 48 54 49 45 41 43 32 25 24 32 42 33 45 53 57 58 58 55 55 53
52 51 51 57 56 57 53 39 39 48 57 54 56 48 47 52 51 51 46 47 50 49 39 35 36 50 53 53 50 41 35 42 34 34 30 32 40 51 56 55 55 56 56 53 54
46 47 52 61 62 57 46 42 47 58 60 57 48 51 45 48 47 46 44 51 50 53 49 43 33 47 51 52 49 42 43 30 33 26 25 29 32 36 46 48 53 52 51 52 54
44 44 58 62 61 52 41 43 52 61 60 54 51 49 48 46 48 46 47 51 53 49 48 40 36 39 44 41 38 38 36 36 35 33 26 24 29 42 43 44 47 52 54 53 51
42 40 59 61 47 44 44 51 54 58 61 57 56 52 49 48 46 45 45 47 56 52 43 40 34 29 37 45 49 42 37 37 26 29 32 30 29 49 45 46 49 51 58 59 57
39 39 55 59 38 39 48 51 55 54 54 55 52 54 51 46 40 46 47 53 53 49 42 41 31 25 30 37 43 40 40 39 34 31 28 26 28 51 49 49 48 48 52 57 62
39 36 44 48 46 42 42 46 46 56 54 56 54 54 49 46 45 42 45 51 52 51 54 47 33 32 25 32 33 31 38 38 33 28 29 33 35 44 45 47 49 47 50 50 53
45 37 39 34 43 43 45 44 44 44 53 54 50 50 47 40 42 39 43 45 49 52 43 39 32 34 36 39 39 38 38 40 34 36 30 38 37 40 42 44 46 46 49 50 50
39 41 42 36 40 41 43 41 40 43 45 45 45 49 49 40 44 41 42 39 40 42 38 36 28 34 33 40 39 37 40 41 41 43 40 40 37 42 45 46 47 47 48 48 50
43 48 43 42 41 40 40 42 42 42 46 50 49 47 45 47 49 48 46 44 44 41 37 35 31 28 28 36 35 30 37 39 38 42 39 33 38 42 42 44 45 45 47 47 49

GFSSW_sfc_temp_072.txt.gz
Temp
60 60 59 59 59 59 59 59 59 59 59 60 60 59 60 59 59 50 45 60 58 67 69 66 68 66 65 62 62 59 47 42 49 53 59 65 63 68 73 72 72 75 73 78 75
59 59 58 59 59 58 59 59 59 59 59 60 60 59 59 59 49 46 58 65 67 70 65 64 61 64 58 57 59 54 43 49 56 59 59 62 62 64 66 67 66 70 76 78 75
59 59 59 58 59 59 58 59 59 59 59 59 59 58 58 58 45 59 71 67 69 69 66 65 63 61 52 53 55 52 47 55 57 61 63 61 61 67 62 64 65 68 72 73 74
58 58 59 58 58 58 58 59 59 59 59 58 58 58 59 52 44 62 72 69 70 66 63 62 58 51 49 49 56 49 57 61 61 64 63 63 66 64 65 67 70 72 72 75 73
58 58 58 58 58 58 58 58 58 58 58 58 58 58 50 44 51 66 71 71 66 65 62 58 54 52 46 50 53 51 56 61 63 61 61 65 62 64 66 70 73 73 73 72 72
58 58 57 58 58 58 58 58 58 57 57 58 58 58 46 45 64 67 66 65 65 61 59 59 57 58 51 50 51 55 55 57 59 59 58 60 62 62 66 71 72 72 72 71 72
58 57 57 57 57 57 58 57 56 58 58 58 58 56 46 53 66 64 65 62 64 66 62 63 63 58 55 51 54 55 50 55 55 56 59 60 57 58 66 69 66 70 71 70 70
57 57 57 57 57 57 57 57 56 56 58 59 58 52 45 63 61 63 63 63 65 66 65 66 64 56 52 54 54 48 46 40 51 55 61 59 52 60 65 65 65 67 69 69 70
57 57 57 57 57 57 56 56 56 57 58 59 49 44 49 66 63 69 68 66 67 67 66 74 62 53 53 45 41 42 36 37 46 53 55 53 49 59 63 63 62 64 66 68 68
57 56 56 57 57 56 55 55 58 57 58 58 57 46 56 60 67 70 67 69 65 63 62 58 52 46 43 42 33 36 36 40 42 51 51 51 51 56 60 58 58 58 61 64 67
57 56 56 56 56 56 52 49 51 48 50 53 55 54 61 68 71 67 68 65 63 58 49 50 45 40 46 47 48 45 42 41 48 55 49 48 49 53 57 56 57 56 56 58 63
56 56 56 56 56 55 50 52 58 57 47 57 59 59 65 65 60 64 70 59 56 49 51 47 42 50 53 51 49 46 42 42 48 53 48 47 47 51 54 56 58 58 56 56 57
56 56 56 56 56 50 50 59 61 58 47 55 59 59 60 63 57 59 66 60 54 49 48 43 49 56 53 48 47 45 42 43 44 50 50 47 46 47 53 55 59 59 58 58 58
55 56 56 56 53 52 55 62 60 59 41 50 56 62 63 62 57 67 68 63 53 51 49 47 53 52 47 48 49 40 51 50 48 42 35 47 37 45 47 53 56 59 56 57 59
55 56 55 55 46 52 60 59 58 59 32 58 58 68 62 59 60 61 67 61 52 51 50 47 48 48 47 49 52 46 52 48 47 41 35 39 34 39 45 47 50 54 57 59 57
55 56 55 49 46 50 56 58 60 44 33 56 63 58 55 57 58 61 61 64 60 52 49 50 54 52 51 53 53 53 46 43 38 36 30 40 36 42 48 46 49 54 56 58 58
55 54 52 54 52 55 56 57 43 35 56 53 56 60 54 51 55 55 53 48 47 39 39 45 48 51 54 45 48 45 36 27 25 25 31 40 35 43 51 52 54 54 55 54 53
54 52 51 52 51 54 57 49 34 47 51 60 57 56 51 53 53 54 50 45 48 45 38 37 36 48 53 47 41 38 38 27 19 24 32 40 32 43 51 54 56 56 53 52 51
52 47 47 52 52 51 51 40 40 47 55 54 54 49 48 52 51 49 44 45 48 47 38 35 37 50 52 51 47 38 33 37 32 35 29 31 38 48 51 49 51 52 52 51 51
44 43 51 56 55 52 44 41 47 56 58 55 46 52 46 47 46 44 43 50 49 50 47 40 33 45 49 49 45 40 43 32 33 25 21 29 31 36 43 44 48 48 50 50 52
42 45 56 57 56 47 37 44 51 59 57 53 50 48 49 47 47 44 46 50 52 47 46 40 36 37 41 39 37 35 32 34 35 32 25 24 30 42 42 44 44 47 49 49 51
40 43 56 58 49 38 38 46 52 53 57 54 54 52 49 48 46 46 45 47 53 50 42 40 34 30 36 43 45 40 36 33 24 21 27 22 29 50 46 48 47 47 49 51 50
37 37 51 53 41 39 42 48 52 51 50 53 51 52 51 47 41 46 47 52 53 48 42 41 32 25 31 36 40 35 38 36 33 29 27 21 29 47 48 46 46 45 48 49 51
39 36 41 43 42 39 37 41 43 53 50 52 51 51 48 45 47 43 44 50 52 50 54 47 32 32 27 32 32 31 36 36 32 21 29 30 34 43 47 42 44 44 46 49 50
41 35 37 31 37 38 39 41 42 41 50 48 46 48 44 39 43 42 43 44 48 52 43 39 32 33 35 37 37 37 36 37 31 34 29 35 36 42 41 42 43 45 47 48 49
37 36 39 36 41 39 42 41 42 43 40 39 39 45 45 39 43 40 41 38 39 42 37 36 29 32 31 38 37 35 38 38 38 37 36 36 34 44 46 45 45 44 46 46 48
44 44 41 40 40 39 40 43 42 42 43 45 42 41 41 46 49 49 46 44 43 40 35 33 31 27 27 34 33 28 35 38 38 39 40 32 36 40 39 41 42 43 45 45 46

GFSSW_sfc_temp_075.txt.gz
Temp
60 60 60 59 59 59 59 59 59 59 60 60 60 60 60 60 59 57 54 68 65 66 69 73 73 73 75 72 73 71 61 59 61 60 65 70 69 76 81 78 81 83 84 87 87
60 59 60 59 59 59 59 59 59 59 59 60 59 59 59 59 56 52 65 65 67 69 69 71 69 71 69 69 70 68 59 60 65 68 66 69 70 72 74 75 76 80 86 88 83
59 59 59 59 59 58 58 59 59 59 59 59 59 59 58 59 51 67 72 66 68 71 74 75 73 71 66 67 66 64 60 63 66 70 71 69 69 75 72 69 76 76 82 87 87
59 59 59 58 59 58 58 59 59 59 59 59 58 58 59 54 58 72 72 68 69 71 74 72 70 66 63 63 66 61 64 67 70 72 71 69 74 70 73 73 80 81 83 84 84
58 59 58 58 58 58 58 58 58 58 58 58 58 58 56 53 61 72 71 70 71 70 72 69 68 66 63 64 64 62 63 67 69 70 69 71 68 70 73 78 81 81 81 81 83
58 58 58 58 58 58 58 58 57 58 58 58 58 58 53 55 73 72 72 70 72 71 70 71 70 70 66 64 64 65 65 66 67 68 69 66 69 70 73 79 78 79 80 83 83
58 58 58 58 58 58 58 57 57 57 58 59 59 58 52 62 73 72 72 71 73 73 69 71 73 69 68 63 67 65 61 64 67 68 67 69 65 63 73 77 75 78 81 81 82
58 57 57 58 58 58 57 57 56 57 57 59 59 57 56 70 71 69 72 71 72 74 73 75 74 70 67 68 64 61 59 56 64 65 69 66 59 69 73 71 72 75 78 78 81
57 57 57 57 58 58 57 56 56 57 58 60 55 54 59 71 68 75 74 72 72 72 73 76 72 65 66 61 58 57 54 52 57 66 64 64 60 68 73 71 69 70 74 76 78
57 57 57 57 57 57 55 55 58 58 60 60 59 52 64 66 73 73 73 75 71 71 68 67 65 62 61 59 49 50 51 52 53 63 63 61 60 66 70 70 69 70 72 74 74
57 57 56 56 56 56 55 56 58 55 55 61 63 62 66 73 75 72 72 71 71 67 61 62 59 54 58 59 58 55 52 52 58 63 58 59 60 63 69 69 69 71 70 72 74
57 56 56 56 56 55 54 58 65 65 55 61 62 63 67 70 62 69 75 67 64 59 60 59 54 61 61 59 56 55 52 54 58 62 58 60 59 65 66 68 71 72 72 72 73
56 56 56 56 55 53 55 62 68 67 57 60 62 61 64 68 62 65 72 67 62 58 58 55 58 60 58 57 54 56 52 54 53 58 61 58 56 61 66 67 70 73 73 73 73
55 55 56 55 54 57 59 66 67 65 51 56 60 64 65 67 62 72 74 70 62 58 57 57 62 58 56 55 57 51 59 56 54 52 48 57 44 57 63 64 68 70 73 74 73
55 55 55 55 53 58 63 65 67 64 39 61 62 72 67 64 66 65 73 69 60 59 58 56 57 56 55 57 59 55 59 56 55 52 51 53 47 55 61 59 63 67 71 74 75
55 55 54 53 52 58 62 64 65 50 38 57 63 60 59 63 65 67 66 71 67 61 59 59 63 61 60 60 59 59 56 55 52 51 42 51 49 52 57 60 64 68 70 72 74
54 54 52 56 59 61 63 65 49 41 59 54 56 61 60 59 60 62 60 58 56 50 51 57 57 61 61 56 57 55 51 43 41 42 41 51 46 51 59 62 64 65 69 71 67
53 52 53 56 59 60 64 58 40 49 51 60 59 59 54 58 57 58 56 54 56 54 51 46 44 54 58 56 52 51 49 40 30 35 40 49 40 51 61 61 61 63 64 64 65
52 54 57 61 58 59 62 47 46 50 56 54 56 51 51 54 55 55 53 53 55 56 48 45 44 55 56 57 56 47 44 48 40 43 36 44 49 57 58 56 58 60 61 62 64
49 51 59 62 61 62 56 45 51 56 57 56 47 53 46 51 48 51 52 56 54 56 57 51 43 51 53 57 53 51 53 39 38 28 30 41 43 45 50 52 56 56 58 59 62
53 56 64 62 62 59 49 49 53 59 57 51 51 50 51 49 51 50 51 55 57 53 56 53 48 46 50 49 49 46 44 43 40 34 30 31 41 52 51 53 54 57 57 58 59
50 53 63 62 54 49 47 50 51 55 58 54 54 54 51 51 49 48 49 52 58 56 50 49 47 41 46 51 52 51 46 46 35 32 33 32 37 58 57 54 55 55 55 56 60
46 47 60 60 46 45 48 50 54 52 52 51 49 54 55 50 45 49 51 57 56 54 50 50 43 37 41 45 48 45 47 47 44 40 33 30 39 57 56 57 58 56 56 57 58
50 45 52 52 49 44 42 44 45 53 51 53 51 54 51 49 51 47 47 54 56 56 54 52 46 42 37 43 45 40 45 47 44 34 38 39 43 50 52 53 56 56 56 57 58
50 42 44 41 45 43 42 45 43 43 49 50 45 49 45 42 44 45 49 51 53 53 50 49 42 43 45 46 46 44 44 45 42 43 36 42 43 48 51 52 53 54 55 56 56
49 47 47 44 45 43 43 43 43 43 42 41 39 43 44 38 43 41 47 48 47 50 47 45 40 42 40 46 46 42 45 46 45 45 44 44 41 52 53 54 53 53 54 53 55
48 50 46 43 43 40 42 41 40 42 43 46 44 40 39 43 48 51 52 51 52 49 46 45 42 39 36 42 42 39 43 43 44 45 44 38 48 52 49 49 50 51 52 52 54

GFSSW_sfc_temp_078.txt.gz
Temp
61 60 60 60 60 59 59 59 59 60 60 60 60 60 61 60 59 68 66 74 73 70 68 81 82 82 85 83 84 84 70 68 72 70 71 78 79 88 89 85 88 91 90 94 95
60 60 60 60 60 59 59 59 59 59 60 60 60 60 59 59 65 68 76 68 69 68 78 80 77 80 78 79 80 77 70 71 76 75 72 76 79 82 81 82 84 87 94 96 95
60 60 60 60 59 59 59 59 59 59 60 60 60 59 59 62 65 77 71 68 68 71 84 83 83 80 75 79 77 76 71 76 73 74 77 77 78 83 79 77 84 84 88 93 94
59 60 60 59 59 59 59 59 59 59 59 59 59 59 59 65 65 79 72 68 69 82 82 80 80 75 73 71 77 68 74 76 76 77 76 74 79 77 79 81 87 88 89 90 90
59 59 59 59 59 59 59 59 59 59 58 58 58 59 63 66 73 81 70 71 77 80 80 79 76 76 72 75 73 70 72 75 78 76 77 77 74 75 78 84 87 88 88 89 90
58 58 59 58 59 59 58 58 58 57 58 58 59 58 64 63 82 82 81 80 82 81 80 81 78 79 75 74 73 74 73 74 75 77 77 73 75 77 80 84 85 85 86 89 91
58 58 58 58 59 59 59 57 57 57 58 59 59 64 63 70 82 83 82 82 83 82 78 81 81 77 77 71 76 74 68 73 74 76 74 78 71 71 80 82 81 83 86 88 90
58 57 58 58 58 58 58 57 57 57 58 59 60 66 64 81 84 79 83 80 82 83 82 83 82 78 76 76 72 69 69 66 75 73 75 72 65 76 81 79 78 81 83 85 88
58 57 57 58 58 58 57 56 57 58 59 60 63 64 68 74 75 83 83 78 81 81 81 81 80 75 74 69 66 68 63 64 67 75 73 72 67 75 78 78 77 79 81 84 86
57 57 57 57 57 57 56 56 57 59 62 67 67 59 73 73 79 80 84 82 77 77 73 73 74 69 71 67 58 62 61 63 62 70 72 70 69 75 79 78 77 79 80 82 84
57 57 57 57 57 56 58 66 62 60 63 68 70 69 74 79 81 78 81 79 78 74 66 72 66 62 67 68 67 64 61 61 65 71 68 66 68 72 77 78 77 79 79 81 82
57 57 56 56 56 55 64 68 73 73 64 73 70 72 75 76 69 76 82 72 70 64 70 66 61 69 69 68 64 63 61 61 66 70 68 66 66 72 75 76 78 78 79 81 83
56 56 56 56 55 58 68 71 78 77 66 68 69 68 71 74 69 72 77 75 68 65 66 63 66 68 65 64 61 63 61 61 61 66 68 66 64 68 75 77 78 79 81 82 82
55 55 55 55 57 70 70 76 79 77 61 63 66 68 70 73 66 79 81 75 70 65 67 65 71 66 64 62 65 59 67 63 61 60 55 67 52 64 70 72 75 77 79 81 83
55 55 55 54 62 68 72 78 79 72 47 66 67 79 73 68 70 71 81 75 66 66 65 63 64 63 62 63 66 61 66 63 62 59 59 60 57 63 71 68 72 76 78 80 81
55 55 54 61 63 70 75 76 73 57 45 62 68 66 65 67 69 72 71 76 74 68 68 67 72 68 67 67 66 68 64 64 63 61 50 59 58 61 65 66 68 72 75 77 80
54 54 57 67 70 74 75 72 56 51 64 58 61 65 64 62 64 67 65 63 61 55 57 64 66 70 68 63 67 63 59 50 49 52 50 62 55 59 66 67 66 67 70 74 75
53 52 56 69 73 72 73 64 47 55 57 64 63 64 59 61 61 62 61 60 64 62 58 53 51 62 66 63 61 61 57 48 36 42 49 58 49 59 67 67 67 68 69 71 71
51 72 75 73 72 72 68 55 53 56 59 59 62 57 57 57 54 54 56 58 62 63 53 52 50 61 62 64 63 58 52 59 48 50 44 52 59 66 68 63 65 66 67 67 68
62 69 71 75 73 70 64 50 57 61 62 62 54 58 52 54 53 50 50 61 59 63 64 58 49 60 61 63 61 59 62 47 49 34 37 49 50 54 59 63 65 64 66 68 70
64 67 72 76 73 68 57 57 59 63 63 57 56 55 56 55 57 52 52 59 61 61 64 61 54 53 57 57 57 57 53 52 49 44 35 37 48 62 61 63 63 65 67 67 67
63 63 73 74 62 66 60 56 53 60 64 60 59 58 56 57 55 55 52 55 62 61 55 60 55 47 53 62 61 59 54 55 42 39 42 38 43 65 63 64 65 65 68 69 67
61 63 74 71 56 61 58 55 58 57 57 56 54 57 60 55 48 53 55 60 62 60 55 57 51 44 49 54 56 52 55 55 54 49 40 36 45 65 66 65 66 64 67 67 64
62 58 65 65 61 52 50 53 52 58 56 57 55 58 56 53 58 52 53 57 61 60 55 57 52 48 45 50 54 47 51 55 52 39 45 47 51 59 61 61 63 63 63 64 64
61 53 54 54 57 51 51 51 49 46 51 54 48 51 50 47 52 52 55 54 59 58 57 55 46 51 53 54 54 52 52 53 51 52 44 50 52 57 61 60 60 63 64 64 64
57 55 60 56 51 48 47 48 44 42 42 42 46 48 45 41 49 46 49 51 50 57 55 55 44 49 47 53 53 50 54 54 54 54 53 53 52 61 61 60 59 60 60 60 61
62 62 55 49 48 46 46 43 43 45 47 48 48 42 42 45 48 49 51 54 54 50 51 51 49 47 42 50 50 46 52 51 52 55 50 43 54 59 57 57 56 56 57 57 59

GFSSW_sfc_temp_081.txt.gz
Temp
61 61 61 61 60 60 60 60 60 60 60 61 61 61 61 60 60 68 68 79 79 71 71 85 85 86 88 86 90 91 76 72 75 74 80 90 83 88 92 90 92 94 94 98 100
61 61 61 60 60 60 60 59 60 60 60 60 60 61 61 60 66 71 81 72 71 69 79 82 81 83 81 83 86 81 73 76 84 84 83 88 82 83 84 86 87 89 97 100 101
60 61 60 60 60 59 60 60 60 60 60 60 60 59 59 62 70 81 74 71 69 73 83 89 88 84 79 84 83 80 74 83 85 82 81 80 82 85 81 80 86 86 92 97 98
59 60 60 59 60 60 59 60 60 60 60 59 59 59 59 69 67 83 72 71 69 81 83 84 84 79 77 76 84 75 81 83 85 83 80 77 83 81 83 84 89 90 93 93 93
59 59 59 59 59 59 60 59 59 59 59 59 59 59 65 72 77 83 72 72 81 83 83 82 81 80 76 80 81 77 80 81 83 84 83 82 78 78 81 88 90 90 90 90 91
58 59 59 59 59 59 59 59 58 58 59 59 59 59 67 68 89 89 87 83 86 85 85 86 83 85 81 80 78 81 80 80 81 82 83 79 78 78 81 88 87 88 88 91 92
58 58 58 59 59 59 59 58 58 58 58 59 60 66 70 75 89 90 88 86 89 87 83 88 88 80 83 77 83 79 74 77 79 80 78 82 75 75 83 86 84 85 86 90 91
58 58 58 58 58 58 59 58 57 58 58 59 60 69 68 88 92 87 90 87 89 89 88 88 88 84 81 83 77 74 74 68 79 80 80 77 68 82 85 82 79 81 85 86 89
58 57 58 58 58 58 58 57 57 58 59 60 63 67 70 76 80 88 89 83 86 86 86 86 84 79 80 72 70 72 66 69 74 81 78 76 70 81 84 82 78 80 81 84 85
58 57 57 57 57 57 56 56 58 59 62 69 72 63 75 76 84 86 89 86 81 81 79 78 77 73 74 72 61 67 68 71 69 77 78 74 73 80 83 83 82 82 82 82 83
58 57 57 57 57 56 58 67 65 64 68 71 74 73 77 84 86 81 86 82 82 77 68 75 69 66 72 74 74 71 68 67 73 76 72 71 72 76 81 81 81 82 83 84 83
57 57 57 56 56 56 61 71 78 80 68 78 77 78 82 81 74 79 85 74 73 67 72 71 64 73 76 74 70 68 66 66 72 75 72 70 70 76 79 80 81 81 82 84 86
56 56 56 56 56 60 73 76 85 84 68 74 77 76 77 80 72 75 80 76 71 67 70 66 72 73 70 70 66 67 65 66 66 71 73 69 66 70 78 82 83 83 84 85 85
56 56 56 56 55 79 75 82 86 83 61 66 71 75 76 78 68 81 81 78 73 67 71 70 76 71 69 66 70 62 72 69 66 63 58 72 55 68 74 76 79 81 83 84 85
56 56 55 54 64 75 77 84 84 77 45 71 72 85 80 74 75 75 83 77 68 69 69 67 68 67 65 68 70 65 72 67 66 63 62 63 60 67 75 72 77 78 80 81 83
55 56 55 64 67 78 83 82 78 58 47 64 73 71 71 74 74 75 75 80 78 70 71 70 77 73 72 74 72 72 68 67 67 65 54 63 63 65 70 71 73 75 77 77 80
55 54 56 74 76 83 83 77 59 54 68 62 66 71 71 68 69 70 67 65 63 56 56 64 68 75 75 67 72 69 62 53 52 53 53 67 62 65 72 73 71 70 72 75 77
54 52 62 77 83 81 78 67 49 61 62 68 68 68 64 68 67 66 63 60 67 65 59 53 51 64 72 66 64 65 60 50 39 45 52 63 54 63 74 74 72 73 74 75 75
52 77 80 84 82 81 71 57 59 62 64 63 66 61 61 63 63 61 61 59 63 64 54 53 53 67 68 70 68 61 56 64 53 56 49 56 62 71 75 70 71 68 72 73 72
64 74 79 81 82 76 67 56 63 66 66 66 57 63 57 57 58 57 56 61 60 64 67 59 50 64 66 67 68 63 68 52 55 39 40 53 54 58 63 64 68 70 72 73 74
65 70 78 82 80 71 60 63 64 70 67 61 59 58 59 58 59 57 56 61 65 63 65 60 54 56 62 59 59 59 58 58 55 50 39 40 51 67 64 66 66 69 71 73 74
70 66 79 82 65 72 65 63 54 66 68 62 63 60 56 59 56 57 57 60 66 65 56 60 54 48 55 66 67 65 60 59 48 45 48 45 47 69 68 69 70 71 73 74 72
66 70 81 77 60 66 66 63 64 62 61 59 57 61 63 56 52 58 60 65 65 62 55 59 52 44 49 60 63 57 61 61 58 56 46 40 49 70 70 69 71 71 72 72 71
67 63 72 75 70 59 59 59 59 63 62 62 58 60 57 55 58 55 57 61 64 63 58 59 53 49 43 51 56 53 58 60 57 46 49 51 54 62 65 66 68 67 69 69 68
70 61 60 61 63 58 58 58 56 53 59 60 56 55 50 49 52 54 58 58 61 61 60 57 46 52 55 58 59 58 57 58 56 57 49 55 56 61 64 63 64 66 64 63 63
61 61 68 62 58 56 52 53 51 50 51 51 50 50 53 48 49 45 50 54 53 58 57 57 44 51 50 57 58 55 58 59 59 59 58 58 56 67 67 67 63 61 58 59 60
69 67 63 56 57 56 57 50 51 52 54 55 52 47 49 53 54 57 57 54 53 50 51 49 47 46 43 55 56 49 56 58 59 60 58 51 58 64 61 58 57 56 55 55 55

GFSSW_sfc_temp_084.txt.gz
Temp
61 61 61 61 61 60 60 60 60 61 61 61 61 61 61 61 60 65 64 76 77 72 72 81 84 83 83 79 85 87 71 67 71 74 77 86 84 90 93 87 91 95 93 96 99
61 61 61 61 61 60 60 60 60 60 60 61 61 61 60 60 62 66 79 73 72 72 79 78 79 81 77 77 81 78 70 70 80 82 81 85 85 87 83 83 84 88 94 97 100
60 60 60 60 60 60 60 60 60 60 61 60 60 60 60 61 64 78 75 72 72 73 81 84 85 83 75 79 78 78 71 79 81 86 87 84 83 86 81 77 84 83 89 94 96
60 60 60 60 60 60 60 61 60 60 61 60 60 59 60 64 63 81 75 72 71 80 80 80 81 77 74 72 81 73 79 80 83 87 84 80 83 80 82 81 87 90 90 91 90
59 59 59 59 59 59 60 60 60 59 59 59 59 60 63 66 72 82 74 72 78 79 79 79 78 78 73 77 79 76 79 82 84 85 83 83 79 79 79 86 89 90 89 87 87
58 59 59 59 59 59 59 59 59 59 59 59 60 59 62 62 91 86 86 81 86 83 82 83 81 84 79 79 77 81 80 81 83 82 82 79 79 80 81 85 85 86 85 87 87
58 58 58 58 59 59 59 58 58 58 59 59 60 65 64 69 91 92 88 85 89 87 83 88 88 82 82 76 84 82 74 78 79 80 78 82 74 75 83 84 82 84 86 87 88
58 58 58 58 58 58 58 58 57 58 58 59 60 66 62 88 92 89 90 87 91 90 88 90 88 82 80 83 79 74 74 65 77 79 80 78 65 79 86 83 79 81 83 85 87
58 57 58 58 58 58 57 57 57 59 59 60 61 65 65 80 80 88 90 83 87 87 87 89 85 77 78 71 67 70 61 66 71 82 79 76 68 79 85 81 78 79 78 82 84
58 57 57 57 57 57 56 56 60 58 61 67 71 65 73 74 84 86 89 87 82 82 79 77 75 70 71 68 57 63 64 69 69 77 77 73 72 79 83 82 80 80 80 79 79
58 57 57 57 57 56 57 68 60 59 66 69 71 72 79 85 87 81 85 82 81 77 67 74 66 62 68 72 72 71 68 67 73 79 74 72 72 76 81 81 80 80 81 81 80
57 57 57 56 56 56 56 63 77 79 67 76 74 78 83 85 74 78 86 72 71 65 71 68 63 72 76 75 72 70 65 65 71 76 73 70 69 75 78 79 80 80 80 82 83
56 56 56 56 56 57 64 74 85 84 67 74 80 77 79 82 74 76 79 74 68 65 67 64 69 77 72 70 67 67 64 65 65 72 74 69 65 69 76 79 81 82 83 83 82
56 56 56 55 55 75 73 84 87 85 59 66 71 76 79 80 71 84 83 76 69 63 68 67 75 72 70 67 69 61 72 70 67 64 56 70 53 65 72 75 79 81 82 83 83
56 56 55 54 60 75 80 86 86 77 40 69 73 85 81 73 76 75 85 76 66 67 68 65 69 68 67 68 73 65 73 68 66 62 60 61 57 64 73 70 75 75 77 76 78
55 56 55 66 64 77 85 85 78 56 42 65 74 71 70 73 74 77 76 80 78 69 69 68 76 72 71 74 74 73 68 66 65 61 50 59 59 61 67 70 72 74 75 75 77
55 55 55 70 74 86 85 76 55 50 71 63 66 72 70 68 70 71 68 66 62 56 57 64 67 72 74 67 72 69 61 49 48 48 47 64 56 62 71 73 73 72 74 75 76
54 53 63 74 82 84 77 64 47 62 65 71 69 70 65 70 68 69 66 62 68 64 58 52 49 65 70 65 63 64 61 50 39 43 49 62 53 61 74 76 74 74 74 75 75
52 74 74 81 84 81 69 51 55 62 68 65 67 62 64 66 65 64 63 61 65 67 52 52 52 65 69 72 68 61 56 63 52 55 48 54 61 70 74 70 70 70 71 72 74
59 68 76 84 84 75 63 55 64 70 69 67 58 64 59 60 58 59 59 65 62 67 67 57 47 62 63 68 68 63 67 51 54 38 38 50 53 57 62 65 69 70 71 72 75
62 66 79 85 81 69 58 59 67 73 69 62 60 59 61 59 59 58 57 64 66 65 67 60 53 53 60 57 56 59 56 57 55 50 39 39 48 67 63 66 66 69 71 73 75
64 63 81 83 64 68 64 65 57 67 71 66 64 61 58 59 56 58 58 60 67 67 58 60 52 46 53 64 67 64 59 58 44 43 49 46 47 67 68 69 70 70 73 73 72
60 69 81 77 58 62 62 67 68 65 65 63 59 62 63 56 51 58 61 67 67 64 58 59 49 42 48 57 63 58 61 61 58 55 46 41 47 69 69 69 71 67 69 70 68
60 62 71 73 71 61 59 61 62 67 64 64 61 63 58 55 59 54 58 63 66 64 59 59 52 47 42 46 50 49 56 60 57 46 48 50 54 62 65 66 67 66 66 65 64
60 62 63 59 62 60 60 60 58 58 63 62 58 54 52 49 51 52 54 52 60 61 61 57 47 51 54 56 56 55 56 58 55 56 49 54 56 61 63 63 63 63 62 61 60
58 58 63 61 63 58 56 58 55 56 55 54 51 52 52 50 49 47 50 51 51 57 57 59 46 50 47 54 56 54 58 59 59 59 58 58 56 65 64 63 60 59 58 57 57
63 68 61 57 60 57 59 56 55 57 58 58 53 50 49 52 55 57 57 57 56 52 50 49 46 43 40 52 53 47 56 58 56 59 57 50 56 60 58 57 56 55 55 54 54

GFSSW_sfc_temp_087.txt.gz
Temp
61 61 61 61 60 60 61 60 60 61 61 61 61 61 61 60 60 58 53 64 67 72 73 73 74 75 72 65 70 70 56 53 58 61 67 76 74 83 87 83 86 87 84 85 89
61 61 61 60 60 60 60 60 60 60 60 61 60 60 60 60 54 54 67 73 73 72 71 70 68 73 63 63 64 59 53 58 67 70 69 74 78 80 80 80 79 83 88 91 90
60 60 60 60 60 60 60 60 60 61 60 61 60 60 59 59 53 65 74 72 72 72 75 74 74 69 61 63 63 63 57 67 71 75 77 77 78 83 79 72 77 78 83 86 86
59 60 60 60 59 59 60 60 60 60 60 60 60 60 60 56 52 71 73 74 72 75 74 71 69 59 56 58 66 57 68 71 73 77 76 73 76 73 75 73 81 83 84 83 82
59 59 59 59 59 59 59 59 59 59 60 59 60 60 57 53 58 76 73 72 73 73 70 68 64 62 58 63 65 62 68 73 76 76 73 78 70 68 72 80 81 83 83 82 80
58 58 59 59 59 59 59 58 58 58 59 59 59 59 53 50 78 77 76 72 77 71 69 69 68 71 66 65 62 69 70 72 72 72 73 68 70 68 73 81 81 80 78 79 81
58 58 58 58 58 59 58 58 57 57 59 59 59 60 57 57 80 79 78 74 77 78 74 77 77 71 69 63 72 73 65 70 71 69 67 70 65 66 74 77 77 77 79 80 81
58 58 58 58 58 58 58 57 57 58 59 59 60 57 51 76 76 78 78 79 82 82 82 82 80 70 65 70 70 64 61 50 63 69 72 68 55 70 75 72 71 75 77 78 77
58 57 57 58 58 58 57 56 57 58 60 59 55 52 55 78 74 81 82 80 81 82 81 87 75 65 67 58 53 57 48 53 59 71 70 64 58 70 74 72 69 70 72 76 76
58 57 57 57 57 57 56 56 58 57 59 62 63 53 63 68 78 81 82 83 79 78 74 71 64 56 55 50 42 49 51 56 59 68 70 62 61 68 71 72 70 68 70 71 72
58 57 57 57 57 56 54 54 52 51 57 57 60 65 74 79 84 79 81 78 77 71 59 65 53 48 55 61 63 62 60 58 65 73 67 61 60 65 68 66 65 66 69 69 70
57 57 57 56 56 56 53 50 63 67 58 63 70 68 77 80 72 76 81 68 65 57 64 60 52 63 68 68 65 64 57 55 62 69 62 60 59 63 67 67 67 68 68 69 70
56 56 56 56 56 52 52 59 72 74 56 67 70 69 73 76 71 71 75 70 63 59 60 56 63 71 68 64 62 59 55 56 57 64 63 59 54 59 67 68 71 71 71 71 70
56 56 56 56 53 61 60 72 71 72 48 62 69 73 76 75 67 80 79 70 65 59 62 61 69 68 66 63 64 53 65 65 63 54 44 59 39 54 61 63 68 72 63 65 66
56 56 56 55 50 55 70 75 74 66 37 67 70 80 76 68 71 72 80 71 61 62 61 59 63 63 63 65 68 60 66 62 60 52 48 52 43 51 59 60 62 62 65 63 64
55 56 56 57 53 60 68 74 67 47 38 63 70 67 65 68 71 73 72 73 71 62 63 63 71 68 66 70 70 71 61 58 53 48 38 50 48 49 57 60 61 63 65 66 66
55 55 53 59 57 70 71 63 47 42 66 61 64 67 64 63 66 67 63 58 52 47 48 59 61 66 70 62 66 62 50 36 33 34 38 52 45 50 62 65 66 62 63 65 65
54 53 55 61 65 68 63 52 39 57 61 70 68 67 61 67 63 66 62 55 62 59 49 45 44 60 67 61 57 57 53 36 31 31 38 54 45 53 65 65 65 65 64 65 63
53 58 61 67 69 67 55 45 47 58 65 62 63 58 57 63 60 61 58 55 60 61 49 43 47 64 67 67 63 56 50 57 43 45 35 45 54 61 63 61 63 62 63 59 61
49 54 61 74 72 63 50 47 56 67 67 64 53 59 54 56 54 57 54 61 59 62 60 52 41 57 63 63 63 58 61 42 42 32 29 43 47 47 52 55 59 58 57 59 61
49 53 68 75 70 55 44 54 59 70 68 60 56 53 54 54 55 53 54 61 63 61 58 53 45 47 54 53 52 53 49 51 44 38 30 30 39 55 53 53 53 57 59 57 58
52 49 71 71 52 54 51 54 59 67 68 64 60 57 53 53 50 51 52 58 64 63 54 55 45 38 47 58 64 60 53 51 36 35 39 33 39 58 55 57 59 56 58 57 57
47 53 69 67 46 51 57 59 62 64 62 60 56 58 57 50 45 52 54 63 64 61 52 52 40 32 39 49 53 52 56 55 49 43 37 27 34 60 61 58 56 53 54 57 58
49 48 59 60 59 53 51 54 57 66 62 61 56 57 51 48 51 49 52 58 61 61 59 55 43 39 33 42 44 41 49 52 49 32 38 40 44 52 52 51 52 52 53 53 54
51 51 54 47 53 53 52 54 54 53 58 57 52 52 48 45 48 46 51 52 57 58 54 48 37 43 47 51 52 51 51 53 49 49 40 45 46 47 48 49 50 51 52 52 52
47 49 53 50 54 53 51 51 52 53 52 50 49 50 47 41 46 41 46 47 46 52 47 47 36 42 41 50 51 48 53 54 55 55 52 49 45 49 51 52 50 49 49 49 49
56 56 50 50 51 50 51 53 53 53 55 55 50 47 47 50 52 49 48 48 47 46 45 42 38 36 32 47 48 40 50 53 55 49 48 38 41 49 47 48 46 47 48 47 48

GFSSW_sfc_temp_090.txt.gz
Temp
61 61 61 61 60 60 60 60 60 61 61 61 61 60 60 60 59 54 48 62 62 68 71 69 68 67 66 60 62 61 46 42 45 52 55 68 64 75 84 84 85 86 81 83 84
60 61 60 60 60 60 60 60 60 60 61 61 61 60 60 60 52 48 63 68 69 71 68 66 62 66 57 57 57 53 43 48 58 60 58 66 67 73 75 79 78 78 84 87 86
60 60 60 60 60 60 60 60 60 60 60 61 60 60 60 58 48 60 73 69 70 71 71 69 67 63 54 56 57 53 52 58 62 66 68 68 71 77 73 69 78 78 79 82 80
59 60 60 60 59 59 59 60 60 60 60 60 59 59 60 53 50 70 74 70 72 70 69 66 62 53 52 53 58 51 61 64 66 69 68 64 74 71 71 76 83 86 81 79 78
58 59 59 59 59 59 59 59 59 59 59 59 59 59 54 49 54 72 73 72 71 69 66 63 58 57 53 56 58 55 62 66 68 69 69 71 70 72 69 76 80 83 78 80 77
58 58 59 59 58 59 59 58 58 58 58 59 59 59 51 47 70 75 71 69 71 66 63 62 63 64 60 60 58 62 64 66 68 67 67 69 70 68 73 74 75 78 78 79 79
58 58 58 58 58 58 58 58 57 57 58 59 59 58 51 54 73 72 71 66 70 71 68 70 70 64 62 60 64 66 58 64 67 65 64 71 64 64 71 72 73 76 77 78 76
58 58 58 58 58 58 58 57 57 57 58 60 59 57 48 68 68 68 69 71 74 74 74 76 73 66 62 63 64 58 55 48 59 65 68 66 57 67 71 68 67 71 75 76 75
58 57 57 58 58 58 57 57 57 58 60 60 54 49 49 70 66 73 75 73 75 75 75 82 71 63 62 53 49 50 45 48 56 63 62 61 56 67 70 68 66 66 70 73 73
58 57 57 57 57 57 56 56 57 57 59 60 60 50 57 65 73 77 77 78 74 73 70 66 62 54 50 48 40 45 47 52 53 66 66 61 60 65 66 68 67 64 68 69 71
58 57 57 57 57 56 53 48 49 48 51 53 57 57 66 73 79 74 78 75 73 67 56 60 51 46 52 55 56 55 53 51 58 66 61 58 62 63 63 63 63 62 64 65 67
57 57 57 56 57 56 53 46 57 59 52 58 63 64 72 73 67 73 77 65 63 55 58 53 48 58 62 61 59 57 54 53 58 65 59 59 59 63 63 64 64 65 63 63 65
56 56 56 56 56 51 48 52 63 65 51 63 64 63 67 70 66 67 72 66 60 55 55 51 57 65 63 60 57 56 53 53 54 60 58 55 51 55 63 64 67 64 64 64 62
56 56 56 56 52 51 52 63 61 63 44 56 62 67 71 70 64 76 75 67 61 56 57 55 64 62 61 59 60 51 62 60 57 50 43 54 38 49 57 59 60 61 58 60 62
56 56 56 56 47 48 64 61 66 61 36 64 63 76 72 65 67 67 76 67 57 58 58 55 57 58 57 62 66 57 63 59 56 48 43 48 40 46 54 52 55 57 59 58 60
55 56 56 52 48 53 60 61 60 45 36 60 68 64 62 65 67 69 68 69 68 59 58 58 66 62 61 66 66 66 60 54 49 44 36 44 44 42 49 53 55 57 60 62 61
55 55 54 56 50 59 58 58 42 39 63 59 60 63 59 58 62 63 60 56 51 45 45 55 56 61 66 58 62 58 47 34 34 34 34 47 43 45 55 60 59 58 60 62 62
54 53 51 55 53 55 57 49 35 52 58 66 64 62 56 60 60 62 57 50 55 52 46 43 42 56 64 57 53 52 47 36 31 31 38 49 42 48 61 63 61 62 61 61 59
52 48 50 57 58 57 52 39 43 53 63 60 60 54 52 60 59 59 55 53 57 57 46 42 44 61 62 62 59 52 46 53 42 44 36 44 50 56 59 59 59 59 59 57 56
47 45 51 64 63 56 47 43 53 62 65 61 49 54 48 51 51 51 51 59 58 60 57 48 40 53 59 60 59 55 60 39 39 31 30 42 46 46 50 53 58 56 51 51 52
44 45 61 66 65 51 41 46 57 65 65 58 52 49 50 49 49 49 52 57 58 57 55 48 43 44 51 49 48 48 48 48 43 39 28 31 40 54 53 51 47 48 50 49 50
43 42 63 65 50 48 45 55 58 58 64 61 57 53 49 49 47 47 49 53 61 58 50 49 41 35 43 53 59 53 51 49 36 34 34 31 37 58 52 51 49 48 50 49 49
39 42 60 63 44 45 53 58 60 60 60 58 53 54 52 46 41 49 51 57 59 55 49 49 39 31 38 44 48 44 52 51 47 39 36 30 37 54 51 48 48 46 46 49 51
41 40 50 54 53 49 49 52 54 60 57 57 53 53 48 45 46 45 47 54 58 59 59 54 41 37 33 38 44 43 48 49 46 32 37 39 44 44 45 44 45 45 46 46 47
43 43 48 43 48 48 50 51 51 50 55 54 48 47 44 38 42 42 46 49 53 56 50 44 36 40 44 47 48 47 48 50 47 47 38 46 40 41 43 43 42 44 46 46 47
42 42 47 45 49 48 48 49 49 49 49 47 44 46 44 38 40 37 41 46 41 48 43 43 35 39 39 47 48 45 48 50 51 52 51 45 38 46 45 44 45 45 45 46 46
52 52 45 44 45 44 46 51 52 51 52 51 48 44 42 44 45 44 44 44 44 40 44 43 36 33 31 45 44 37 47 49 46 45 43 37 40 42 42 44 43 42 44 45 46

GFSSW_sfc_temp_093.txt.gz
Temp
61 61 61 61 60 60 60 60 60 61 61 61 61 61 60 60 59 51 46 60 58 66 70 68 66 65 62 57 59 57 44 37 43 48 50 62 61 68 76 75 77 82 80 79 78
60 60 60 60 60 60 60 60 60 60 61 61 60 60 60 59 55 49 59 66 67 69 66 64 60 63 55 53 54 51 40 45 52 55 53 59 61 64 69 71 71 75 82 84 80
60 60 60 60 60 59 59 59 60 60 60 60 60 60 59 59 48 58 70 68 69 70 68 67 65 62 51 52 52 50 46 53 57 60 60 61 63 67 67 65 72 72 79 79 79
59 59 60 60 59 59 59 59 60 60 60 59 60 59 59 55 48 66 74 69 70 67 65 63 59 53 49 51 55 46 56 57 63 62 60 59 64 65 66 68 77 79 81 79 70
59 59 59 59 59 59 59 59 59 59 59 59 59 60 53 46 51 70 73 71 68 66 63 60 56 54 49 52 55 50 56 60 63 61 60 64 62 64 66 75 77 76 82 77 77
58 58 59 59 59 59 59 58 58 58 58 58 59 59 50 44 68 71 68 67 67 63 60 60 60 60 54 55 54 59 59 62 64 61 60 61 64 64 68 77 75 75 77 83 83
58 58 58 58 58 58 58 58 57 57 57 58 59 57 49 53 70 69 67 63 66 67 62 64 66 62 58 56 61 62 54 58 60 61 59 64 58 61 71 72 70 72 73 75 76
58 58 58 58 58 58 58 58 57 57 58 58 59 57 46 66 65 64 66 66 69 69 69 70 68 59 57 61 61 53 51 45 57 59 62 63 51 63 68 70 67 68 70 71 74
58 58 58 58 58 58 57 57 57 58 59 60 53 51 47 68 63 68 70 67 69 69 69 77 66 59 58 51 47 46 42 45 53 59 59 57 53 63 68 65 66 66 66 68 70
58 58 57 57 57 57 56 56 56 57 60 60 58 47 55 62 69 72 70 72 69 68 65 64 57 53 48 46 39 42 43 48 49 58 58 55 55 63 65 64 63 64 64 64 67
58 57 57 57 57 56 54 48 48 46 50 51 55 55 63 71 75 71 72 70 67 62 53 56 49 46 50 51 53 52 49 48 55 61 54 55 54 57 60 62 62 62 62 61 63
57 57 57 57 56 56 53 45 55 55 50 55 59 60 67 68 63 69 74 63 59 53 55 50 47 56 58 56 54 52 49 49 54 59 55 55 56 57 58 59 61 63 62 62 59
56 57 56 57 56 51 47 51 60 59 48 59 59 61 62 65 61 64 69 63 58 53 53 49 55 62 59 55 53 52 48 49 50 56 55 52 50 52 59 62 64 63 62 62 63
56 56 56 56 51 47 49 59 59 57 42 53 58 63 66 67 60 72 71 65 57 54 54 52 60 59 56 54 56 48 58 57 56 49 42 51 37 47 54 56 56 55 54 55 57
55 56 56 56 51 45 60 54 56 57 32 60 59 72 67 63 64 64 73 65 55 56 55 52 55 54 53 57 60 53 59 57 54 45 43 44 39 45 50 51 52 53 56 56 58
55 55 55 52 50 51 55 56 57 43 34 57 64 60 58 62 64 66 65 68 65 56 55 56 62 59 58 63 63 62 55 50 45 43 35 41 41 41 46 50 51 54 55 58 58
54 54 53 57 46 53 53 55 41 35 59 56 57 60 57 56 59 61 57 55 50 43 43 53 54 60 63 55 58 55 45 36 33 34 33 44 41 43 52 55 56 55 56 56 58
53 52 51 53 53 55 53 48 34 50 54 63 62 59 53 57 57 58 54 49 54 50 43 42 41 55 61 56 52 49 46 34 30 31 35 45 37 45 55 58 60 58 52 53 53
53 46 45 51 54 53 50 37 41 50 59 57 59 52 50 56 57 55 52 52 53 54 44 41 43 58 60 61 58 52 41 46 38 39 30 40 44 52 56 58 54 52 52 49 49
48 43 47 57 57 53 44 41 48 60 61 59 50 53 46 48 49 50 50 56 57 56 54 48 40 50 55 57 56 53 55 40 37 30 27 38 41 42 47 44 48 47 46 48 48
43 43 57 59 58 49 39 42 53 63 60 56 50 48 47 46 46 47 49 56 57 58 57 49 42 43 49 46 45 47 43 40 39 36 28 29 38 47 43 44 44 45 47 46 47
41 40 58 60 47 44 41 50 56 59 61 58 57 53 48 47 45 45 47 50 56 55 50 47 40 35 43 49 53 48 48 42 31 33 32 29 35 47 45 46 46 46 48 47 47
40 39 55 57 42 42 49 55 57 57 56 56 52 54 50 46 40 46 49 54 55 52 49 47 36 31 36 41 46 43 47 47 43 40 34 32 33 50 47 45 46 44 45 46 48
40 38 47 53 50 46 46 50 53 58 56 55 52 52 47 43 45 43 45 52 55 55 57 51 38 36 32 36 40 39 46 48 46 33 34 37 40 43 44 43 44 43 43 43 45
39 41 45 40 48 47 45 49 50 49 54 53 48 47 44 38 39 39 43 46 51 52 50 47 36 37 41 45 45 44 45 48 43 40 37 40 44 41 43 45 43 43 44 43 44
43 44 46 43 46 46 47 44 46 49 49 47 44 46 45 39 40 36 39 39 39 45 41 45 34 36 37 44 44 42 45 46 46 47 45 46 36 44 47 46 44 44 43 42 43
48 51 46 43 44 43 44 47 49 50 51 51 47 44 43 43 44 43 44 43 41 38 39 40 38 35 31 41 42 35 43 45 44 42 42 35 38 42 41 44 42 41 41 41 43

GFSSW_sfc_temp_096.txt.gz
Temp
61 60 60 60 60 60 60 60 60 60 61 61 61 60 61 60 60 54 46 59 57 67 68 65 64 62 60 55 57 54 42 38 44 46 50 57 55 63 71 69 72 75 75 75 75
60 60 60 60 60 60 60 60 60 60 60 61 60 60 60 60 54 49 59 64 66 69 63 61 57 60 53 51 52 48 40 44 50 51 51 54 58 59 63 65 65 71 77 78 75
60 60 60 60 60 59 59 59 60 60 60 60 60 60 60 59 48 56 70 66 68 69 65 65 62 60 49 49 48 45 45 49 53 56 57 58 56 61 61 59 65 67 76 78 74
59 60 60 60 59 59 59 59 60 60 59 59 59 59 60 55 48 62 72 68 70 65 65 62 57 50 47 48 51 44 53 55 55 58 57 54 58 59 61 64 72 71 74 77 73
59 59 59 59 58 58 59 59 59 59 59 58 58 60 52 45 51 66 72 70 66 63 61 58 54 51 47 50 53 47 54 57 59 58 57 58 58 58 60 68 72 72 75 75 72
58 59 59 59 59 58 59 59 58 58 58 58 58 59 50 44 65 67 66 65 64 60 59 58 57 57 53 52 52 56 56 57 57 57 56 57 57 60 64 69 69 70 72 76 78
58 58 58 58 58 58 58 58 58 58 58 58 58 57 50 51 68 66 65 60 63 65 60 61 62 58 56 52 57 58 52 56 56 54 55 59 55 56 68 68 67 69 71 73 76
58 58 58 58 58 58 58 57 57 58 58 58 59 56 43 62 61 61 63 63 65 67 64 65 64 57 53 57 57 50 49 43 54 56 58 59 49 61 65 63 65 68 68 70 71
58 58 58 58 58 58 57 56 57 58 58 59 53 51 45 65 61 66 67 66 65 64 65 73 62 56 54 48 45 45 39 41 51 55 55 53 52 61 65 62 62 62 65 67 68
58 57 57 57 57 57 56 56 56 58 60 59 58 45 53 60 65 68 66 69 66 63 60 59 54 48 45 45 36 39 40 44 46 54 54 51 52 59 60 62 63 63 62 63 64
58 57 57 57 57 56 54 49 48 47 49 49 53 54 60 68 71 66 67 65 64 60 51 54 47 45 50 50 50 48 45 45 51 58 52 51 51 56 58 56 58 60 61 62 59
57 57 57 57 57 56 53 45 54 54 46 53 56 56 63 65 60 65 71 60 57 51 54 48 45 55 55 53 51 49 45 45 51 56 53 52 53 54 55 56 56 58 59 60 60
56 56 57 57 56 51 46 50 58 56 45 55 56 57 60 63 59 62 67 61 55 51 50 47 55 59 56 51 49 48 45 46 48 53 52 49 48 50 55 57 59 58 56 57 57
56 56 56 56 50 46 46 57 57 54 40 50 54 59 62 62 58 69 69 63 55 52 52 50 57 56 53 51 52 44 54 54 51 46 39 48 36 46 49 52 53 53 53 53 54
56 56 56 55 51 46 55 51 53 53 31 57 56 67 62 60 62 62 70 63 54 54 53 50 53 52 51 54 56 51 57 53 50 44 39 42 38 44 48 50 50 52 54 54 55
55 55 55 54 50 50 53 52 53 42 32 54 59 56 56 59 61 62 63 67 63 55 53 54 59 57 56 61 60 60 54 48 44 40 33 39 39 39 44 48 50 52 54 54 55
55 54 53 55 45 49 49 52 39 33 55 53 54 56 53 53 56 57 54 53 49 43 43 52 53 58 61 53 56 54 45 35 32 31 33 42 38 42 50 53 54 53 50 50 51
54 53 53 52 53 54 50 47 33 47 50 61 58 56 51 54 54 56 51 46 51 49 42 40 40 53 60 56 51 48 46 35 29 29 33 43 35 43 52 51 51 50 49 50 49
53 46 44 47 51 51 46 36 39 46 56 55 53 50 50 55 55 53 49 50 52 52 44 39 42 56 58 59 58 48 44 48 39 36 30 36 42 50 49 48 49 49 49 47 48
49 45 44 52 55 50 44 40 46 55 57 55 47 51 45 48 49 49 47 53 52 54 53 47 38 49 53 56 54 50 52 38 37 30 26 34 37 38 43 43 46 45 46 47 47
43 41 53 54 54 47 38 41 50 59 59 51 49 47 48 47 47 45 49 52 54 52 53 47 43 42 48 45 44 44 41 40 38 32 29 27 33 44 45 44 43 44 46 45 46
44 37 54 55 44 42 40 47 54 57 58 56 54 51 47 48 45 46 48 49 54 54 49 47 42 36 43 47 51 46 43 40 32 32 28 26 31 45 43 43 44 44 45 45 45
42 40 52 55 38 40 45 51 56 53 54 54 51 52 51 47 42 46 47 53 53 53 51 46 37 33 38 40 44 41 45 44 39 39 34 27 33 46 45 44 47 45 43 44 46
42 36 43 50 48 47 45 47 50 55 51 52 49 50 47 43 46 43 44 51 53 52 56 51 37 36 32 36 39 37 43 43 40 30 32 37 36 41 44 44 44 43 42 43 44
41 40 45 37 44 44 46 46 45 49 53 50 47 47 45 41 41 39 42 45 49 50 48 48 39 36 38 42 42 42 43 45 40 39 36 38 40 41 43 42 43 43 44 43 43
40 42 45 43 45 44 44 44 45 46 47 45 44 45 45 41 42 38 40 39 39 44 39 45 33 35 34 42 42 40 43 44 43 43 41 43 38 42 44 45 42 43 42 42 42
46 46 44 41 43 41 42 43 45 48 49 50 47 44 42 43 45 44 43 43 41 38 37 38 38 36 30 38 39 34 40 43 43 44 43 36 41 42 40 42 41 40 41 40 41

GFSSW_sfc_temp_099.txt.gz
Temp
61 61 60 60 60 60 60 60 60 60 60 61 61 60 60 60 60 59 53 68 64 66 68 72 73 73 73 69 69 67 61 59 61 58 65 69 68 73 78 75 78 82 83 87 84
60 60 60 60 60 60 60 60 60 60 60 60 60 60 60 60 57 54 66 64 66 68 71 72 68 71 68 66 67 66 60 62 66 67 67 69 69 71 70 72 73 77 85 84 82
60 60 60 60 60 60 60 60 59 60 60 60 59 60 59 60 53 66 71 67 67 70 73 74 73 71 65 66 65 62 61 63 66 67 69 71 68 72 69 67 73 74 81 85 83
59 60 60 60 59 59 60 60 60 60 60 59 59 59 60 57 56 71 71 67 69 72 73 71 69 65 63 62 65 60 64 65 68 68 67 66 70 68 71 73 80 80 82 82 83
59 59 59 59 59 59 59 60 60 59 59 59 59 59 57 53 58 73 70 70 71 70 71 69 66 65 62 64 63 60 65 67 69 69 69 70 68 69 70 78 82 81 80 81 83
58 59 59 59 59 59 59 58 58 59 59 59 58 58 53 51 73 73 71 70 71 71 69 70 69 69 65 64 64 67 67 69 69 69 68 66 68 67 75 80 79 78 80 83 82
58 58 58 58 58 58 58 58 57 58 58 59 58 57 51 59 72 72 71 70 71 72 67 71 72 69 68 63 68 67 62 67 69 70 68 69 64 65 78 79 75 77 80 82 81
58 58 58 58 58 58 58 58 57 58 59 59 59 56 50 67 69 67 71 68 71 74 73 74 73 69 66 68 66 62 62 59 68 67 66 67 63 73 78 74 75 78 80 80 84
58 58 58 58 58 58 57 57 58 58 59 59 56 52 52 69 64 71 72 69 69 69 72 74 72 66 66 61 58 58 56 57 62 68 67 66 63 74 77 73 74 76 78 80 82
58 58 57 58 58 57 56 57 57 58 60 60 58 47 59 65 69 69 72 73 69 66 65 66 65 61 60 58 50 54 55 56 57 65 67 65 64 71 74 71 74 77 78 78 78
58 57 57 57 57 56 55 56 53 50 53 57 59 58 65 73 75 69 71 71 71 66 59 61 57 53 58 61 61 58 56 55 61 66 62 64 64 70 72 72 71 71 75 75 75
58 57 57 57 57 56 55 51 58 59 52 58 59 59 66 69 63 67 73 65 62 58 62 58 54 60 64 62 59 57 55 56 61 64 62 63 64 67 69 69 68 71 73 74 74
56 56 57 57 56 54 52 54 63 62 52 59 59 59 63 67 63 66 70 67 62 58 58 55 59 64 61 59 56 57 55 55 56 61 64 61 60 63 68 69 69 69 68 68 69
56 56 56 55 54 54 52 60 62 61 50 55 57 62 64 67 63 73 74 69 63 59 59 58 65 60 59 57 59 53 62 60 58 55 53 60 51 60 63 64 65 65 66 66 68
56 56 55 55 51 50 58 59 62 59 37 61 58 72 67 66 67 65 75 70 60 60 61 57 58 58 57 60 62 58 63 60 59 56 55 55 54 61 61 60 60 62 63 64 65
55 56 55 55 52 56 59 58 59 47 36 56 61 58 59 64 66 67 67 72 69 62 60 61 66 64 63 65 64 65 60 57 56 55 48 56 55 57 62 60 60 62 62 62 63
56 55 53 56 50 57 56 55 46 38 58 55 56 59 60 58 61 62 60 58 56 49 50 57 59 64 66 60 63 62 57 48 45 45 46 53 51 58 61 63 65 61 60 61 62
54 53 54 56 56 57 56 50 37 50 52 62 61 60 55 59 60 60 57 54 59 57 52 48 46 58 65 62 59 58 58 49 37 41 47 51 48 56 58 60 62 61 60 61 61
52 55 50 53 56 54 49 41 45 50 58 58 57 52 54 58 60 58 57 56 60 60 51 49 49 61 63 65 64 55 53 57 48 47 46 52 53 55 57 56 57 57 58 58 59
49 48 49 57 56 51 48 45 51 57 60 58 51 54 49 54 54 55 53 60 58 61 65 56 47 56 59 63 61 59 60 48 51 36 36 47 49 54 52 53 56 56 57 57 59
49 43 55 57 57 49 44 48 54 60 61 55 51 51 51 50 54 49 51 56 59 58 62 60 54 51 55 55 55 53 52 51 51 47 40 40 48 56 58 58 56 56 56 57 58
49 41 56 58 47 51 46 52 54 58 63 59 58 54 51 51 50 47 47 51 57 60 54 56 54 47 51 54 56 57 55 55 45 42 45 43 47 54 55 57 57 55 56 57 57
45 46 57 55 40 44 51 52 57 56 57 55 55 56 53 49 46 50 50 55 55 57 55 54 49 43 45 51 54 52 54 54 51 49 43 40 47 54 55 55 55 55 57 56 56
44 39 48 51 51 43 43 47 49 55 53 51 50 53 51 49 50 48 49 53 55 55 55 55 46 46 41 47 50 46 50 53 52 43 47 44 50 50 51 53 55 55 55 56 56
43 43 47 40 43 43 44 45 45 48 53 51 46 46 47 42 42 44 49 50 53 52 53 53 47 48 48 49 50 50 50 51 49 51 45 51 49 55 56 56 56 57 55 55 55
43 42 48 45 48 44 42 43 42 46 49 47 47 46 43 43 43 44 48 49 49 51 49 50 43 47 44 48 49 47 50 51 51 52 51 52 51 61 58 59 55 54 53 53 53
48 49 46 45 45 43 41 41 42 46 49 50 49 45 42 48 52 53 53 51 51 49 46 47 44 43 40 44 46 41 48 51 52 54 53 48 55 55 53 54 54 52 51 50 51

GFSSW_sfc_temp_102.txt.gz
Temp
61 61 61 60 60 61 60 60 60 60 61 61 61 61 61 60 60 69 66 75 73 69 68 81 82 83 84 81 81 82 73 71 74 73 76 82 79 82 85 82 84 89 89 92 94
61 61 60 60 60 60 60 60 60 61 61 61 61 60 60 60 65 69 77 71 69 69 81 79 77 80 79 79 79 76 71 73 81 80 78 80 79 80 77 80 81 83 90 94 93
60 60 60 60 60 60 60 60 60 60 60 60 60 60 59 63 66 77 73 71 68 70 85 86 84 81 76 79 77 76 71 79 77 78 79 78 78 82 78 76 82 82 87 91 91
60 60 60 60 60 59 59 60 60 60 60 60 60 59 59 66 61 80 70 70 68 79 83 81 80 75 74 71 79 70 77 77 79 78 77 75 79 77 79 81 87 88 90 90 89
60 60 60 59 59 59 59 59 59 59 59 59 60 59 62 61 68 86 70 70 75 79 80 78 76 76 72 75 75 71 76 78 79 79 79 79 76 77 79 85 88 89 89 88 90
59 59 59 59 59 59 59 58 58 58 59 59 59 59 60 56 82 82 80 77 80 80 80 82 78 81 76 74 73 77 77 77 79 79 79 75 78 76 82 87 86 87 87 90 91
59 59 59 59 59 59 59 58 57 58 59 59 60 61 55 66 80 82 81 80 83 83 79 83 81 77 78 72 78 75 70 75 77 79 77 79 73 73 84 86 84 85 88 90 91
59 58 59 59 58 58 58 58 57 58 59 60 60 59 59 78 81 79 81 78 82 84 81 83 82 79 75 77 72 70 72 67 78 77 77 76 70 79 84 84 83 85 88 89 90
58 58 58 58 58 58 58 57 58 59 59 60 59 58 63 71 70 78 81 75 78 80 79 81 79 73 74 68 65 67 64 67 71 79 76 75 71 79 85 82 82 85 87 88 90
58 58 57 57 58 57 57 57 59 59 60 64 63 52 67 71 77 79 81 80 74 74 72 72 72 67 68 66 57 59 61 67 67 73 75 73 73 79 82 81 82 85 87 88 89
58 57 57 57 57 57 57 67 59 54 57 63 68 68 73 79 80 75 79 76 77 71 64 70 65 60 64 67 70 67 65 64 69 74 70 71 71 76 80 81 81 83 84 86 87
57 57 57 57 57 56 58 61 66 66 59 70 67 71 76 77 70 73 80 70 68 63 69 65 60 70 71 69 67 66 63 64 69 73 71 71 70 76 78 78 78 77 81 85 85
56 56 56 56 56 58 62 63 73 71 60 67 72 67 71 74 69 70 75 73 68 65 66 63 67 72 67 66 62 64 63 64 63 68 71 69 66 71 77 78 78 77 78 80 82
56 56 56 55 57 66 63 70 74 71 55 63 62 67 72 73 66 80 78 74 69 65 67 66 73 67 66 64 66 59 68 66 65 63 59 71 58 69 74 74 74 75 77 78 79
56 56 56 55 53 58 67 70 71 66 42 67 64 79 75 70 74 73 80 75 66 66 68 63 66 65 62 64 68 63 70 66 64 64 64 63 60 68 73 70 70 72 73 76 77
55 56 56 57 59 64 68 67 63 50 40 60 66 63 64 69 72 74 72 78 76 68 69 68 74 71 69 70 70 71 66 65 64 62 52 62 61 64 69 71 70 71 72 72 74
54 55 55 61 57 71 69 61 49 44 64 59 60 65 66 64 67 67 65 64 61 55 56 64 66 70 71 65 70 68 62 53 50 51 50 65 60 64 70 73 74 71 70 71 73
53 53 59 64 69 66 63 54 42 55 57 66 67 66 62 68 66 66 64 61 67 65 61 55 52 65 70 65 63 63 62 53 42 46 52 62 54 65 70 73 75 73 72 71 71
52 63 65 66 66 60 52 41 48 56 62 60 64 59 61 66 66 65 63 62 66 67 57 56 56 70 71 71 70 62 59 67 56 56 52 55 61 64 66 67 69 68 69 69 69
50 54 62 66 63 53 49 46 56 63 63 62 53 61 56 61 60 62 61 66 65 70 71 63 54 65 67 71 68 65 67 53 57 41 39 51 55 56 60 63 66 66 67 68 69
51 53 62 62 58 50 47 51 56 63 63 57 55 57 58 58 61 57 59 62 69 68 70 67 61 58 64 61 60 60 59 60 59 51 43 43 52 64 66 68 66 68 69 68 69
49 47 65 61 46 51 48 54 55 60 63 61 61 59 55 57 58 55 50 59 60 67 61 66 61 54 57 65 66 66 61 60 48 47 53 51 52 64 67 71 69 69 68 69 69
44 50 69 59 41 48 54 52 57 58 57 60 58 62 61 55 49 52 55 55 57 56 61 63 56 47 47 57 62 59 62 63 60 58 48 44 52 64 65 67 68 67 68 67 66
46 44 59 49 52 44 43 44 47 59 58 60 55 55 55 54 57 49 49 54 54 54 56 61 57 53 47 51 58 54 58 62 59 48 52 54 55 58 61 62 65 66 68 68 66
45 48 54 48 49 46 44 49 45 39 53 55 51 53 48 48 53 52 55 53 59 57 59 57 49 54 49 55 53 56 57 59 56 58 52 57 51 61 64 65 67 68 67 66 65
42 43 48 48 53 51 49 48 41 44 44 45 47 52 50 45 50 50 55 56 55 59 57 58 50 53 48 57 57 54 58 58 59 58 55 57 58 70 70 71 68 66 65 64 65
50 53 42 45 51 50 46 45 40 39 47 47 50 51 47 47 48 50 56 56 59 57 55 54 53 50 47 53 53 48 55 57 59 61 60 54 61 66 63 64 65 64 62 62 61

GFSSW_sfc_temp_105.txt.gz
Temp
62 62 61 61 61 61 61 61 61 61 61 62 61 61 61 61 60 72 71 79 80 71 69 86 85 87 89 87 90 89 75 73 78 81 84 92 84 92 93 88 90 94 94 97 99
61 61 61 61 61 60 60 60 60 61 61 61 61 61 61 60 67 73 82 73 71 71 79 83 81 85 82 84 85 80 74 76 87 88 85 89 85 87 84 85 86 89 95 98 98
61 61 61 61 60 60 60 60 60 60 61 61 61 60 60 63 68 81 74 72 70 73 85 89 88 85 80 84 83 81 74 85 87 86 86 85 85 88 84 80 87 87 91 96 96
60 61 60 60 60 60 60 60 60 61 60 60 60 60 60 68 63 84 73 72 70 80 82 85 85 79 78 78 84 76 82 84 86 86 82 81 86 84 84 85 92 93 93 95 95
60 60 60 60 60 60 60 60 60 60 60 60 60 60 63 65 71 87 72 72 76 78 80 82 80 80 76 81 82 78 80 85 86 86 85 86 82 82 84 89 92 93 93 93 95
59 59 60 59 59 59 59 59 59 59 59 59 60 60 60 59 89 91 87 79 83 82 83 86 83 85 81 81 79 83 81 82 85 84 84 80 82 84 85 90 88 89 90 92 93
59 59 59 59 59 59 59 58 58 58 59 60 60 62 61 68 88 91 88 84 87 86 83 88 89 83 83 78 85 82 75 79 81 83 81 84 77 79 87 89 87 87 89 91 93
59 59 59 59 59 59 59 58 58 59 59 60 60 62 60 85 87 86 89 86 89 89 88 90 90 83 81 84 78 75 75 69 80 82 83 80 71 84 89 87 85 87 89 90 92
58 58 58 58 58 59 58 57 58 59 60 61 62 59 64 75 76 85 88 82 85 87 86 88 84 78 80 72 67 71 64 69 75 85 81 78 74 84 88 86 85 87 89 90 91
58 57 57 58 58 58 57 56 61 59 62 66 66 54 68 73 82 83 87 86 80 80 77 76 76 71 73 69 59 64 65 71 71 79 79 76 75 82 86 86 84 87 89 90 91
58 58 57 57 57 57 59 70 63 55 58 65 69 70 78 84 86 81 84 81 80 75 66 73 67 63 69 72 72 73 70 67 74 80 76 74 76 80 85 85 84 86 87 89 90
58 57 57 57 57 56 61 65 73 73 61 72 70 75 80 86 73 77 84 72 71 65 71 69 62 72 75 75 72 71 68 68 73 76 75 72 72 79 82 82 84 84 85 87 90
56 56 57 57 56 60 69 69 79 77 61 68 77 75 76 80 72 75 78 75 69 66 68 65 70 75 74 72 68 68 66 67 67 74 76 71 66 71 80 83 83 84 86 88 89
55 56 56 56 58 70 69 77 80 77 55 63 71 76 80 78 69 83 81 76 72 66 70 69 77 73 71 69 70 63 72 69 68 66 60 72 57 67 74 76 79 81 83 84 87
55 55 55 55 62 63 73 78 78 71 41 73 74 83 78 69 75 73 83 77 68 69 71 67 69 69 68 69 73 67 75 70 66 61 64 67 62 68 75 73 76 79 82 83 84
55 55 55 62 66 69 76 76 70 51 41 65 71 67 67 70 73 78 75 79 78 72 72 72 79 75 72 75 75 75 70 69 69 65 52 62 63 65 69 74 77 78 80 80 80
55 55 55 64 61 79 77 69 50 43 67 63 65 69 67 65 70 71 68 65 64 58 60 67 69 75 76 69 74 71 64 53 50 52 51 65 61 64 72 78 78 77 77 78 78
54 53 60 68 73 72 65 55 41 54 59 68 57 61 64 69 69 69 65 63 69 68 63 58 55 68 74 70 67 67 65 56 42 48 55 66 55 62 75 80 82 79 78 78 77
52 67 68 74 77 71 56 44 50 56 62 61 61 56 43 66 68 65 65 64 68 71 60 59 59 73 74 75 74 66 61 70 57 59 49 59 64 69 74 74 76 74 75 75 76
59 63 68 75 71 60 46 44 55 65 64 59 41 54 45 49 56 61 63 69 68 73 74 64 55 69 72 75 74 69 73 55 57 42 43 54 54 58 65 69 72 71 72 74 75
56 59 66 72 67 47 46 53 59 65 66 60 51 49 54 51 45 53 58 69 72 71 74 69 63 60 70 65 63 66 62 60 60 58 45 45 51 64 59 69 70 73 74 74 75
59 51 68 68 46 49 51 56 53 61 65 63 57 59 55 52 44 40 44 55 66 72 65 69 61 44 60 71 74 69 65 63 50 47 55 48 49 69 69 69 64 75 75 76 76
52 56 71 65 42 50 53 54 57 55 58 59 58 61 60 57 51 48 45 62 60 64 58 65 60 48 44 60 68 62 63 62 64 60 52 43 49 69 72 71 71 74 75 74 73
50 49 55 54 57 49 47 50 50 53 51 50 50 54 51 54 61 56 48 50 61 59 56 58 55 55 49 51 59 58 63 66 62 48 52 55 57 62 67 69 71 73 74 74 72
51 52 52 49 50 50 50 47 48 42 52 51 51 53 52 47 51 56 58 52 55 55 56 51 46 58 59 55 48 57 62 64 59 59 47 58 60 58 55 62 71 73 73 73 72
46 45 53 51 54 51 47 49 46 45 41 45 42 48 47 44 48 48 56 54 54 57 54 51 44 52 52 59 59 57 58 59 62 63 63 64 62 71 68 68 71 69 72 70 70
50 54 45 43 51 51 50 50 49 48 48 47 47 45 43 48 51 51 51 57 59 54 50 50 49 46 40 57 58 52 58 60 62 66 65 59 65 72 67 69 68 69 70 67 68

GFSSW_sfc_temp_108.txt.gz
Temp
62 62 62 61 61 62 62 62 61 61 62 62 62 62 62 61 61 68 66 74 79 74 71 84 83 83 85 82 87 88 71 68 73 77 81 93 88 92 95 89 93 95 93 97 99
62 62 62 61 61 61 61 61 61 61 61 61 61 62 62 61 62 66 76 76 74 72 79 78 79 81 78 80 82 78 71 72 82 85 85 89 88 87 86 85 85 90 96 99 98
61 61 61 61 61 60 61 60 60 61 61 61 61 61 61 63 62 75 75 76 74 75 82 83 85 82 76 81 80 79 72 79 83 87 89 85 85 89 85 81 86 86 90 95 96
61 61 61 60 60 60 60 60 61 61 61 60 60 60 60 63 57 80 74 72 72 84 81 79 81 77 74 73 82 74 80 81 83 87 85 81 86 83 85 85 92 93 94 94 94
60 60 60 60 60 60 60 60 61 60 60 60 60 60 61 61 64 85 74 73 78 78 77 77 77 78 73 77 79 77 80 83 85 85 86 85 81 81 83 89 92 93 92 91 91
59 60 60 60 59 59 59 59 59 59 59 60 60 60 56 52 84 89 87 78 82 78 78 80 80 83 79 77 77 82 81 81 84 84 85 81 81 83 84 89 88 89 88 90 91
59 59 59 59 59 59 59 58 58 58 59 60 60 61 57 61 87 92 89 83 85 81 78 84 87 82 82 77 84 82 75 79 80 81 81 84 76 77 86 89 87 87 87 89 91
59 58 59 59 59 59 59 59 58 58 59 60 61 60 54 81 82 82 88 85 87 88 86 89 89 84 80 83 79 75 75 66 78 80 81 81 68 81 87 86 85 86 87 88 90
59 58 59 59 59 59 59 58 58 59 61 61 60 59 58 80 76 85 86 82 84 86 87 90 86 78 78 70 67 71 62 65 69 81 80 78 70 81 89 86 84 85 86 88 88
58 58 58 58 58 58 57 57 60 61 61 66 66 54 63 69 81 83 86 86 81 81 78 78 76 69 69 67 55 62 63 66 66 75 79 75 73 80 86 85 83 85 87 87 88
58 57 57 57 57 57 58 65 64 53 57 61 64 61 75 82 88 79 84 81 81 76 65 71 64 59 65 69 70 70 68 67 71 78 76 73 74 78 83 83 83 83 85 86 87
57 57 57 57 57 56 58 59 70 73 60 70 68 70 75 79 74 78 84 71 71 63 68 65 59 69 72 73 70 69 66 67 73 77 75 73 72 78 82 83 84 83 84 86 88
56 55 55 56 56 58 62 70 80 79 60 65 72 71 72 76 71 74 78 73 68 63 64 61 66 73 71 69 67 67 65 66 67 73 75 71 66 69 78 83 85 86 86 86 86
55 55 55 55 55 67 67 79 81 78 51 59 69 72 75 76 68 81 82 73 69 63 66 65 72 71 68 67 69 62 72 71 68 64 57 71 55 65 70 73 80 81 82 83 85
55 55 55 55 57 59 70 77 79 71 35 69 73 87 81 70 74 73 84 75 64 66 67 63 67 67 67 68 73 66 74 70 69 64 60 61 58 64 70 67 73 77 79 81 82
55 56 55 59 63 65 73 77 71 48 37 61 73 70 70 73 72 77 74 77 75 68 70 68 77 74 72 75 75 76 70 69 68 63 52 59 57 60 66 69 73 78 80 81 80
55 55 55 62 56 73 73 67 45 38 62 59 63 68 63 66 68 68 66 63 60 54 56 66 68 75 77 69 74 70 63 51 49 50 49 63 59 62 69 74 78 76 77 78 77
54 53 58 65 69 70 65 51 36 51 55 65 64 64 55 56 56 66 63 59 65 64 59 56 53 68 75 70 65 65 63 53 41 46 52 64 55 63 73 73 72 78 77 76 75
52 63 65 71 74 69 50 35 42 51 59 59 61 57 55 50 47 49 57 63 64 66 56 57 58 73 75 75 72 64 59 68 56 55 47 56 64 73 76 71 73 73 75 73 75
55 58 63 75 75 66 45 39 49 59 61 60 50 57 49 46 40 44 48 55 65 69 71 64 54 69 72 75 73 68 72 55 58 37 38 50 52 58 66 67 68 70 70 73 74
56 56 68 74 70 52 42 48 54 62 59 51 50 53 55 51 43 38 40 54 66 68 71 67 59 59 66 65 62 64 59 60 57 55 44 43 38 57 56 59 68 71 72 72 73
53 46 67 70 48 53 49 54 53 53 56 55 57 58 55 52 47 42 41 45 55 57 47 69 57 42 54 71 73 69 64 59 46 46 52 51 46 57 60 56 66 59 73 74 75
42 53 70 64 39 43 49 48 52 51 47 49 53 58 57 52 44 50 47 51 53 51 53 65 59 44 49 59 65 64 67 66 62 58 43 46 48 62 66 67 68 64 57 73 74
43 46 55 53 54 44 41 43 47 58 52 52 52 54 51 49 54 51 49 48 54 52 57 60 59 51 42 50 56 57 62 63 59 48 46 52 53 60 64 67 67 63 58 69 73
45 44 50 43 49 50 51 49 46 42 53 53 46 49 46 43 49 49 48 48 52 53 56 57 51 53 51 53 49 52 59 62 57 59 51 57 53 60 65 66 65 70 70 71 70
41 40 42 41 49 49 50 46 47 49 49 46 39 43 44 37 41 42 48 45 49 53 51 55 49 50 49 45 53 51 50 58 58 60 60 58 53 55 66 68 67 70 71 71 70
47 47 42 40 46 48 49 48 49 51 51 52 47 44 44 50 52 50 53 53 52 52 51 52 50 46 43 53 47 41 44 47 59 65 65 55 61 63 62 64 64 66 70 69 66

GFSSW_sfc_temp_111.txt.gz
Temp
62 62 61 61 61 61 62 62 61 61 61 61 62 62 62 62 61 58 53 62 67 71 72 75 76 74 73 67 70 70 55 53 57 61 67 76 71 79 83 81 83 85 84 86 91
62 62 61 61 61 61 61 61 61 61 61 61 61 61 61 60 55 53 66 71 72 73 72 70 68 71 63 64 65 63 53 59 66 70 68 74 71 75 76 76 77 80 89 90 90
61 61 61 61 61 61 61 61 61 61 61 61 61 61 60 60 53 62 74 73 73 74 74 76 73 71 61 65 63 63 60 65 70 76 77 75 73 77 72 67 74 76 80 85 84
61 61 61 61 60 60 60 61 61 61 61 61 61 60 60 57 46 71 73 74 73 75 74 71 68 61 60 59 68 60 69 71 73 77 76 71 75 73 73 72 81 82 82 82 80
60 60 61 60 60 60 61 61 61 61 60 60 60 61 58 50 51 75 74 73 74 72 70 68 62 62 59 65 66 64 68 73 76 75 72 75 73 72 72 80 81 84 84 80 80
59 59 59 60 60 59 60 60 60 60 59 59 60 60 53 43 69 79 78 73 75 70 70 68 65 69 65 66 64 69 70 72 73 72 72 70 71 72 75 80 81 81 79 80 79
59 59 59 60 60 60 59 58 58 58 59 60 61 59 51 50 73 76 71 71 74 74 68 72 74 70 70 63 73 71 65 70 73 70 71 73 66 69 76 80 78 79 79 80 79
58 58 60 59 59 59 59 59 58 59 59 60 61 57 47 67 68 65 68 74 78 79 76 78 78 71 68 70 70 63 64 56 64 70 74 69 60 71 77 77 74 79 80 81 79
58 57 58 58 58 58 58 57 58 59 60 60 56 52 48 70 62 68 74 72 78 78 77 81 76 68 69 59 52 56 50 53 61 69 68 68 63 72 78 76 73 75 76 79 77
57 57 56 57 57 57 56 56 58 59 60 63 61 49 55 62 74 77 76 79 75 74 72 71 67 61 60 52 45 49 52 57 57 66 70 66 65 72 76 75 75 73 74 76 76
57 57 56 56 56 55 53 53 52 48 55 51 53 54 64 75 79 76 78 75 73 69 59 65 56 52 57 61 62 60 58 57 62 70 66 65 66 71 73 71 71 72 72 72 74
57 57 56 56 56 55 51 47 56 62 52 61 61 63 65 68 62 71 79 66 64 57 63 58 52 62 67 65 61 60 57 57 63 69 66 62 63 69 73 70 71 70 71 72 72
56 56 56 56 55 52 51 57 66 67 53 59 66 62 62 66 59 63 73 68 62 58 59 54 59 67 65 61 59 59 56 57 57 66 66 62 58 62 70 73 73 74 73 73 71
56 56 56 55 51 53 53 67 68 69 41 51 61 66 67 68 60 71 74 69 63 57 59 58 65 63 61 60 62 54 65 64 62 59 48 63 42 54 63 67 71 73 71 72 69
55 55 55 55 48 47 60 63 65 60 25 60 66 79 72 62 66 66 75 71 58 59 60 55 59 59 59 61 66 59 67 64 62 54 51 55 45 52 64 64 67 68 68 69 71
55 55 55 53 53 53 59 61 59 39 28 53 66 63 64 62 64 69 68 72 70 61 62 60 69 66 63 68 69 70 64 61 59 52 40 50 47 46 57 63 68 71 70 71 69
54 54 53 55 46 58 60 53 38 30 54 51 55 61 59 56 56 55 59 58 54 47 48 58 59 67 70 62 68 64 52 41 39 39 37 53 49 51 60 63 69 71 69 67 68
53 52 52 57 58 58 52 41 29 44 46 55 56 56 52 55 52 48 45 48 61 57 50 46 45 61 70 64 60 60 53 39 31 33 41 56 46 53 64 65 71 70 67 66 66
52 53 54 59 63 59 46 32 35 43 51 50 52 46 47 51 48 44 43 46 59 60 49 48 48 64 70 72 68 57 52 57 46 44 36 44 52 61 66 64 67 65 64 63 64
48 49 53 65 65 57 41 36 38 52 53 51 39 45 40 45 45 41 39 49 49 54 63 56 46 63 67 70 69 59 62 48 49 33 29 41 42 45 49 55 64 64 62 65 65
50 45 60 65 63 47 35 40 48 56 55 41 40 41 42 43 48 39 42 49 51 50 50 56 49 50 57 59 57 54 55 53 47 41 31 32 38 52 48 50 52 58 63 63 64
45 37 60 57 42 43 40 43 43 50 55 50 50 47 46 44 46 41 40 45 48 46 42 53 47 41 48 58 64 61 57 52 37 38 42 39 38 55 54 53 52 54 57 61 64
39 42 58 54 37 38 42 43 48 48 48 44 46 49 51 43 40 42 44 53 49 45 46 48 43 36 41 50 55 55 58 55 51 43 39 34 37 55 55 53 55 53 56 57 61
40 36 46 47 46 37 38 41 44 51 48 50 49 48 39 43 47 44 47 48 50 51 54 50 44 43 37 43 50 50 56 58 51 37 39 42 43 52 54 54 57 58 56 54 58
42 39 40 34 37 39 42 43 43 40 46 49 46 44 40 37 43 44 49 49 50 52 49 45 42 47 49 52 52 50 52 56 50 50 40 46 43 51 54 57 55 57 58 61 60
38 36 39 36 41 40 42 41 42 44 44 44 42 45 44 38 40 39 43 42 43 48 45 48 41 45 42 49 50 48 52 51 56 49 48 51 47 54 59 56 54 56 57 60 61
44 45 39 37 39 38 40 38 39 43 49 50 46 42 41 42 42 47 48 48 47 46 42 43 44 40 36 44 46 40 46 50 51 54 50 41 50 55 52 57 56 57 63 61 57

GFSSW_sfc_temp_114.txt.gz
Temp
62 62 61 61 61 61 62 62 61 61 61 61 61 61 61 61 60 55 49 58 59 68 71 69 70 69 66 62 64 62 47 42 49 54 59 66 66 75 81 75 83 82 80 84 87
62 62 61 61 61 61 62 62 61 61 60 61 61 61 61 60 53 50 61 68 68 70 65 63 63 66 58 58 60 56 47 50 59 62 61 62 65 72 73 74 73 78 84 84 85
61 61 61 61 61 60 60 61 61 60 60 61 60 60 60 60 48 54 73 70 69 70 68 68 68 65 56 55 57 55 54 59 61 67 68 68 66 72 70 66 71 71 76 78 79
60 60 60 60 60 60 60 61 61 61 61 60 60 60 60 57 45 67 73 74 71 69 67 65 63 56 53 53 59 51 61 63 64 69 66 62 68 71 70 72 77 78 78 79 75
59 60 60 60 59 60 60 60 60 60 60 60 60 60 57 46 49 67 72 74 70 69 64 62 58 55 51 54 58 54 60 65 67 68 69 68 68 69 71 77 77 80 80 76 74
59 60 59 60 59 59 59 59 59 59 59 59 60 60 51 40 64 69 71 71 70 66 63 62 60 60 55 58 57 61 64 65 67 64 69 67 69 67 71 77 77 77 77 77 75
58 58 58 58 59 59 59 58 58 58 59 60 60 59 50 48 66 68 66 64 69 68 64 68 68 64 61 56 65 65 59 63 64 64 64 66 63 66 72 74 75 75 76 78 77
57 57 57 57 57 58 58 57 57 58 58 59 61 56 46 63 64 61 62 61 68 72 71 72 72 64 55 62 62 57 58 52 63 64 67 66 59 67 72 70 71 73 74 76 76
57 57 57 57 57 57 57 56 56 57 59 60 55 51 46 65 58 63 63 63 68 71 72 77 68 60 59 53 48 49 47 47 53 62 64 62 61 68 73 71 69 70 72 73 73
57 57 56 57 57 56 55 55 56 57 57 61 59 48 53 57 66 72 67 66 66 68 65 65 59 52 54 48 41 46 45 49 51 59 61 60 58 65 70 70 68 69 71 71 72
57 57 56 56 56 56 53 50 48 46 49 49 51 50 58 69 74 71 72 66 66 64 54 58 50 46 51 55 57 55 52 50 55 64 60 57 61 64 70 67 68 66 71 69 70
56 56 56 56 56 55 53 43 50 53 44 56 58 58 62 67 59 66 73 61 60 51 58 53 47 57 60 60 58 56 52 50 56 62 59 60 58 64 67 69 68 67 69 68 68
55 55 55 55 55 49 45 49 60 58 42 52 59 57 58 62 54 57 65 64 59 53 54 50 54 62 60 58 55 55 52 52 52 61 59 57 52 57 65 68 70 68 69 67 66
55 55 55 55 48 47 45 57 57 58 35 46 55 61 62 62 56 67 67 62 59 54 55 54 61 59 57 56 58 50 60 59 57 53 43 56 42 51 59 63 67 68 66 63 64
55 55 55 55 48 45 50 54 56 52 22 53 59 71 66 56 62 62 69 62 55 56 56 52 55 55 54 57 61 54 63 60 59 50 46 49 42 48 55 57 62 65 66 64 64
54 55 55 52 45 49 53 52 48 35 25 46 59 55 57 61 60 61 61 65 64 57 57 57 64 61 59 64 64 65 60 58 55 49 39 48 45 44 50 57 61 66 66 64 62
54 54 52 53 44 50 49 44 32 27 50 46 49 53 51 50 54 54 49 47 45 44 44 53 55 62 65 57 62 60 53 38 34 36 38 49 44 47 56 60 66 63 62 62 62
53 52 51 52 48 52 48 36 26 40 42 52 51 49 44 49 46 48 45 41 49 45 46 42 41 55 63 58 54 54 53 37 31 31 37 50 41 48 61 64 63 65 62 62 62
51 51 48 54 54 50 44 31 30 40 48 46 46 41 42 47 48 45 43 42 47 50 38 45 44 62 64 65 62 56 51 55 43 41 37 40 47 55 57 58 59 59 61 59 60
46 43 45 56 56 48 39 35 38 46 49 46 35 43 36 42 41 43 41 48 46 49 53 48 42 58 62 64 64 60 60 46 41 30 29 36 41 43 46 48 57 57 58 59 61
41 38 48 58 51 42 33 38 45 51 50 40 35 37 40 39 41 41 43 49 51 46 48 47 44 47 57 54 51 55 55 50 45 39 29 30 34 48 46 48 47 53 58 58 58
39 35 51 54 37 39 36 39 41 44 51 47 43 42 40 41 38 39 41 47 50 48 42 46 43 39 44 56 59 56 50 50 41 35 38 36 34 52 50 52 51 51 54 56 61
36 40 49 49 30 33 38 41 44 44 44 42 42 46 43 40 35 39 44 52 49 46 42 46 41 35 39 46 51 49 52 50 44 40 37 34 35 52 54 54 53 53 52 57 60
38 32 38 38 41 36 34 37 39 48 46 47 45 45 40 37 41 40 42 48 50 48 50 46 43 39 36 41 46 46 52 54 47 35 36 39 41 46 51 52 53 53 54 56 55
38 33 38 31 35 36 38 38 36 37 46 46 43 43 40 36 37 40 44 44 49 50 47 45 40 44 48 52 52 50 49 49 47 45 42 43 45 48 51 51 55 54 53 55 55
32 33 38 35 39 36 37 38 35 34 38 40 38 43 40 36 39 35 40 42 43 47 45 45 40 45 42 52 51 48 48 51 50 50 48 48 46 52 55 56 54 55 55 56 55
42 40 37 37 36 34 35 35 36 38 43 47 42 40 39 41 42 43 42 44 46 44 42 41 42 39 36 47 48 41 46 48 48 51 49 42 48 51 50 54 53 55 58 55 52

GFSSW_sfc_temp_117.txt.gz
Temp
62 61 61 61 61 61 61 61 61 61 60 60 61 61 60 60 60 54 48 57 58 67 69 67 67 66 64 58 61 58 44 39 46 52 56 60 60 69 73 72 76 78 76 80 83
61 61 60 60 60 60 61 61 61 61 60 61 61 61 61 61 53 48 59 66 67 68 61 62 60 63 55 56 57 53 42 46 54 57 56 56 59 65 69 68 72 77 80 83 82
61 61 60 60 60 60 60 60 61 60 60 60 60 60 60 60 46 54 69 71 68 68 66 65 65 62 51 53 55 53 49 55 58 62 63 57 62 66 66 64 68 69 74 77 74
59 60 60 60 60 60 60 60 60 60 60 59 59 59 59 57 47 63 73 71 71 67 63 62 59 53 50 50 54 47 56 60 60 64 60 57 64 64 66 69 74 74 75 75 73
58 58 58 58 59 59 59 60 60 59 60 59 59 60 56 46 47 64 70 70 67 63 59 58 54 52 48 51 53 48 54 59 63 62 61 64 62 63 66 72 74 74 75 71 69
57 58 58 58 58 58 58 58 57 58 58 59 60 60 51 39 61 65 65 65 66 61 57 58 57 57 52 53 52 56 59 62 60 60 59 61 64 61 66 72 72 72 73 73 72
57 57 57 57 57 57 58 57 56 57 57 58 60 58 49 47 64 64 62 58 60 64 59 63 63 61 57 51 59 60 53 58 58 59 59 61 59 60 68 71 70 70 72 73 72
57 56 57 57 57 57 57 56 56 57 58 58 59 55 44 62 63 60 60 57 61 63 64 68 67 58 54 57 57 51 53 48 54 59 62 62 53 63 68 67 67 70 71 71 71
57 56 56 57 57 57 56 56 56 57 58 59 54 50 43 62 57 61 61 56 61 61 66 72 63 55 55 47 43 45 38 43 50 58 60 58 52 65 69 65 65 66 68 70 70
56 56 56 56 56 56 55 55 56 55 56 59 58 46 50 53 60 65 63 60 61 61 59 59 54 48 48 45 37 41 41 48 48 56 58 57 52 62 65 64 64 65 65 67 68
56 56 55 55 55 55 53 50 45 44 48 45 49 49 53 65 67 66 65 59 59 58 49 54 46 42 47 50 51 50 49 47 51 60 56 53 53 58 64 62 62 62 63 65 66
56 56 56 55 55 55 52 44 45 46 38 53 54 54 58 61 53 60 68 55 52 48 54 47 43 52 55 53 52 51 46 45 52 58 54 54 54 59 62 62 62 64 63 64 65
55 55 55 55 54 48 43 46 53 50 36 48 54 54 54 58 50 52 60 57 52 49 50 46 51 58 55 52 49 49 47 46 48 55 55 52 49 53 61 63 64 64 66 64 65
54 54 54 54 48 44 43 52 50 49 32 42 50 55 58 58 52 62 63 56 54 49 51 50 58 55 53 51 53 45 55 54 53 48 39 53 36 47 54 58 61 64 61 60 61
54 54 54 54 48 45 47 46 51 45 20 49 54 67 59 52 58 60 66 57 48 52 53 48 52 52 50 52 57 51 59 55 53 46 43 46 40 47 51 53 55 56 56 58 60
53 54 54 49 45 49 52 46 45 32 24 43 55 52 51 55 56 60 58 60 58 52 56 53 59 57 56 60 60 60 55 51 47 43 35 43 43 42 48 55 56 57 57 58 58
53 53 51 51 43 48 45 40 31 25 47 43 45 49 47 47 50 50 47 44 40 41 41 50 52 58 61 53 57 56 47 32 30 30 34 45 41 46 54 59 60 55 56 57 58
52 51 51 53 50 49 46 35 25 37 38 49 47 45 41 45 46 48 44 41 45 42 38 39 38 52 59 54 50 49 46 33 27 28 34 46 38 46 57 61 61 59 57 58 57
51 46 43 47 56 51 40 26 29 36 45 41 43 38 38 45 45 43 42 42 45 47 36 38 41 57 59 60 58 49 45 51 40 39 34 40 45 53 55 53 55 55 56 55 57
44 38 41 51 50 47 35 33 38 45 47 43 34 40 34 39 38 39 40 46 46 49 47 41 38 55 57 61 61 56 55 42 41 29 28 35 40 43 45 47 52 53 53 53 56
37 34 45 52 51 40 32 34 37 44 44 39 37 36 36 37 39 37 39 47 49 47 48 45 40 46 54 51 50 51 49 49 46 39 31 30 36 46 45 46 49 50 53 53 54
42 27 47 49 35 34 33 36 39 42 48 45 44 40 37 39 36 36 38 44 53 50 43 46 39 36 43 55 59 54 51 50 36 33 37 36 35 48 46 46 50 50 52 53 55
36 38 46 45 27 32 38 38 42 39 41 42 38 41 43 38 33 38 40 51 50 47 43 44 39 33 37 45 50 49 49 49 44 41 36 33 35 50 50 49 51 50 52 54 56
37 32 35 35 37 34 32 35 36 45 42 44 43 45 41 39 40 37 40 46 48 48 50 47 38 38 33 38 45 45 50 51 45 36 37 37 41 44 47 47 49 51 52 52 53
37 33 34 26 32 32 35 35 34 33 39 40 40 39 35 35 37 36 41 44 46 50 46 44 36 40 45 49 51 50 50 52 46 47 42 41 42 46 49 50 51 52 52 53 53
32 33 36 33 35 35 34 34 33 35 36 36 36 38 39 35 37 35 39 40 42 46 43 44 37 43 40 50 52 47 49 53 51 47 48 47 42 52 52 53 53 53 53 51 51
42 42 36 33 33 33 33 34 33 36 39 42 40 38 36 39 42 44 43 42 41 41 42 40 37 40 36 47 45 37 45 47 47 48 49 42 45 51 50 52 51 52 54 50 49

GFSSW_sfc_temp_120.txt.gz
Temp
61 61 61 61 60 60 61 61 61 61 60 60 60 60 60 60 60 53 47 54 55 64 68 64 64 61 61 55 57 53 43 37 45 49 54 55 53 63 68 67 70 75 72 76 77
60 60 60 60 60 60 60 60 60 60 60 60 60 60 60 60 53 47 58 64 66 67 58 57 58 60 53 54 55 51 40 43 53 54 54 55 54 58 65 64 67 73 75 77 77
59 59 59 59 59 59 59 60 60 60 61 60 59 59 60 59 44 50 65 69 71 67 61 61 61 59 50 50 52 51 44 51 56 59 59 56 57 63 60 61 66 65 72 73 74
58 58 58 58 58 58 59 59 59 59 60 59 60 59 60 53 46 60 71 70 69 65 61 59 57 52 49 47 52 45 52 56 58 60 58 55 59 58 62 66 69 69 71 73 70
58 58 58 58 58 58 58 58 58 58 58 58 59 59 55 45 45 62 69 66 65 61 57 55 53 50 47 49 51 46 51 56 60 60 59 59 58 59 60 69 69 70 71 71 70
57 57 57 57 58 58 58 57 57 57 57 58 58 59 49 38 60 62 62 61 62 58 54 54 55 55 50 51 51 54 56 58 57 56 56 58 60 58 59 67 68 67 69 69 69
57 57 57 57 57 57 57 57 56 57 57 58 59 57 48 45 61 61 60 55 58 60 55 60 60 59 55 48 56 56 48 53 54 56 55 58 58 57 64 66 65 67 68 70 68
57 56 56 57 57 57 57 56 56 56 57 58 59 54 43 59 61 58 59 58 60 58 58 61 62 55 53 54 53 49 48 45 50 56 58 59 50 59 64 63 63 66 67 67 67
56 56 56 56 56 56 56 55 56 56 58 58 53 49 40 60 54 60 60 53 57 58 61 67 60 52 51 45 41 42 36 39 45 55 57 56 49 61 65 63 62 63 65 67 65
56 56 56 56 56 56 55 55 56 55 57 59 57 45 48 51 57 62 61 58 57 54 54 54 51 45 44 44 37 37 37 42 44 52 56 52 49 60 61 61 61 62 63 64 64
56 55 55 55 55 55 53 48 43 43 45 46 48 46 51 59 64 61 61 54 54 52 45 50 44 38 44 48 49 48 45 45 48 56 52 52 53 55 60 57 59 59 61 62 63
55 55 55 55 55 54 51 40 43 43 36 48 48 50 55 59 50 57 64 50 48 43 50 43 39 49 52 51 49 48 43 43 49 54 52 50 50 55 58 58 60 60 60 62 61
54 54 54 54 54 48 41 43 49 47 35 43 49 49 50 54 47 49 56 53 47 44 46 43 48 54 51 48 45 45 44 44 46 52 52 49 47 51 58 58 61 61 63 63 63
54 54 54 54 46 42 42 49 46 46 32 38 45 51 54 54 49 60 60 53 48 43 47 46 55 52 48 46 48 40 51 51 50 45 38 50 34 45 51 55 57 60 59 61 60
53 54 54 53 46 45 46 44 47 43 19 46 50 63 55 50 54 58 64 54 45 47 49 44 48 48 45 48 52 47 54 51 50 44 40 42 37 41 48 51 55 56 55 55 57
53 53 53 46 46 46 50 43 43 32 22 41 52 49 48 52 55 57 55 58 55 48 50 49 57 55 52 55 56 57 52 49 45 42 34 41 40 37 45 53 52 53 56 61 63
53 52 50 50 42 48 44 41 29 23 44 40 41 45 44 44 47 50 47 43 37 34 36 46 48 55 58 50 55 52 45 29 29 29 31 43 39 42 51 55 57 54 58 60 60
52 51 47 50 50 48 42 35 24 36 36 46 44 44 39 42 44 46 45 40 43 36 40 38 35 48 55 51 46 48 46 29 25 27 30 42 35 44 59 56 56 56 58 58 59
51 42 40 45 50 49 41 27 29 36 43 38 40 38 37 43 42 41 40 39 45 44 36 36 37 52 55 56 56 45 43 47 36 36 33 37 43 50 51 51 52 54 57 55 56
44 35 38 48 48 44 36 32 34 40 40 39 33 37 33 36 34 37 37 45 43 47 48 41 34 50 52 54 56 53 55 40 36 28 28 32 37 40 44 46 52 54 55 54 55
38 31 44 50 47 36 30 32 36 43 39 36 36 35 36 34 37 36 37 42 48 44 46 45 39 41 50 48 47 47 47 45 43 35 28 28 32 43 44 47 50 54 54 53 53
42 28 45 46 31 35 32 36 40 39 43 41 42 38 34 36 37 36 34 41 50 48 40 44 37 34 38 49 55 53 49 42 38 31 33 31 33 46 45 47 49 51 52 53 53
33 33 45 42 24 25 33 35 40 37 37 38 37 42 42 37 33 38 41 47 47 49 42 43 36 32 34 44 49 48 50 48 40 36 34 30 33 50 49 48 49 49 52 52 52
35 29 33 33 34 32 29 32 33 42 40 40 37 41 36 36 39 36 38 46 48 48 51 47 37 33 31 37 44 43 46 51 44 31 34 38 41 46 47 47 49 50 52 51 51
32 29 33 25 30 32 32 32 32 31 38 40 38 38 36 33 35 34 41 42 45 48 47 40 35 38 39 45 48 48 48 47 45 46 39 40 42 46 47 48 49 50 50 50 51
34 33 34 33 33 34 33 33 31 33 34 34 34 37 37 34 36 34 36 38 38 43 43 43 36 40 37 45 49 44 48 48 49 48 49 46 43 51 50 51 49 50 50 50 50
42 42 36 34 31 31 32 33 32 35 38 41 37 34 35 38 41 41 42 41 40 38 38 40 36 35 34 41 45 39 45 49 49 51 47 41 45 49 47 49 48 49 51 49 48

GFSSW_sfc_temp_123.txt.gz
Temp
59 59 59 59 59 59 60 60 60 60 60 61 61 61 61 61 61 61 52 62 63 64 65 70 69 69 72 70 70 68 62 60 63 62 69 72 73 79 81 79 81 84 82 86 84
59 59 59 59 59 58 58 59 59 60 60 60 60 60 60 60 58 54 64 63 65 66 63 66 65 67 68 68 69 67 61 63 66 71 71 73 74 75 76 76 78 81 80 82 82
59 59 59 59 59 59 59 59 59 59 59 59 60 59 59 60 51 57 66 66 66 68 66 68 71 70 64 66 65 66 60 65 66 70 73 73 72 75 74 74 79 78 80 77 79
58 59 58 58 58 58 58 58 59 59 59 59 59 59 59 58 52 68 70 69 70 71 66 64 66 63 62 60 66 59 63 67 70 72 70 69 75 71 75 78 82 79 81 82 79
58 58 58 58 58 58 58 58 58 58 58 58 59 58 57 49 51 69 68 67 69 66 65 65 63 64 60 62 63 60 64 66 71 72 71 71 70 72 72 80 82 82 81 82 84
57 57 57 57 58 58 58 57 57 57 57 57 58 58 52 40 65 67 66 66 67 66 64 65 67 69 64 61 61 65 65 67 69 69 70 68 70 70 73 78 78 78 81 83 83
57 57 57 57 57 57 57 57 56 56 57 58 58 57 48 49 65 67 65 64 64 65 62 67 69 66 67 59 66 64 60 62 65 68 67 68 63 65 73 77 76 78 80 82 83
57 56 56 57 57 57 57 56 56 56 57 58 59 54 44 63 66 62 63 60 65 65 61 63 66 66 63 66 61 58 59 54 65 64 66 67 60 70 77 74 73 76 79 80 82
56 56 56 56 56 56 56 55 55 57 58 59 54 50 45 63 57 63 63 57 61 63 63 66 64 61 62 57 54 57 54 52 58 67 67 64 63 72 76 72 72 75 78 80 81
56 56 55 55 55 55 54 54 56 57 59 60 58 45 53 55 60 62 65 61 57 58 56 56 57 53 55 53 47 52 50 54 55 62 64 62 62 68 72 73 74 77 78 79 79
55 55 55 55 55 54 53 53 52 50 51 52 53 51 59 65 67 63 62 57 57 54 48 53 44 45 51 55 59 58 54 54 58 65 62 61 63 66 73 71 73 74 75 77 78
55 54 55 54 54 54 53 47 46 47 37 50 50 52 57 60 51 57 64 52 50 47 53 48 43 53 57 56 54 55 53 53 59 64 61 62 61 67 68 71 73 74 75 77 79
54 54 54 54 54 52 49 48 54 53 39 46 51 49 52 56 48 51 58 55 50 47 49 47 52 57 54 52 49 51 52 52 55 59 63 60 59 62 68 71 73 76 78 79 79
54 54 54 53 51 51 49 54 54 54 34 42 47 53 55 57 48 60 62 56 51 46 49 49 57 55 51 50 52 45 55 55 56 56 51 61 52 58 66 68 69 73 74 77 77
53 54 53 53 48 47 52 55 55 48 24 49 52 65 58 53 57 60 65 56 48 48 50 47 50 50 50 51 55 51 57 54 57 55 54 54 51 61 63 63 68 71 75 75 76
53 53 53 51 50 53 55 53 50 33 24 44 54 51 51 55 55 60 56 59 56 46 47 50 60 56 55 58 57 58 55 53 55 53 43 53 52 56 60 64 70 70 70 71 73
53 52 52 53 50 57 53 49 33 26 46 42 44 49 47 48 50 52 52 48 44 36 35 40 46 55 59 52 57 55 50 38 37 38 42 55 50 58 64 68 73 72 67 68 66
52 51 51 53 56 53 49 38 26 38 39 47 45 43 41 48 48 48 47 45 48 41 38 35 33 48 56 54 48 50 51 43 33 36 43 51 46 56 68 70 68 68 66 64 65
51 50 50 55 55 54 41 29 32 33 39 36 37 38 41 45 44 44 45 45 50 46 37 36 35 51 57 55 59 51 46 58 47 50 44 48 53 59 65 61 62 61 59 59 60
48 44 48 55 54 47 36 32 34 40 36 36 30 37 35 37 34 37 40 48 47 51 50 45 34 45 54 56 57 55 60 46 50 36 37 45 50 55 56 56 59 57 56 55 56
47 41 54 55 52 43 30 32 37 43 39 35 35 34 34 33 35 36 39 46 50 49 50 48 41 43 47 48 48 45 49 53 54 49 42 39 46 55 59 59 59 58 56 55 55
43 37 55 54 38 37 32 33 39 40 43 38 39 37 34 36 36 38 37 39 51 47 40 49 42 35 41 45 55 50 52 53 46 43 49 50 46 54 56 59 60 55 54 55 56
37 37 53 49 28 31 37 37 41 37 36 37 35 37 39 36 34 39 42 50 51 47 44 48 39 33 36 38 44 46 53 56 56 51 46 46 44 52 57 56 54 52 53 54 58
38 32 42 41 43 34 31 35 35 43 41 42 38 39 39 36 39 36 39 48 49 49 51 51 42 37 33 35 37 39 51 55 54 46 49 52 46 46 51 51 51 52 53 55 59
39 34 36 31 36 35 36 36 34 32 40 42 38 41 35 31 33 36 42 42 46 47 47 45 37 41 41 41 38 46 50 54 52 55 49 53 54 52 53 52 53 53 53 55 56
34 33 36 33 38 36 37 35 33 33 35 34 34 37 35 31 33 31 36 37 37 42 38 40 36 39 36 43 46 47 52 55 55 55 57 57 55 61 58 55 51 51 53 54 55
42 43 36 36 36 33 35 34 32 37 39 41 35 33 34 36 39 39 40 40 39 37 36 36 35 34 34 43 47 41 50 51 55 58 57 52 56 56 52 51 51 52 55 55 53